<?xml version="1.0" encoding="UTF-8" standalone="no" ?><gpx xmlns="http://www.topografix.com/GPX/1/1" xmlns:gpxx="http://www.garmin.com/xmlschemas/GpxExtensions/v3" xmlns:wptx1="http://www.garmin.com/xmlschemas/WaypointExtension/v1" xmlns:gpxtpx="http://www.garmin.com/xmlschemas/TrackPointExtension/v1" creator="GuideVTT.com" version="1.1" xmlns:xsi="http://www.w3.org/2001/XMLSchema-instance" xsi:schemaLocation="http://www.topografix.com/GPX/1/1 http://www.topografix.com/GPX/1/1/gpx.xsd http://www.garmin.com/xmlschemas/GpxExtensions/v3 http://www8.garmin.com/xmlschemas/GpxExtensionsv3.xsd http://www.garmin.com/xmlschemas/WaypointExtension/v1 http://www8.garmin.com/xmlschemas/WaypointExtensionv1.xsd http://www.garmin.com/xmlschemas/TrackPointExtension/v1 http://www.garmin.com/xmlschemas/TrackPointExtensionv1.xsd">
<metadata><link href="http://www.garmin.com"><text>Garmin International</text></link><time>2013-06-22T15:13:50Z</time></metadata>
<trk><name>nufenen-gotthard.gpx</name><extensions><gpxx:TrackExtension><gpxx:DisplayColor>Cyan</gpxx:DisplayColor></gpxx:TrackExtension></extensions><trkseg>
<trkpt lat="46.50492202" lon="8.30867702"><ele>1357.203979</ele><time>2007-07-25T09:11:52Z</time></trkpt>
<trkpt lat="46.50499603" lon="8.30867903"><ele>1356.600952</ele><time>2007-07-25T09:11:57Z</time></trkpt>
<trkpt lat="46.50540196" lon="8.30911699"><ele>1356.589966</ele><time>2007-07-25T09:12:12Z</time></trkpt>
<trkpt lat="46.50566298" lon="8.30938999"><ele>1357.136963</ele><time>2007-07-25T09:12:23Z</time></trkpt>
<trkpt lat="46.50563900" lon="8.30953499"><ele>1357.110962</ele><time>2007-07-25T09:12:27Z</time></trkpt>
<trkpt lat="46.50539098" lon="8.31019297"><ele>1357.186035</ele><time>2007-07-25T09:12:39Z</time></trkpt>
<trkpt lat="46.50515403" lon="8.31164204"><ele>1357.016968</ele><time>2007-07-25T09:12:58Z</time></trkpt>
<trkpt lat="46.50502201" lon="8.31248903"><ele>1358.084961</ele><time>2007-07-25T09:13:14Z</time></trkpt>
<trkpt lat="46.50496401" lon="8.31292899"><ele>1358.255005</ele><time>2007-07-25T09:13:22Z</time></trkpt>
<trkpt lat="46.50495504" lon="8.31306000"><ele>1358.021973</ele><time>2007-07-25T09:13:24Z</time></trkpt>
<trkpt lat="46.50477902" lon="8.31405401"><ele>1358.839966</ele><time>2007-07-25T09:13:37Z</time></trkpt>
<trkpt lat="46.50451097" lon="8.31552998"><ele>1361.889038</ele><time>2007-07-25T09:13:57Z</time></trkpt>
<trkpt lat="46.50444198" lon="8.31582201"><ele>1362.297974</ele><time>2007-07-25T09:14:01Z</time></trkpt>
<trkpt lat="46.50406798" lon="8.31689900"><ele>1364.847046</ele><time>2007-07-25T09:14:17Z</time></trkpt>
<trkpt lat="46.50362299" lon="8.31746302"><ele>1366.661011</ele><time>2007-07-25T09:14:28Z</time></trkpt>
<trkpt lat="46.50344403" lon="8.31806500"><ele>1367.902954</ele><time>2007-07-25T09:14:37Z</time></trkpt>
<trkpt lat="46.50345300" lon="8.31860798"><ele>1370.328979</ele><time>2007-07-25T09:14:46Z</time></trkpt>
<trkpt lat="46.50334898" lon="8.31887696"><ele>1373.665039</ele><time>2007-07-25T09:14:53Z</time></trkpt>
<trkpt lat="46.50311999" lon="8.31905197"><ele>1376.725952</ele><time>2007-07-25T09:15:03Z</time></trkpt>
<trkpt lat="46.50285797" lon="8.31930201"><ele>1379.844971</ele><time>2007-07-25T09:15:14Z</time></trkpt>
<trkpt lat="46.50276502" lon="8.31940603"><ele>1381.030029</ele><time>2007-07-25T09:15:18Z</time></trkpt>
<trkpt lat="46.50244801" lon="8.31966301"><ele>1384.06897</ele><time>2007-07-25T09:15:33Z</time></trkpt>
<trkpt lat="46.50231700" lon="8.31975899"><ele>1386.16394</ele><time>2007-07-25T09:15:39Z</time></trkpt>
<trkpt lat="46.50193403" lon="8.32000097"><ele>1389.311035</ele><time>2007-07-25T09:15:56Z</time></trkpt>
<trkpt lat="46.50148803" lon="8.32003199"><ele>1392.535034</ele><time>2007-07-25T09:16:12Z</time></trkpt>
<trkpt lat="46.50133196" lon="8.32039400"><ele>1394.781006</ele><time>2007-07-25T09:16:23Z</time></trkpt>
<trkpt lat="46.50161301" lon="8.32056499"><ele>1397.234985</ele><time>2007-07-25T09:16:33Z</time></trkpt>
<trkpt lat="46.50208700" lon="8.32038797"><ele>1400.396973</ele><time>2007-07-25T09:16:48Z</time></trkpt>
<trkpt lat="46.50236797" lon="8.32024899"><ele>1403.469971</ele><time>2007-07-25T09:16:58Z</time></trkpt>
<trkpt lat="46.50265404" lon="8.32010801"><ele>1406.470947</ele><time>2007-07-25T09:17:09Z</time></trkpt>
<trkpt lat="46.50282796" lon="8.32008303"><ele>1408.750977</ele><time>2007-07-25T09:17:15Z</time></trkpt>
<trkpt lat="46.50298898" lon="8.32012997"><ele>1410.661011</ele><time>2007-07-25T09:17:21Z</time></trkpt>
<trkpt lat="46.50311303" lon="8.32017699"><ele>1412.011963</ele><time>2007-07-25T09:17:26Z</time></trkpt>
<trkpt lat="46.50344001" lon="8.32008404"><ele>1415.140991</ele><time>2007-07-25T09:17:39Z</time></trkpt>
<trkpt lat="46.50376104" lon="8.31992202"><ele>1418.385986</ele><time>2007-07-25T09:17:52Z</time></trkpt>
<trkpt lat="46.50401803" lon="8.31998597"><ele>1421.697021</ele><time>2007-07-25T09:18:03Z</time></trkpt>
<trkpt lat="46.50426303" lon="8.32021496"><ele>1424.842041</ele><time>2007-07-25T09:18:16Z</time></trkpt>
<trkpt lat="46.50437401" lon="8.32031102"><ele>1426.702026</ele><time>2007-07-25T09:18:22Z</time></trkpt>
<trkpt lat="46.50459998" lon="8.32051302"><ele>1430.416016</ele><time>2007-07-25T09:18:34Z</time></trkpt>
<trkpt lat="46.50493903" lon="8.32074696"><ele>1433.765015</ele><time>2007-07-25T09:18:50Z</time></trkpt>
<trkpt lat="46.50521203" lon="8.32075400"><ele>1436.880005</ele><time>2007-07-25T09:19:01Z</time></trkpt>
<trkpt lat="46.50550196" lon="8.32052602"><ele>1440.125977</ele><time>2007-07-25T09:19:14Z</time></trkpt>
<trkpt lat="46.50591200" lon="8.32011203"><ele>1443.229004</ele><time>2007-07-25T09:19:32Z</time></trkpt>
<trkpt lat="46.50613798" lon="8.31998597"><ele>1444.619995</ele><time>2007-07-25T09:19:41Z</time></trkpt>
<trkpt lat="46.50617704" lon="8.32003802"><ele>1445.427979</ele><time>2007-07-25T09:19:43Z</time></trkpt>
<trkpt lat="46.50609297" lon="8.32024698"><ele>1447.532959</ele><time>2007-07-25T09:19:50Z</time></trkpt>
<trkpt lat="46.50578904" lon="8.32050003"><ele>1450.911011</ele><time>2007-07-25T09:20:03Z</time></trkpt>
<trkpt lat="46.50555996" lon="8.32103999"><ele>1454.472046</ele><time>2007-07-25T09:20:18Z</time></trkpt>
<trkpt lat="46.50539501" lon="8.32132598"><ele>1457.245972</ele><time>2007-07-25T09:20:28Z</time></trkpt>
<trkpt lat="46.50517599" lon="8.32142397"><ele>1460.625</ele><time>2007-07-25T09:20:38Z</time></trkpt>
<trkpt lat="46.50509301" lon="8.32141399"><ele>1461.73999</ele><time>2007-07-25T09:20:42Z</time></trkpt>
<trkpt lat="46.50485203" lon="8.32139203"><ele>1465.276978</ele><time>2007-07-25T09:20:54Z</time></trkpt>
<trkpt lat="46.50450996" lon="8.32154098"><ele>1468.348999</ele><time>2007-07-25T09:21:09Z</time></trkpt>
<trkpt lat="46.50412196" lon="8.32173200"><ele>1471.588989</ele><time>2007-07-25T09:21:24Z</time></trkpt>
<trkpt lat="46.50341503" lon="8.32197499"><ele>1474.56897</ele><time>2007-07-25T09:21:47Z</time></trkpt>
<trkpt lat="46.50338000" lon="8.32198497"><ele>1474.843994</ele><time>2007-07-25T09:21:48Z</time></trkpt>
<trkpt lat="46.50294104" lon="8.32244002"><ele>1475.410034</ele><time>2007-07-25T09:22:02Z</time></trkpt>
<trkpt lat="46.50270601" lon="8.32290798"><ele>1478.453003</ele><time>2007-07-25T09:22:13Z</time></trkpt>
<trkpt lat="46.50268799" lon="8.32294797"><ele>1478.702026</ele><time>2007-07-25T09:22:14Z</time></trkpt>
<trkpt lat="46.50244600" lon="8.32335801"><ele>1482.355957</ele><time>2007-07-25T09:22:26Z</time></trkpt>
<trkpt lat="46.50240401" lon="8.32341199"><ele>1482.978027</ele><time>2007-07-25T09:22:28Z</time></trkpt>
<trkpt lat="46.50213696" lon="8.32367602"><ele>1486.05603</ele><time>2007-07-25T09:22:40Z</time></trkpt>
<trkpt lat="46.50191903" lon="8.32388598"><ele>1489.36499</ele><time>2007-07-25T09:22:50Z</time></trkpt>
<trkpt lat="46.50170697" lon="8.32416703"><ele>1492.418945</ele><time>2007-07-25T09:23:01Z</time></trkpt>
<trkpt lat="46.50147504" lon="8.32450096"><ele>1495.645996</ele><time>2007-07-25T09:23:15Z</time></trkpt>
<trkpt lat="46.50128402" lon="8.32477698"><ele>1498.781006</ele><time>2007-07-25T09:23:27Z</time></trkpt>
<trkpt lat="46.50106299" lon="8.32508803"><ele>1502.134033</ele><time>2007-07-25T09:23:40Z</time></trkpt>
<trkpt lat="46.50091002" lon="8.32540596"><ele>1505.255005</ele><time>2007-07-25T09:23:51Z</time></trkpt>
<trkpt lat="46.50081497" lon="8.32586797"><ele>1508.314941</ele><time>2007-07-25T09:24:04Z</time></trkpt>
<trkpt lat="46.50081203" lon="8.32625303"><ele>1511.402954</ele><time>2007-07-25T09:24:14Z</time></trkpt>
<trkpt lat="46.50082201" lon="8.32659401"><ele>1512.802002</ele><time>2007-07-25T09:24:29Z</time></trkpt>
<trkpt lat="46.50079502" lon="8.32705904"><ele>1514.543945</ele><time>2007-07-25T09:24:42Z</time></trkpt>
<trkpt lat="46.50075302" lon="8.32752096"><ele>1518.420044</ele><time>2007-07-25T09:24:52Z</time></trkpt>
<trkpt lat="46.50074003" lon="8.32764602"><ele>1515.051025</ele><time>2007-07-25T09:24:55Z</time></trkpt>
<trkpt lat="46.50073702" lon="8.32768600"><ele>1518.20105</ele><time>2007-07-25T09:24:56Z</time></trkpt>
<trkpt lat="46.50071396" lon="8.32798901"><ele>1519.379028</ele><time>2007-07-25T09:25:04Z</time></trkpt>
<trkpt lat="46.50068597" lon="8.32865101"><ele>1522.407959</ele><time>2007-07-25T09:25:22Z</time></trkpt>
<trkpt lat="46.50061104" lon="8.32912803"><ele>1525.420044</ele><time>2007-07-25T09:25:34Z</time></trkpt>
<trkpt lat="46.50045396" lon="8.32958199"><ele>1528.670044</ele><time>2007-07-25T09:25:47Z</time></trkpt>
<trkpt lat="46.50042504" lon="8.33007703"><ele>1532.081055</ele><time>2007-07-25T09:25:59Z</time></trkpt>
<trkpt lat="46.50046100" lon="8.33053904"><ele>1535.463013</ele><time>2007-07-25T09:26:11Z</time></trkpt>
<trkpt lat="46.50064096" lon="8.33098202"><ele>1537.019043</ele><time>2007-07-25T09:26:23Z</time></trkpt>
<trkpt lat="46.50058899" lon="8.33112099"><ele>1537.885986</ele><time>2007-07-25T09:26:27Z</time></trkpt>
<trkpt lat="46.50038204" lon="8.33128201"><ele>1539.197998</ele><time>2007-07-25T09:26:35Z</time></trkpt>
<trkpt lat="46.50025900" lon="8.33118101"><ele>1539.63501</ele><time>2007-07-25T09:26:40Z</time></trkpt>
<trkpt lat="46.49998097" lon="8.33079401"><ele>1543.112061</ele><time>2007-07-25T09:26:53Z</time></trkpt>
<trkpt lat="46.49985096" lon="8.33041297"><ele>1546.22998</ele><time>2007-07-25T09:27:05Z</time></trkpt>
<trkpt lat="46.49965399" lon="8.33010301"><ele>1549.495972</ele><time>2007-07-25T09:27:17Z</time></trkpt>
<trkpt lat="46.49936900" lon="8.32987896"><ele>1552.792969</ele><time>2007-07-25T09:27:31Z</time></trkpt>
<trkpt lat="46.49925903" lon="8.32981803"><ele>1554.416016</ele><time>2007-07-25T09:27:36Z</time></trkpt>
<trkpt lat="46.49897103" lon="8.32980797"><ele>1557.70105</ele><time>2007-07-25T09:27:49Z</time></trkpt>
<trkpt lat="46.49891303" lon="8.33024399"><ele>1560.696045</ele><time>2007-07-25T09:28:03Z</time></trkpt>
<trkpt lat="46.49903297" lon="8.33084900"><ele>1563.989014</ele><time>2007-07-25T09:28:20Z</time></trkpt>
<trkpt lat="46.49911503" lon="8.33126700"><ele>1567.114014</ele><time>2007-07-25T09:28:32Z</time></trkpt>
<trkpt lat="46.49919701" lon="8.33167504"><ele>1570.421997</ele><time>2007-07-25T09:28:45Z</time></trkpt>
<trkpt lat="46.49931402" lon="8.33189003"><ele>1572.777954</ele><time>2007-07-25T09:28:53Z</time></trkpt>
<trkpt lat="46.49950597" lon="8.33230896"><ele>1575.96106</ele><time>2007-07-25T09:29:08Z</time></trkpt>
<trkpt lat="46.49961099" lon="8.33258104"><ele>1578.362061</ele><time>2007-07-25T09:29:17Z</time></trkpt>
<trkpt lat="46.49975499" lon="8.33285697"><ele>1581.524048</ele><time>2007-07-25T09:29:27Z</time></trkpt>
<trkpt lat="46.49993897" lon="8.33322301"><ele>1584.787964</ele><time>2007-07-25T09:29:40Z</time></trkpt>
<trkpt lat="46.50011499" lon="8.33357303"><ele>1587.81604</ele><time>2007-07-25T09:29:53Z</time></trkpt>
<trkpt lat="46.50026704" lon="8.33385601"><ele>1591.182007</ele><time>2007-07-25T09:30:04Z</time></trkpt>
<trkpt lat="46.50041599" lon="8.33427200"><ele>1594.31604</ele><time>2007-07-25T09:30:18Z</time></trkpt>
<trkpt lat="46.50049101" lon="8.33459797"><ele>1597.438965</ele><time>2007-07-25T09:30:28Z</time></trkpt>
<trkpt lat="46.50056502" lon="8.33500600"><ele>1600.665039</ele><time>2007-07-25T09:30:40Z</time></trkpt>
<trkpt lat="46.50064096" lon="8.33547799"><ele>1603.777954</ele><time>2007-07-25T09:30:54Z</time></trkpt>
<trkpt lat="46.50065697" lon="8.33585802"><ele>1606.91394</ele><time>2007-07-25T09:31:05Z</time></trkpt>
<trkpt lat="46.50066200" lon="8.33622901"><ele>1610.11499</ele><time>2007-07-25T09:31:16Z</time></trkpt>
<trkpt lat="46.50065596" lon="8.33667300"><ele>1613.348022</ele><time>2007-07-25T09:31:29Z</time></trkpt>
<trkpt lat="46.50062604" lon="8.33716401"><ele>1616.427002</ele><time>2007-07-25T09:31:44Z</time></trkpt>
<trkpt lat="46.50058597" lon="8.33751898"><ele>1619.707031</ele><time>2007-07-25T09:31:56Z</time></trkpt>
<trkpt lat="46.50050601" lon="8.33793900"><ele>1622.990967</ele><time>2007-07-25T09:32:11Z</time></trkpt>
<trkpt lat="46.50041096" lon="8.33837201"><ele>1626.350952</ele><time>2007-07-25T09:32:25Z</time></trkpt>
<trkpt lat="46.50030199" lon="8.33879303"><ele>1629.569946</ele><time>2007-07-25T09:32:38Z</time></trkpt>
<trkpt lat="46.50018096" lon="8.33923602"><ele>1633.011963</ele><time>2007-07-25T09:32:51Z</time></trkpt>
<trkpt lat="46.49994099" lon="8.33984102"><ele>1633.776001</ele><time>2007-07-25T09:33:06Z</time></trkpt>
<trkpt lat="46.49955701" lon="8.34080997"><ele>1636.506958</ele><time>2007-07-25T09:33:27Z</time></trkpt>
<trkpt lat="46.49927597" lon="8.34122202"><ele>1639.656006</ele><time>2007-07-25T09:33:38Z</time></trkpt>
<trkpt lat="46.49901303" lon="8.34171002"><ele>1642.75</ele><time>2007-07-25T09:33:51Z</time></trkpt>
<trkpt lat="46.49857499" lon="8.34226599"><ele>1643.760986</ele><time>2007-07-25T09:34:08Z</time></trkpt>
<trkpt lat="46.49835496" lon="8.34262901"><ele>1643.609009</ele><time>2007-07-25T09:34:16Z</time></trkpt>
<trkpt lat="46.49809697" lon="8.34329101"><ele>1644.625977</ele><time>2007-07-25T09:34:31Z</time></trkpt>
<trkpt lat="46.49805204" lon="8.34325003"><ele>1647.562012</ele><time>2007-07-25T09:43:47Z</time></trkpt>
<trkpt lat="46.49803997" lon="8.34325698"><ele>1647.296021</ele><time>2007-07-25T09:43:59Z</time></trkpt>
<trkpt lat="46.49799496" lon="8.34330803"><ele>1647.603027</ele><time>2007-07-25T09:44:03Z</time></trkpt>
<trkpt lat="46.49785699" lon="8.34338497"><ele>1647.800049</ele><time>2007-07-25T09:44:11Z</time></trkpt>
<trkpt lat="46.49749003" lon="8.34398202"><ele>1648.715942</ele><time>2007-07-25T09:44:25Z</time></trkpt>
<trkpt lat="46.49688796" lon="8.34478098"><ele>1650.598022</ele><time>2007-07-25T09:44:45Z</time></trkpt>
<trkpt lat="46.49644900" lon="8.34541901"><ele>1651.954956</ele><time>2007-07-25T09:45:01Z</time></trkpt>
<trkpt lat="46.49607701" lon="8.34593802"><ele>1655.084961</ele><time>2007-07-25T09:45:16Z</time></trkpt>
<trkpt lat="46.49587903" lon="8.34621898"><ele>1658.303955</ele><time>2007-07-25T09:45:25Z</time></trkpt>
<trkpt lat="46.49583402" lon="8.34628201"><ele>1659.123047</ele><time>2007-07-25T09:45:27Z</time></trkpt>
<trkpt lat="46.49532197" lon="8.34702498"><ele>1662.042969</ele><time>2007-07-25T09:45:48Z</time></trkpt>
<trkpt lat="46.49471403" lon="8.34758104"><ele>1664.912964</ele><time>2007-07-25T09:46:07Z</time></trkpt>
<trkpt lat="46.49402797" lon="8.34802402"><ele>1667.762939</ele><time>2007-07-25T09:46:26Z</time></trkpt>
<trkpt lat="46.49342003" lon="8.34893002"><ele>1670.926025</ele><time>2007-07-25T09:46:47Z</time></trkpt>
<trkpt lat="46.49300496" lon="8.34940603"><ele>1674.135986</ele><time>2007-07-25T09:47:02Z</time></trkpt>
<trkpt lat="46.49281997" lon="8.34960602"><ele>1677.598999</ele><time>2007-07-25T09:47:11Z</time></trkpt>
<trkpt lat="46.49263800" lon="8.34989696"><ele>1680.859985</ele><time>2007-07-25T09:47:22Z</time></trkpt>
<trkpt lat="46.49248403" lon="8.35018102"><ele>1683.402954</ele><time>2007-07-25T09:47:33Z</time></trkpt>
<trkpt lat="46.49229803" lon="8.35049702"><ele>1686.541016</ele><time>2007-07-25T09:47:46Z</time></trkpt>
<trkpt lat="46.49209502" lon="8.35067002"><ele>1689.567993</ele><time>2007-07-25T09:47:57Z</time></trkpt>
<trkpt lat="46.49183099" lon="8.35082500"><ele>1692.652954</ele><time>2007-07-25T09:48:10Z</time></trkpt>
<trkpt lat="46.49154802" lon="8.35100697"><ele>1695.76001</ele><time>2007-07-25T09:48:24Z</time></trkpt>
<trkpt lat="46.49134601" lon="8.35126002"><ele>1699.26001</ele><time>2007-07-25T09:48:36Z</time></trkpt>
<trkpt lat="46.49114502" lon="8.35153897"><ele>1702.29895</ele><time>2007-07-25T09:48:48Z</time></trkpt>
<trkpt lat="46.49096397" lon="8.35182597"><ele>1705.348999</ele><time>2007-07-25T09:49:01Z</time></trkpt>
<trkpt lat="46.49077102" lon="8.35209796"><ele>1708.537964</ele><time>2007-07-25T09:49:13Z</time></trkpt>
<trkpt lat="46.49061201" lon="8.35242402"><ele>1711.708008</ele><time>2007-07-25T09:49:26Z</time></trkpt>
<trkpt lat="46.49045703" lon="8.35278503"><ele>1714.758057</ele><time>2007-07-25T09:49:39Z</time></trkpt>
<trkpt lat="46.49022804" lon="8.35306398"><ele>1718.102051</ele><time>2007-07-25T09:49:52Z</time></trkpt>
<trkpt lat="46.48998697" lon="8.35323597"><ele>1721.432983</ele><time>2007-07-25T09:50:04Z</time></trkpt>
<trkpt lat="46.48994599" lon="8.35326598"><ele>1722.05603</ele><time>2007-07-25T09:50:06Z</time></trkpt>
<trkpt lat="46.48973300" lon="8.35352800"><ele>1725.20105</ele><time>2007-07-25T09:50:18Z</time></trkpt>
<trkpt lat="46.48958297" lon="8.35382799"><ele>1728.70105</ele><time>2007-07-25T09:50:30Z</time></trkpt>
<trkpt lat="46.48943502" lon="8.35413401"><ele>1731.787964</ele><time>2007-07-25T09:50:42Z</time></trkpt>
<trkpt lat="46.48923604" lon="8.35445403"><ele>1734.876953</ele><time>2007-07-25T09:50:56Z</time></trkpt>
<trkpt lat="46.48897704" lon="8.35475402"><ele>1738.204956</ele><time>2007-07-25T09:51:11Z</time></trkpt>
<trkpt lat="46.48872499" lon="8.35494697"><ele>1741.541016</ele><time>2007-07-25T09:51:23Z</time></trkpt>
<trkpt lat="46.48856699" lon="8.35527102"><ele>1744.956055</ele><time>2007-07-25T09:51:37Z</time></trkpt>
<trkpt lat="46.48841402" lon="8.35567100"><ele>1748.328003</ele><time>2007-07-25T09:51:52Z</time></trkpt>
<trkpt lat="46.48830900" lon="8.35598800"><ele>1751.646973</ele><time>2007-07-25T09:52:04Z</time></trkpt>
<trkpt lat="46.48816902" lon="8.35640500"><ele>1754.727051</ele><time>2007-07-25T09:52:20Z</time></trkpt>
<trkpt lat="46.48804799" lon="8.35677800"><ele>1758.258057</ele><time>2007-07-25T09:52:33Z</time></trkpt>
<trkpt lat="46.48772696" lon="8.35716499"><ele>1760.55603</ele><time>2007-07-25T09:52:50Z</time></trkpt>
<trkpt lat="46.48768002" lon="8.35755701"><ele>1760.608032</ele><time>2007-07-25T09:52:59Z</time></trkpt>
<trkpt lat="46.48782704" lon="8.35776698"><ele>1761.305054</ele><time>2007-07-25T09:53:04Z</time></trkpt>
<trkpt lat="46.48816902" lon="8.35829303"><ele>1764.155029</ele><time>2007-07-25T09:53:18Z</time></trkpt>
<trkpt lat="46.48818998" lon="8.35832203"><ele>1764.323975</ele><time>2007-07-25T09:53:19Z</time></trkpt>
<trkpt lat="46.48839600" lon="8.35869603"><ele>1768.447998</ele><time>2007-07-25T09:53:32Z</time></trkpt>
<trkpt lat="46.48853196" lon="8.35914899"><ele>1771.802002</ele><time>2007-07-25T09:53:47Z</time></trkpt>
<trkpt lat="46.48857797" lon="8.35930900"><ele>1773.150024</ele><time>2007-07-25T09:53:52Z</time></trkpt>
<trkpt lat="46.48870303" lon="8.35978903"><ele>1776.430054</ele><time>2007-07-25T09:54:08Z</time></trkpt>
<trkpt lat="46.48870303" lon="8.35990797"><ele>1777.957031</ele><time>2007-07-25T09:54:12Z</time></trkpt>
<trkpt lat="46.48863698" lon="8.36019698"><ele>1780.972046</ele><time>2007-07-25T09:54:22Z</time></trkpt>
<trkpt lat="46.48847203" lon="8.36047400"><ele>1784.222046</ele><time>2007-07-25T09:54:34Z</time></trkpt>
<trkpt lat="46.48822702" lon="8.36089896"><ele>1787.230957</ele><time>2007-07-25T09:54:53Z</time></trkpt>
<trkpt lat="46.48808403" lon="8.36126399"><ele>1790.302002</ele><time>2007-07-25T09:55:07Z</time></trkpt>
<trkpt lat="46.48792100" lon="8.36151101"><ele>1793.723022</ele><time>2007-07-25T09:55:18Z</time></trkpt>
<trkpt lat="46.48767700" lon="8.36183002"><ele>1797.037964</ele><time>2007-07-25T09:55:34Z</time></trkpt>
<trkpt lat="46.48747198" lon="8.36205700"><ele>1800.458008</ele><time>2007-07-25T09:55:47Z</time></trkpt>
<trkpt lat="46.48727601" lon="8.36236403"><ele>1803.504028</ele><time>2007-07-25T09:56:01Z</time></trkpt>
<trkpt lat="46.48709002" lon="8.36267802"><ele>1806.641968</ele><time>2007-07-25T09:56:14Z</time></trkpt>
<trkpt lat="46.48694401" lon="8.36290701"><ele>1809.180054</ele><time>2007-07-25T09:56:23Z</time></trkpt>
<trkpt lat="46.48672096" lon="8.36313802"><ele>1812.199951</ele><time>2007-07-25T09:56:35Z</time></trkpt>
<trkpt lat="46.48647403" lon="8.36334203"><ele>1815.498047</ele><time>2007-07-25T09:56:47Z</time></trkpt>
<trkpt lat="46.48617899" lon="8.36359098"><ele>1818.880005</ele><time>2007-07-25T09:57:02Z</time></trkpt>
<trkpt lat="46.48591597" lon="8.36382198"><ele>1822.102051</ele><time>2007-07-25T09:57:16Z</time></trkpt>
<trkpt lat="46.48565202" lon="8.36403304"><ele>1825.328003</ele><time>2007-07-25T09:57:30Z</time></trkpt>
<trkpt lat="46.48545898" lon="8.36421601"><ele>1828.703979</ele><time>2007-07-25T09:57:41Z</time></trkpt>
<trkpt lat="46.48544096" lon="8.36423404"><ele>1828.384033</ele><time>2007-07-25T09:57:42Z</time></trkpt>
<trkpt lat="46.48518599" lon="8.36457300"><ele>1831.720947</ele><time>2007-07-25T09:57:58Z</time></trkpt>
<trkpt lat="46.48515397" lon="8.36461600"><ele>1832.540039</ele><time>2007-07-25T09:58:00Z</time></trkpt>
<trkpt lat="46.48487904" lon="8.36490601"><ele>1835.854004</ele><time>2007-07-25T09:58:16Z</time></trkpt>
<trkpt lat="46.48458802" lon="8.36506602"><ele>1839.270996</ele><time>2007-07-25T09:58:30Z</time></trkpt>
<trkpt lat="46.48427102" lon="8.36514004"><ele>1842.958984</ele><time>2007-07-25T09:58:44Z</time></trkpt>
<trkpt lat="46.48397899" lon="8.36512201"><ele>1846.405029</ele><time>2007-07-25T09:58:57Z</time></trkpt>
<trkpt lat="46.48365998" lon="8.36530399"><ele>1849.55896</ele><time>2007-07-25T09:59:12Z</time></trkpt>
<trkpt lat="46.48344104" lon="8.36546098"><ele>1852.578979</ele><time>2007-07-25T09:59:23Z</time></trkpt>
<trkpt lat="46.48316503" lon="8.36568603"><ele>1856.093018</ele><time>2007-07-25T09:59:37Z</time></trkpt>
<trkpt lat="46.48293704" lon="8.36602600"><ele>1858.953003</ele><time>2007-07-25T09:59:51Z</time></trkpt>
<trkpt lat="46.48275398" lon="8.36633001"><ele>1862.030029</ele><time>2007-07-25T10:00:03Z</time></trkpt>
<trkpt lat="46.48248299" lon="8.36659798"><ele>1865.353027</ele><time>2007-07-25T10:00:17Z</time></trkpt>
<trkpt lat="46.48218099" lon="8.36671600"><ele>1868.715942</ele><time>2007-07-25T10:00:31Z</time></trkpt>
<trkpt lat="46.48198703" lon="8.36670402"><ele>1871.844971</ele><time>2007-07-25T10:00:40Z</time></trkpt>
<trkpt lat="46.48170699" lon="8.36668700"><ele>1876.202026</ele><time>2007-07-25T10:00:53Z</time></trkpt>
<trkpt lat="46.48168696" lon="8.36668700"><ele>1875.077026</ele><time>2007-07-25T10:00:54Z</time></trkpt>
<trkpt lat="46.48148102" lon="8.36671399"><ele>1879.32605</ele><time>2007-07-25T10:01:04Z</time></trkpt>
<trkpt lat="46.48106402" lon="8.36674400"><ele>1881.645996</ele><time>2007-07-25T10:01:24Z</time></trkpt>
<trkpt lat="46.48099302" lon="8.36675104"><ele>1882.962036</ele><time>2007-07-25T10:01:27Z</time></trkpt>
<trkpt lat="46.48072296" lon="8.36676403"><ele>1886.215942</ele><time>2007-07-25T10:01:39Z</time></trkpt>
<trkpt lat="46.48040998" lon="8.36689898"><ele>1889.60498</ele><time>2007-07-25T10:01:53Z</time></trkpt>
<trkpt lat="46.48017000" lon="8.36711900"><ele>1892.66394</ele><time>2007-07-25T10:02:05Z</time></trkpt>
<trkpt lat="46.47991000" lon="8.36721900"><ele>1895.682983</ele><time>2007-07-25T10:02:17Z</time></trkpt>
<trkpt lat="46.47962702" lon="8.36731497"><ele>1898.904053</ele><time>2007-07-25T10:02:32Z</time></trkpt>
<trkpt lat="46.47937699" lon="8.36754003"><ele>1902.119019</ele><time>2007-07-25T10:02:46Z</time></trkpt>
<trkpt lat="46.47919402" lon="8.36770599"><ele>1904.324951</ele><time>2007-07-25T10:02:56Z</time></trkpt>
<trkpt lat="46.47898103" lon="8.36772200"><ele>1907.379028</ele><time>2007-07-25T10:03:06Z</time></trkpt>
<trkpt lat="46.47869697" lon="8.36779500"><ele>1910.875977</ele><time>2007-07-25T10:03:19Z</time></trkpt>
<trkpt lat="46.47849203" lon="8.36810698"><ele>1913.886963</ele><time>2007-07-25T10:03:32Z</time></trkpt>
<trkpt lat="46.47823898" lon="8.36846497"><ele>1917.333008</ele><time>2007-07-25T10:03:47Z</time></trkpt>
<trkpt lat="46.47821803" lon="8.36848098"><ele>1917.5</ele><time>2007-07-25T10:03:48Z</time></trkpt>
<trkpt lat="46.47810202" lon="8.36852700"><ele>1919.364014</ele><time>2007-07-25T10:03:53Z</time></trkpt>
<trkpt lat="46.47787596" lon="8.36852599"><ele>1922.448975</ele><time>2007-07-25T10:04:03Z</time></trkpt>
<trkpt lat="46.47750598" lon="8.36878700"><ele>1923.751953</ele><time>2007-07-25T10:04:20Z</time></trkpt>
<trkpt lat="46.47725897" lon="8.36918497"><ele>1924.29895</ele><time>2007-07-25T10:04:34Z</time></trkpt>
<trkpt lat="46.47697901" lon="8.36951103"><ele>1926.360962</ele><time>2007-07-25T10:04:45Z</time></trkpt>
<trkpt lat="46.47663997" lon="8.36983901"><ele>1929.844971</ele><time>2007-07-25T10:04:58Z</time></trkpt>
<trkpt lat="46.47633998" lon="8.37012702"><ele>1933.001953</ele><time>2007-07-25T10:05:11Z</time></trkpt>
<trkpt lat="46.47613697" lon="8.37036397"><ele>1936.025024</ele><time>2007-07-25T10:05:21Z</time></trkpt>
<trkpt lat="46.47598199" lon="8.37085197"><ele>1939.233032</ele><time>2007-07-25T10:05:35Z</time></trkpt>
<trkpt lat="46.47586799" lon="8.37123401"><ele>1942.130005</ele><time>2007-07-25T10:05:46Z</time></trkpt>
<trkpt lat="46.47570999" lon="8.37153300"><ele>1945.188965</ele><time>2007-07-25T10:05:57Z</time></trkpt>
<trkpt lat="46.47546600" lon="8.37184899"><ele>1948.536011</ele><time>2007-07-25T10:06:11Z</time></trkpt>
<trkpt lat="46.47542903" lon="8.37189199"><ele>1949.376953</ele><time>2007-07-25T10:06:13Z</time></trkpt>
<trkpt lat="46.47518897" lon="8.37210699"><ele>1952.457031</ele><time>2007-07-25T10:06:25Z</time></trkpt>
<trkpt lat="46.47491497" lon="8.37221604"><ele>1955.837036</ele><time>2007-07-25T10:06:37Z</time></trkpt>
<trkpt lat="46.47445698" lon="8.37223004"><ele>1959.133057</ele><time>2007-07-25T10:06:57Z</time></trkpt>
<trkpt lat="46.47413302" lon="8.37223004"><ele>1962.578003</ele><time>2007-07-25T10:07:11Z</time></trkpt>
<trkpt lat="46.47377696" lon="8.37223096"><ele>1965.796021</ele><time>2007-07-25T10:07:26Z</time></trkpt>
<trkpt lat="46.47347898" lon="8.37224697"><ele>1969.024048</ele><time>2007-07-25T10:07:39Z</time></trkpt>
<trkpt lat="46.47317598" lon="8.37217304"><ele>1972.256958</ele><time>2007-07-25T10:07:51Z</time></trkpt>
<trkpt lat="46.47293500" lon="8.37206198"><ele>1975.604004</ele><time>2007-07-25T10:08:01Z</time></trkpt>
<trkpt lat="46.47282301" lon="8.37198403"><ele>1976.866943</ele><time>2007-07-25T10:08:06Z</time></trkpt>
<trkpt lat="46.47254599" lon="8.37166803"><ele>1980.042969</ele><time>2007-07-25T10:08:21Z</time></trkpt>
<trkpt lat="46.47240099" lon="8.37134600"><ele>1983.438965</ele><time>2007-07-25T10:08:32Z</time></trkpt>
<trkpt lat="46.47236000" lon="8.37100703"><ele>1986.847046</ele><time>2007-07-25T10:08:43Z</time></trkpt>
<trkpt lat="46.47234600" lon="8.37048501"><ele>1990.116943</ele><time>2007-07-25T10:09:00Z</time></trkpt>
<trkpt lat="46.47214701" lon="8.37014504"><ele>1992.307007</ele><time>2007-07-25T10:09:15Z</time></trkpt>
<trkpt lat="46.47196697" lon="8.37053698"><ele>1995.254028</ele><time>2007-07-25T10:09:28Z</time></trkpt>
<trkpt lat="46.47185097" lon="8.37089304"><ele>1998.55896</ele><time>2007-07-25T10:09:39Z</time></trkpt>
<trkpt lat="46.47171803" lon="8.37132303"><ele>2001.56897</ele><time>2007-07-25T10:09:52Z</time></trkpt>
<trkpt lat="46.47180696" lon="8.37179904"><ele>2004.900024</ele><time>2007-07-25T10:10:06Z</time></trkpt>
<trkpt lat="46.47190402" lon="8.37213398"><ele>2008.01001</ele><time>2007-07-25T10:10:17Z</time></trkpt>
<trkpt lat="46.47193202" lon="8.37225200"><ele>2009.266968</ele><time>2007-07-25T10:10:21Z</time></trkpt>
<trkpt lat="46.47201600" lon="8.37267998"><ele>2012.459961</ele><time>2007-07-25T10:10:36Z</time></trkpt>
<trkpt lat="46.47216101" lon="8.37305800"><ele>2015.626953</ele><time>2007-07-25T10:10:50Z</time></trkpt>
<trkpt lat="46.47235497" lon="8.37341297"><ele>2018.637939</ele><time>2007-07-25T10:11:04Z</time></trkpt>
<trkpt lat="46.47246100" lon="8.37360299"><ele>2020.854004</ele><time>2007-07-25T10:11:12Z</time></trkpt>
<trkpt lat="46.47262797" lon="8.37390399"><ele>2023.964966</ele><time>2007-07-25T10:11:25Z</time></trkpt>
<trkpt lat="46.47264197" lon="8.37392603"><ele>2024.050049</ele><time>2007-07-25T10:11:26Z</time></trkpt>
<trkpt lat="46.47278102" lon="8.37418000"><ele>2027.136963</ele><time>2007-07-25T10:11:37Z</time></trkpt>
<trkpt lat="46.47302703" lon="8.37455601"><ele>2030.233032</ele><time>2007-07-25T10:11:54Z</time></trkpt>
<trkpt lat="46.47320900" lon="8.37481200"><ele>2033.675049</ele><time>2007-07-25T10:12:06Z</time></trkpt>
<trkpt lat="46.47346901" lon="8.37492800"><ele>2036.766968</ele><time>2007-07-25T10:12:20Z</time></trkpt>
<trkpt lat="46.47379003" lon="8.37487302"><ele>2039.906982</ele><time>2007-07-25T10:12:37Z</time></trkpt>
<trkpt lat="46.47406697" lon="8.37483304"><ele>2042.957031</ele><time>2007-07-25T10:12:51Z</time></trkpt>
<trkpt lat="46.47432304" lon="8.37480303"><ele>2046.088989</ele><time>2007-07-25T10:13:04Z</time></trkpt>
<trkpt lat="46.47464599" lon="8.37478702"><ele>2049.103027</ele><time>2007-07-25T10:13:20Z</time></trkpt>
<trkpt lat="46.47487096" lon="8.37479699"><ele>2052.207031</ele><time>2007-07-25T10:13:31Z</time></trkpt>
<trkpt lat="46.47520197" lon="8.37478300"><ele>2055.321045</ele><time>2007-07-25T10:13:47Z</time></trkpt>
<trkpt lat="46.47544303" lon="8.37476397"><ele>2058.434082</ele><time>2007-07-25T10:13:59Z</time></trkpt>
<trkpt lat="46.47575601" lon="8.37478199"><ele>2061.489014</ele><time>2007-07-25T10:14:15Z</time></trkpt>
<trkpt lat="46.47603404" lon="8.37483597"><ele>2064.737061</ele><time>2007-07-25T10:14:30Z</time></trkpt>
<trkpt lat="46.47628700" lon="8.37485902"><ele>2067.866943</ele><time>2007-07-25T10:14:43Z</time></trkpt>
<trkpt lat="46.47659898" lon="8.37473002"><ele>2070.916992</ele><time>2007-07-25T10:15:00Z</time></trkpt>
<trkpt lat="46.47675798" lon="8.37473396"><ele>2072.885986</ele><time>2007-07-25T10:15:09Z</time></trkpt>
<trkpt lat="46.47662496" lon="8.37493798"><ele>2075.10498</ele><time>2007-07-25T10:15:21Z</time></trkpt>
<trkpt lat="46.47650401" lon="8.37494100"><ele>2077.013916</ele><time>2007-07-25T10:15:27Z</time></trkpt>
<trkpt lat="46.47621199" lon="8.37504703"><ele>2080.266113</ele><time>2007-07-25T10:15:42Z</time></trkpt>
<trkpt lat="46.47596397" lon="8.37518197"><ele>2083.613037</ele><time>2007-07-25T10:15:56Z</time></trkpt>
<trkpt lat="46.47566004" lon="8.37538800"><ele>2086.894043</ele><time>2007-07-25T10:16:14Z</time></trkpt>
<trkpt lat="46.47540598" lon="8.37549697"><ele>2091.01001</ele><time>2007-07-25T10:16:28Z</time></trkpt>
<trkpt lat="46.47502804" lon="8.37553703"><ele>2094.043945</ele><time>2007-07-25T10:16:47Z</time></trkpt>
<trkpt lat="46.47476996" lon="8.37556997"><ele>2097.343994</ele><time>2007-07-25T10:17:00Z</time></trkpt>
<trkpt lat="46.47449797" lon="8.37562999"><ele>2100.50708</ele><time>2007-07-25T10:17:14Z</time></trkpt>
<trkpt lat="46.47425104" lon="8.37571900"><ele>2103.675049</ele><time>2007-07-25T10:17:27Z</time></trkpt>
<trkpt lat="46.47397201" lon="8.37586099"><ele>2106.983887</ele><time>2007-07-25T10:17:43Z</time></trkpt>
<trkpt lat="46.47370001" lon="8.37613097"><ele>2110.238037</ele><time>2007-07-25T10:17:59Z</time></trkpt>
<trkpt lat="46.47377302" lon="8.37641504"><ele>2111.121094</ele><time>2007-07-25T10:18:10Z</time></trkpt>
<trkpt lat="46.47403202" lon="8.37618403"><ele>2113.746094</ele><time>2007-07-25T10:18:23Z</time></trkpt>
<trkpt lat="46.47434601" lon="8.37597197"><ele>2116.36792</ele><time>2007-07-25T10:18:36Z</time></trkpt>
<trkpt lat="46.47462403" lon="8.37600399"><ele>2119.559082</ele><time>2007-07-25T10:18:46Z</time></trkpt>
<trkpt lat="46.47497398" lon="8.37609904"><ele>2122.7229</ele><time>2007-07-25T10:19:00Z</time></trkpt>
<trkpt lat="46.47533599" lon="8.37620398"><ele>2126.308105</ele><time>2007-07-25T10:19:15Z</time></trkpt>
<trkpt lat="46.47563598" lon="8.37628302"><ele>2129.371094</ele><time>2007-07-25T10:19:28Z</time></trkpt>
<trkpt lat="46.47583799" lon="8.37630297"><ele>2132.387939</ele><time>2007-07-25T10:19:37Z</time></trkpt>
<trkpt lat="46.47617896" lon="8.37627104"><ele>2135.677002</ele><time>2007-07-25T10:19:53Z</time></trkpt>
<trkpt lat="46.47641902" lon="8.37631403"><ele>2138.345947</ele><time>2007-07-25T10:20:04Z</time></trkpt>
<trkpt lat="46.47671197" lon="8.37638604"><ele>2141.449951</ele><time>2007-07-25T10:20:18Z</time></trkpt>
<trkpt lat="46.47692302" lon="8.37639903"><ele>2144.60791</ele><time>2007-07-25T10:20:29Z</time></trkpt>
<trkpt lat="46.47725897" lon="8.37635896"><ele>2147.881104</ele><time>2007-07-25T10:20:44Z</time></trkpt>
<trkpt lat="46.47747204" lon="8.37628202"><ele>2150.936035</ele><time>2007-07-25T10:20:54Z</time></trkpt>
<trkpt lat="46.47777697" lon="8.37644898"><ele>2153.97998</ele><time>2007-07-25T10:21:10Z</time></trkpt>
<trkpt lat="46.47801200" lon="8.37667404"><ele>2156.99707</ele><time>2007-07-25T10:21:23Z</time></trkpt>
<trkpt lat="46.47823504" lon="8.37701200"><ele>2159.916016</ele><time>2007-07-25T10:21:40Z</time></trkpt>
<trkpt lat="46.47809498" lon="8.37699900"><ele>2160.871094</ele><time>2007-07-25T10:21:46Z</time></trkpt>
<trkpt lat="46.47790404" lon="8.37681301"><ele>2162.951904</ele><time>2007-07-25T10:21:55Z</time></trkpt>
<trkpt lat="46.47759701" lon="8.37671896"><ele>2166.211914</ele><time>2007-07-25T10:22:08Z</time></trkpt>
<trkpt lat="46.47747396" lon="8.37671402"><ele>2167.302002</ele><time>2007-07-25T10:22:13Z</time></trkpt>
<trkpt lat="46.47717004" lon="8.37691099"><ele>2169.605957</ele><time>2007-07-25T10:22:28Z</time></trkpt>
<trkpt lat="46.47736701" lon="8.37715600"><ele>2170.326904</ele><time>2007-07-25T10:22:38Z</time></trkpt>
<trkpt lat="46.47763104" lon="8.37732296"><ele>2173.539063</ele><time>2007-07-25T10:22:49Z</time></trkpt>
<trkpt lat="46.47792198" lon="8.37750603"><ele>2176.624023</ele><time>2007-07-25T10:23:01Z</time></trkpt>
<trkpt lat="46.47817201" lon="8.37766201"><ele>2179.948975</ele><time>2007-07-25T10:23:11Z</time></trkpt>
<trkpt lat="46.47852003" lon="8.37780300"><ele>2183.261963</ele><time>2007-07-25T10:23:27Z</time></trkpt>
<trkpt lat="46.47860200" lon="8.37791003"><ele>2183.871094</ele><time>2007-07-25T10:23:32Z</time></trkpt>
<trkpt lat="46.47851701" lon="8.37803300"><ele>2185.191895</ele><time>2007-07-25T10:23:38Z</time></trkpt>
<trkpt lat="46.47825801" lon="8.37799100"><ele>2188.041016</ele><time>2007-07-25T10:23:50Z</time></trkpt>
<trkpt lat="46.47814200" lon="8.37795999"><ele>2189.003906</ele><time>2007-07-25T10:23:55Z</time></trkpt>
<trkpt lat="46.47800798" lon="8.37789704"><ele>2190.86499</ele><time>2007-07-25T10:24:01Z</time></trkpt>
<trkpt lat="46.47764001" lon="8.37771398"><ele>2193.990967</ele><time>2007-07-25T10:24:18Z</time></trkpt>
<trkpt lat="46.47754697" lon="8.37801397"><ele>2194.763916</ele><time>2007-07-25T10:24:28Z</time></trkpt>
<trkpt lat="46.47782902" lon="8.37820902"><ele>2196.650879</ele><time>2007-07-25T10:24:40Z</time></trkpt>
<trkpt lat="46.47810898" lon="8.37839099"><ele>2199.967041</ele><time>2007-07-25T10:24:52Z</time></trkpt>
<trkpt lat="46.47836697" lon="8.37860598"><ele>2203.351074</ele><time>2007-07-25T10:25:04Z</time></trkpt>
<trkpt lat="46.47858599" lon="8.37885501"><ele>2206.374023</ele><time>2007-07-25T10:25:16Z</time></trkpt>
<trkpt lat="46.47889302" lon="8.37905198"><ele>2209.398926</ele><time>2007-07-25T10:25:31Z</time></trkpt>
<trkpt lat="46.47917298" lon="8.37923203"><ele>2211.959961</ele><time>2007-07-25T10:25:45Z</time></trkpt>
<trkpt lat="46.47893703" lon="8.37929003"><ele>2214.385986</ele><time>2007-07-25T10:25:56Z</time></trkpt>
<trkpt lat="46.47870502" lon="8.37921099"><ele>2216.850098</ele><time>2007-07-25T10:26:06Z</time></trkpt>
<trkpt lat="46.47845197" lon="8.37911996"><ele>2219.860107</ele><time>2007-07-25T10:26:18Z</time></trkpt>
<trkpt lat="46.47821601" lon="8.37902600"><ele>2222.826904</ele><time>2007-07-25T10:26:30Z</time></trkpt>
<trkpt lat="46.47790697" lon="8.37890496"><ele>2226.281006</ele><time>2007-07-25T10:26:46Z</time></trkpt>
<trkpt lat="46.47766097" lon="8.37881000"><ele>2229.334961</ele><time>2007-07-25T10:27:00Z</time></trkpt>
<trkpt lat="46.47749601" lon="8.37872601"><ele>2231.353027</ele><time>2007-07-25T10:27:09Z</time></trkpt>
<trkpt lat="46.47728998" lon="8.37860699"><ele>2234.426025</ele><time>2007-07-25T10:27:20Z</time></trkpt>
<trkpt lat="46.47701296" lon="8.37844497"><ele>2237.666992</ele><time>2007-07-25T10:27:35Z</time></trkpt>
<trkpt lat="46.47673904" lon="8.37829200"><ele>2240.788086</ele><time>2007-07-25T10:27:50Z</time></trkpt>
<trkpt lat="46.47644903" lon="8.37823500"><ele>2243.860107</ele><time>2007-07-25T10:28:04Z</time></trkpt>
<trkpt lat="46.47613797" lon="8.37825000"><ele>2246.865967</ele><time>2007-07-25T10:28:18Z</time></trkpt>
<trkpt lat="46.47590202" lon="8.37826098"><ele>2250.126953</ele><time>2007-07-25T10:28:29Z</time></trkpt>
<trkpt lat="46.47554697" lon="8.37841102"><ele>2253.771973</ele><time>2007-07-25T10:28:46Z</time></trkpt>
<trkpt lat="46.47531202" lon="8.37872702"><ele>2256.985107</ele><time>2007-07-25T10:29:02Z</time></trkpt>
<trkpt lat="46.47508596" lon="8.37904100"><ele>2260.103027</ele><time>2007-07-25T10:29:18Z</time></trkpt>
<trkpt lat="46.47484900" lon="8.37934401"><ele>2263.138916</ele><time>2007-07-25T10:29:34Z</time></trkpt>
<trkpt lat="46.47461800" lon="8.37957602"><ele>2266.251953</ele><time>2007-07-25T10:29:48Z</time></trkpt>
<trkpt lat="46.47438196" lon="8.37977802"><ele>2269.423096</ele><time>2007-07-25T10:30:01Z</time></trkpt>
<trkpt lat="46.47413302" lon="8.37998497"><ele>2272.844971</ele><time>2007-07-25T10:30:15Z</time></trkpt>
<trkpt lat="46.47385801" lon="8.38021204"><ele>2276.128906</ele><time>2007-07-25T10:30:30Z</time></trkpt>
<trkpt lat="46.47359398" lon="8.38041203"><ele>2279.329102</ele><time>2007-07-25T10:30:45Z</time></trkpt>
<trkpt lat="46.47332199" lon="8.38060398"><ele>2282.769043</ele><time>2007-07-25T10:31:00Z</time></trkpt>
<trkpt lat="46.47318997" lon="8.38069702"><ele>2285.822021</ele><time>2007-07-25T10:31:08Z</time></trkpt>
<trkpt lat="46.47293299" lon="8.38107001"><ele>2288.490967</ele><time>2007-07-25T10:31:28Z</time></trkpt>
<trkpt lat="46.47289602" lon="8.38123203"><ele>2290.368896</ele><time>2007-07-25T10:31:35Z</time></trkpt>
<trkpt lat="46.47284104" lon="8.38155700"><ele>2293.791992</ele><time>2007-07-25T10:31:47Z</time></trkpt>
<trkpt lat="46.47278203" lon="8.38198196"><ele>2296.88501</ele><time>2007-07-25T10:32:03Z</time></trkpt>
<trkpt lat="46.47275504" lon="8.38248203"><ele>2298.940918</ele><time>2007-07-25T10:32:20Z</time></trkpt>
<trkpt lat="46.47274003" lon="8.38254003"><ele>2299.055908</ele><time>2007-07-25T10:32:22Z</time></trkpt>
<trkpt lat="46.47234801" lon="8.38267003"><ele>2301.965088</ele><time>2007-07-25T10:32:40Z</time></trkpt>
<trkpt lat="46.47205104" lon="8.38226502"><ele>2304.690918</ele><time>2007-07-25T10:32:58Z</time></trkpt>
<trkpt lat="46.47207703" lon="8.38163403"><ele>2307.927002</ele><time>2007-07-25T10:33:16Z</time></trkpt>
<trkpt lat="46.47202699" lon="8.38113002"><ele>2308.241943</ele><time>2007-07-25T10:33:30Z</time></trkpt>
<trkpt lat="46.47195096" lon="8.38047598"><ele>2308.670898</ele><time>2007-07-25T10:33:45Z</time></trkpt>
<trkpt lat="46.47170101" lon="8.37973603"><ele>2309.601074</ele><time>2007-07-25T10:34:00Z</time></trkpt>
<trkpt lat="46.47163203" lon="8.37956001"><ele>2309.060059</ele><time>2007-07-25T10:34:03Z</time></trkpt>
<trkpt lat="46.47137797" lon="8.37858201"><ele>2310.325928</ele><time>2007-07-25T10:34:18Z</time></trkpt>
<trkpt lat="46.47100003" lon="8.37827699"><ele>2311.084961</ele><time>2007-07-25T10:34:25Z</time></trkpt>
<trkpt lat="46.47089400" lon="8.37824900"><ele>2311.185059</ele><time>2007-07-25T10:34:27Z</time></trkpt>
<trkpt lat="46.47020300" lon="8.37812402"><ele>2309.61499</ele><time>2007-07-25T10:34:40Z</time></trkpt>
<trkpt lat="46.46997702" lon="8.37813903"><ele>2309.263916</ele><time>2007-07-25T10:34:44Z</time></trkpt>
<trkpt lat="46.46952298" lon="8.37836601"><ele>2309.602051</ele><time>2007-07-25T10:34:53Z</time></trkpt>
<trkpt lat="46.46911000" lon="8.37861001"><ele>2312.89209</ele><time>2007-07-25T10:35:05Z</time></trkpt>
<trkpt lat="46.46896197" lon="8.37869600"><ele>2314.569092</ele><time>2007-07-25T10:35:11Z</time></trkpt>
<trkpt lat="46.46871898" lon="8.37884302"><ele>2317.842041</ele><time>2007-07-25T10:35:21Z</time></trkpt>
<trkpt lat="46.46839201" lon="8.37894604"><ele>2320.822998</ele><time>2007-07-25T10:35:36Z</time></trkpt>
<trkpt lat="46.46808598" lon="8.37886800"><ele>2324.292969</ele><time>2007-07-25T10:35:50Z</time></trkpt>
<trkpt lat="46.46778700" lon="8.37879298"><ele>2327.458008</ele><time>2007-07-25T10:36:04Z</time></trkpt>
<trkpt lat="46.46745801" lon="8.37857396"><ele>2330.471924</ele><time>2007-07-25T10:36:21Z</time></trkpt>
<trkpt lat="46.46711200" lon="8.37841303"><ele>2333.725098</ele><time>2007-07-25T10:36:37Z</time></trkpt>
<trkpt lat="46.46700799" lon="8.37823098"><ele>2333.687988</ele><time>2007-07-25T10:36:50Z</time></trkpt>
<trkpt lat="46.46705199" lon="8.37822796"><ele>2332.959961</ele><time>2007-07-25T10:37:40Z</time></trkpt>
<trkpt lat="46.46704202" lon="8.37822603"><ele>2334.519043</ele><time>2007-07-25T10:38:37Z</time></trkpt>
<trkpt lat="46.46704202" lon="8.37822796"><ele>2334.833008</ele><time>2007-07-25T10:38:38Z</time></trkpt>
<trkpt lat="46.46671504" lon="8.37806602"><ele>2336.258057</ele><time>2007-07-25T10:38:54Z</time></trkpt>
<trkpt lat="46.46614398" lon="8.37782596"><ele>2339.780029</ele><time>2007-07-25T10:39:16Z</time></trkpt>
<trkpt lat="46.46564903" lon="8.37751902"><ele>2342.547119</ele><time>2007-07-25T10:39:34Z</time></trkpt>
<trkpt lat="46.46531501" lon="8.37696296"><ele>2344.802002</ele><time>2007-07-25T10:39:49Z</time></trkpt>
<trkpt lat="46.46511904" lon="8.37598697"><ele>2347.191895</ele><time>2007-07-25T10:40:07Z</time></trkpt>
<trkpt lat="46.46493003" lon="8.37504200"><ele>2349.945068</ele><time>2007-07-25T10:40:24Z</time></trkpt>
<trkpt lat="46.46493598" lon="8.37459197"><ele>2353.066895</ele><time>2007-07-25T10:40:34Z</time></trkpt>
<trkpt lat="46.46484001" lon="8.37413197"><ele>2356.371094</ele><time>2007-07-25T10:40:47Z</time></trkpt>
<trkpt lat="46.46476801" lon="8.37377901"><ele>2359.624023</ele><time>2007-07-25T10:40:59Z</time></trkpt>
<trkpt lat="46.46463004" lon="8.37326202"><ele>2362.643066</ele><time>2007-07-25T10:41:16Z</time></trkpt>
<trkpt lat="46.46452300" lon="8.37298801"><ele>2363.648926</ele><time>2007-07-25T10:41:26Z</time></trkpt>
<trkpt lat="46.46414003" lon="8.37292800"><ele>2366.514893</ele><time>2007-07-25T10:41:42Z</time></trkpt>
<trkpt lat="46.46398799" lon="8.37286002"><ele>2368.948975</ele><time>2007-07-25T10:41:49Z</time></trkpt>
<trkpt lat="46.46378498" lon="8.37274997"><ele>2371.933105</ele><time>2007-07-25T10:42:04Z</time></trkpt>
<trkpt lat="46.46353603" lon="8.37264704"><ele>2374.250977</ele><time>2007-07-25T10:42:21Z</time></trkpt>
<trkpt lat="46.46348096" lon="8.37263597"><ele>2377.251953</ele><time>2007-07-25T10:42:32Z</time></trkpt>
<trkpt lat="46.46348298" lon="8.37265098"><ele>2371.884033</ele><time>2007-07-25T10:42:50Z</time></trkpt>
<trkpt lat="46.46348298" lon="8.37265198"><ele>2377.11499</ele><time>2007-07-25T10:42:51Z</time></trkpt>
<trkpt lat="46.46348298" lon="8.37265399"><ele>2372.575928</ele><time>2007-07-25T10:42:54Z</time></trkpt>
<trkpt lat="46.46348298" lon="8.37265701"><ele>2376.576904</ele><time>2007-07-25T10:42:57Z</time></trkpt>
<trkpt lat="46.46348398" lon="8.37265701"><ele>2376.582031</ele><time>2007-07-25T10:42:58Z</time></trkpt>
<trkpt lat="46.46347702" lon="8.37266397"><ele>2375.761963</ele><time>2007-07-25T10:43:19Z</time></trkpt>
<trkpt lat="46.46347501" lon="8.37266497"><ele>2375.798096</ele><time>2007-07-25T10:43:26Z</time></trkpt>
<trkpt lat="46.46349798" lon="8.37272298"><ele>2375.177979</ele><time>2007-07-25T10:43:30Z</time></trkpt>
<trkpt lat="46.46355900" lon="8.37276103"><ele>2373.965088</ele><time>2007-07-25T10:43:32Z</time></trkpt>
<trkpt lat="46.46387802" lon="8.37307401"><ele>2375.542969</ele><time>2007-07-25T10:43:44Z</time></trkpt>
<trkpt lat="46.46414196" lon="8.37332002"><ele>2378.693115</ele><time>2007-07-25T10:43:57Z</time></trkpt>
<trkpt lat="46.46433198" lon="8.37369503"><ele>2380.446045</ele><time>2007-07-25T10:44:11Z</time></trkpt>
<trkpt lat="46.46438302" lon="8.37429601"><ele>2380.739014</ele><time>2007-07-25T10:44:25Z</time></trkpt>
<trkpt lat="46.46440499" lon="8.37462500"><ele>2382.749023</ele><time>2007-07-25T10:44:32Z</time></trkpt>
<trkpt lat="46.46430600" lon="8.37514501"><ele>2385.083008</ele><time>2007-07-25T10:44:46Z</time></trkpt>
<trkpt lat="46.46421698" lon="8.37556100"><ele>2387.408936</ele><time>2007-07-25T10:45:00Z</time></trkpt>
<trkpt lat="46.46431597" lon="8.37609099"><ele>2390.018066</ele><time>2007-07-25T10:45:17Z</time></trkpt>
<trkpt lat="46.46444698" lon="8.37666096"><ele>2392.905029</ele><time>2007-07-25T10:45:36Z</time></trkpt>
<trkpt lat="46.46461101" lon="8.37700898"><ele>2395.298096</ele><time>2007-07-25T10:45:50Z</time></trkpt>
<trkpt lat="46.46475099" lon="8.37734199"><ele>2398.806885</ele><time>2007-07-25T10:46:06Z</time></trkpt>
<trkpt lat="46.46467798" lon="8.37729103"><ele>2400.262939</ele><time>2007-07-25T10:46:13Z</time></trkpt>
<trkpt lat="46.46451797" lon="8.37705298"><ele>2402.669922</ele><time>2007-07-25T10:46:30Z</time></trkpt>
<trkpt lat="46.46450498" lon="8.37701996"><ele>2403.079102</ele><time>2007-07-25T10:46:38Z</time></trkpt>
<trkpt lat="46.46444304" lon="8.37692499"><ele>2404.86499</ele><time>2007-07-25T10:46:49Z</time></trkpt>
<trkpt lat="46.46429401" lon="8.37674696"><ele>2407.5979</ele><time>2007-07-25T10:47:07Z</time></trkpt>
<trkpt lat="46.46428898" lon="8.37673497"><ele>2408.427979</ele><time>2007-07-25T10:47:08Z</time></trkpt>
<trkpt lat="46.46416702" lon="8.37660698"><ele>2411.162109</ele><time>2007-07-25T10:47:22Z</time></trkpt>
<trkpt lat="46.46402302" lon="8.37635301"><ele>2413.933105</ele><time>2007-07-25T10:47:43Z</time></trkpt>
<trkpt lat="46.46391003" lon="8.37620398"><ele>2415.782959</ele><time>2007-07-25T10:48:01Z</time></trkpt>
<trkpt lat="46.46382102" lon="8.37603098"><ele>2418.003906</ele><time>2007-07-25T10:48:11Z</time></trkpt>
<trkpt lat="46.46373804" lon="8.37576896"><ele>2421.029053</ele><time>2007-07-25T10:48:22Z</time></trkpt>
<trkpt lat="46.46372999" lon="8.37561700"><ele>2423.241943</ele><time>2007-07-25T10:48:28Z</time></trkpt>
<trkpt lat="46.46360502" lon="8.37518197"><ele>2425.487061</ele><time>2007-07-25T10:48:47Z</time></trkpt>
<trkpt lat="46.46351600" lon="8.37495801"><ele>2428.065918</ele><time>2007-07-25T10:49:00Z</time></trkpt>
<trkpt lat="46.46347099" lon="8.37475701"><ele>2430.873047</ele><time>2007-07-25T10:49:18Z</time></trkpt>
<trkpt lat="46.46342003" lon="8.37463598"><ele>2432.717041</ele><time>2007-07-25T10:49:31Z</time></trkpt>
<trkpt lat="46.46335004" lon="8.37443599"><ele>2435.224121</ele><time>2007-07-25T10:49:41Z</time></trkpt>
<trkpt lat="46.46322196" lon="8.37405503"><ele>2438.400879</ele><time>2007-07-25T10:50:00Z</time></trkpt>
<trkpt lat="46.46297503" lon="8.37375998"><ele>2438.488037</ele><time>2007-07-25T10:50:16Z</time></trkpt>
<trkpt lat="46.46285702" lon="8.37368597"><ele>2439.14502</ele><time>2007-07-25T10:50:22Z</time></trkpt>
<trkpt lat="46.46278200" lon="8.37366502"><ele>2439.625</ele><time>2007-07-25T10:50:37Z</time></trkpt>
<trkpt lat="46.46277504" lon="8.37367097"><ele>2439.2771</ele><time>2007-07-25T10:50:38Z</time></trkpt>
<trkpt lat="46.46276800" lon="8.37371497"><ele>2439.35791</ele><time>2007-07-25T10:50:50Z</time></trkpt>
<trkpt lat="46.46274302" lon="8.37373300"><ele>2439.3479</ele><time>2007-07-25T10:51:24Z</time></trkpt>
<trkpt lat="46.46276004" lon="8.37371103"><ele>2439.261963</ele><time>2007-07-25T10:51:27Z</time></trkpt>
<trkpt lat="46.46289599" lon="8.37374699"><ele>2440.474121</ele><time>2007-07-25T10:51:37Z</time></trkpt>
<trkpt lat="46.46291804" lon="8.37365496"><ele>2439.513916</ele><time>2007-07-25T10:51:47Z</time></trkpt>
<trkpt lat="46.46292700" lon="8.37364800"><ele>2439.11792</ele><time>2007-07-25T10:52:05Z</time></trkpt>
<trkpt lat="46.46294301" lon="8.37361498"><ele>2438.581055</ele><time>2007-07-25T10:52:10Z</time></trkpt>
<trkpt lat="46.46295701" lon="8.37356804"><ele>2436.052979</ele><time>2007-07-25T10:52:15Z</time></trkpt>
<trkpt lat="46.46296003" lon="8.37352898"><ele>2434.572998</ele><time>2007-07-25T10:52:19Z</time></trkpt>
<trkpt lat="46.46298098" lon="8.37352001"><ele>2433.955078</ele><time>2007-07-25T10:52:21Z</time></trkpt>
<trkpt lat="46.46299599" lon="8.37354901"><ele>2432.854004</ele><time>2007-07-25T10:52:39Z</time></trkpt>
<trkpt lat="46.46298601" lon="8.37354801"><ele>2432.855957</ele><time>2007-07-25T10:54:23Z</time></trkpt>
<trkpt lat="46.46295198" lon="8.37360601"><ele>2436.803955</ele><time>2007-07-25T10:54:33Z</time></trkpt>
<trkpt lat="46.46291703" lon="8.37366602"><ele>2439.104004</ele><time>2007-07-25T10:54:41Z</time></trkpt>
<trkpt lat="46.46291502" lon="8.37370399"><ele>2439.657959</ele><time>2007-07-25T10:54:44Z</time></trkpt>
<trkpt lat="46.46291099" lon="8.37373702"><ele>2440.285889</ele><time>2007-07-25T10:54:46Z</time></trkpt>
<trkpt lat="46.46289096" lon="8.37389301"><ele>2441.008057</ele><time>2007-07-25T10:54:56Z</time></trkpt>
<trkpt lat="46.46283497" lon="8.37388303"><ele>2443.844971</ele><time>2007-07-25T10:55:08Z</time></trkpt>
<trkpt lat="46.46279600" lon="8.37379703"><ele>2443.825928</ele><time>2007-07-25T10:55:21Z</time></trkpt>
<trkpt lat="46.46276800" lon="8.37375998"><ele>2443.621094</ele><time>2007-07-25T10:55:34Z</time></trkpt>
<trkpt lat="46.46283598" lon="8.37386803"><ele>2443.74707</ele><time>2007-07-25T10:55:46Z</time></trkpt>
<trkpt lat="46.46286196" lon="8.37388303"><ele>2442.135986</ele><time>2007-07-25T10:55:50Z</time></trkpt>
<trkpt lat="46.46291502" lon="8.37381799"><ele>2441.032959</ele><time>2007-07-25T10:55:56Z</time></trkpt>
<trkpt lat="46.46277797" lon="8.37368396"><ele>2440.156982</ele><time>2007-07-25T10:56:10Z</time></trkpt>
<trkpt lat="46.46277403" lon="8.37367801"><ele>2439.397949</ele><time>2007-07-25T10:56:16Z</time></trkpt>
<trkpt lat="46.46279499" lon="8.37359402"><ele>2439.64502</ele><time>2007-07-25T10:56:21Z</time></trkpt>
<trkpt lat="46.46280102" lon="8.37355999"><ele>2439.656982</ele><time>2007-07-25T10:56:35Z</time></trkpt>
<trkpt lat="46.46277999" lon="8.37364901"><ele>2440.285889</ele><time>2007-07-25T10:56:44Z</time></trkpt>
<trkpt lat="46.46278602" lon="8.37365798"><ele>2439.118896</ele><time>2007-07-25T10:56:58Z</time></trkpt>
<trkpt lat="46.46277504" lon="8.37375797"><ele>2440.874023</ele><time>2007-07-25T11:05:27Z</time></trkpt>
<trkpt lat="46.46277596" lon="8.37375303"><ele>2437.674072</ele><time>2007-07-25T11:05:28Z</time></trkpt>
<trkpt lat="46.46277999" lon="8.37375202"><ele>2437.677002</ele><time>2007-07-25T11:05:29Z</time></trkpt>
<trkpt lat="46.46278099" lon="8.37375403"><ele>2444.400879</ele><time>2007-07-25T11:05:30Z</time></trkpt>
<trkpt lat="46.46278200" lon="8.37375998"><ele>2441.282959</ele><time>2007-07-25T11:05:31Z</time></trkpt>
<trkpt lat="46.46274503" lon="8.37369503"><ele>2440.365967</ele><time>2007-07-25T11:13:01Z</time></trkpt>
<trkpt lat="46.46275702" lon="8.37370098"><ele>2440.285889</ele><time>2007-07-25T11:14:10Z</time></trkpt>
<trkpt lat="46.46279197" lon="8.37362998"><ele>2440.762939</ele><time>2007-07-25T11:14:16Z</time></trkpt>
<trkpt lat="46.46278904" lon="8.37359796"><ele>2440.785889</ele><time>2007-07-25T11:14:31Z</time></trkpt>
<trkpt lat="46.46278703" lon="8.37361598"><ele>2440.687988</ele><time>2007-07-25T11:15:01Z</time></trkpt>
<trkpt lat="46.46279700" lon="8.37362504"><ele>2440.509033</ele><time>2007-07-25T11:15:34Z</time></trkpt>
<trkpt lat="46.46279901" lon="8.37364004"><ele>2440.681885</ele><time>2007-07-25T11:15:47Z</time></trkpt>
<trkpt lat="46.46286800" lon="8.37372403"><ele>2440.940918</ele><time>2007-07-25T11:15:54Z</time></trkpt>
<trkpt lat="46.46312700" lon="8.37394799"><ele>2440.469971</ele><time>2007-07-25T11:16:07Z</time></trkpt>
<trkpt lat="46.46315700" lon="8.37398697"><ele>2440.626953</ele><time>2007-07-25T11:16:22Z</time></trkpt>
<trkpt lat="46.46330603" lon="8.37420397"><ele>2439.924072</ele><time>2007-07-25T11:17:58Z</time></trkpt>
<trkpt lat="46.46337904" lon="8.37449801"><ele>2436.88208</ele><time>2007-07-25T11:18:11Z</time></trkpt>
<trkpt lat="46.46343998" lon="8.37467596"><ele>2434.977051</ele><time>2007-07-25T11:18:19Z</time></trkpt>
<trkpt lat="46.46350804" lon="8.37489598"><ele>2431.844971</ele><time>2007-07-25T11:18:30Z</time></trkpt>
<trkpt lat="46.46360602" lon="8.37519396"><ele>2429.016113</ele><time>2007-07-25T11:18:40Z</time></trkpt>
<trkpt lat="46.46369998" lon="8.37545497"><ele>2427.093994</ele><time>2007-07-25T11:18:44Z</time></trkpt>
<trkpt lat="46.46374801" lon="8.37568799"><ele>2424.667969</ele><time>2007-07-25T11:18:48Z</time></trkpt>
<trkpt lat="46.46376100" lon="8.37580500"><ele>2423.759033</ele><time>2007-07-25T11:18:50Z</time></trkpt>
<trkpt lat="46.46382504" lon="8.37603500"><ele>2421.468018</ele><time>2007-07-25T11:18:55Z</time></trkpt>
<trkpt lat="46.46388397" lon="8.37614900"><ele>2420.284912</ele><time>2007-07-25T11:19:05Z</time></trkpt>
<trkpt lat="46.46399997" lon="8.37637497"><ele>2416.674072</ele><time>2007-07-25T11:19:26Z</time></trkpt>
<trkpt lat="46.46413702" lon="8.37660497"><ele>2414.3479</ele><time>2007-07-25T11:19:34Z</time></trkpt>
<trkpt lat="46.46432200" lon="8.37680496"><ele>2410.650879</ele><time>2007-07-25T11:19:42Z</time></trkpt>
<trkpt lat="46.46437699" lon="8.37692600"><ele>2409.110107</ele><time>2007-07-25T11:19:51Z</time></trkpt>
<trkpt lat="46.46445796" lon="8.37703203"><ele>2406.941895</ele><time>2007-07-25T11:19:58Z</time></trkpt>
<trkpt lat="46.46464203" lon="8.37723596"><ele>2404.071045</ele><time>2007-07-25T11:20:11Z</time></trkpt>
<trkpt lat="46.46474898" lon="8.37733998"><ele>2402.62793</ele><time>2007-07-25T11:20:15Z</time></trkpt>
<trkpt lat="46.46474403" lon="8.37719003"><ele>2400.906982</ele><time>2007-07-25T11:20:22Z</time></trkpt>
<trkpt lat="46.46459400" lon="8.37695802"><ele>2399.273926</ele><time>2007-07-25T11:20:28Z</time></trkpt>
<trkpt lat="46.46451999" lon="8.37682701"><ele>2397.7229</ele><time>2007-07-25T11:20:31Z</time></trkpt>
<trkpt lat="46.46438001" lon="8.37638704"><ele>2394.907959</ele><time>2007-07-25T11:20:39Z</time></trkpt>
<trkpt lat="46.46435201" lon="8.37623097"><ele>2394.129883</ele><time>2007-07-25T11:20:41Z</time></trkpt>
<trkpt lat="46.46426702" lon="8.37575002"><ele>2390.599121</ele><time>2007-07-25T11:20:46Z</time></trkpt>
<trkpt lat="46.46424397" lon="8.37564901"><ele>2390.694092</ele><time>2007-07-25T11:20:47Z</time></trkpt>
<trkpt lat="46.46424900" lon="8.37528801"><ele>2389.458008</ele><time>2007-07-25T11:20:51Z</time></trkpt>
<trkpt lat="46.46437297" lon="8.37484200"><ele>2387.806885</ele><time>2007-07-25T11:20:56Z</time></trkpt>
<trkpt lat="46.46435302" lon="8.37431503"><ele>2384.866943</ele><time>2007-07-25T11:21:02Z</time></trkpt>
<trkpt lat="46.46430901" lon="8.37412200"><ele>2384.790039</ele><time>2007-07-25T11:21:04Z</time></trkpt>
<trkpt lat="46.46422704" lon="8.37338397"><ele>2382.959961</ele><time>2007-07-25T11:21:12Z</time></trkpt>
<trkpt lat="46.46417398" lon="8.37331499"><ele>2382.419922</ele><time>2007-07-25T11:21:13Z</time></trkpt>
<trkpt lat="46.46389897" lon="8.37301400"><ele>2377.780029</ele><time>2007-07-25T11:21:17Z</time></trkpt>
<trkpt lat="46.46374600" lon="8.37285097"><ele>2377.135986</ele><time>2007-07-25T11:21:19Z</time></trkpt>
<trkpt lat="46.46362002" lon="8.37272499"><ele>2378.064941</ele><time>2007-07-25T11:21:21Z</time></trkpt>
<trkpt lat="46.46339002" lon="8.37263304"><ele>2381.053955</ele><time>2007-07-25T11:21:28Z</time></trkpt>
<trkpt lat="46.46337602" lon="8.37265299"><ele>2381.343994</ele><time>2007-07-25T11:21:48Z</time></trkpt>
<trkpt lat="46.46337401" lon="8.37266497"><ele>2381.781982</ele><time>2007-07-25T11:22:01Z</time></trkpt>
<trkpt lat="46.46337401" lon="8.37266003"><ele>2380.920898</ele><time>2007-07-25T11:22:07Z</time></trkpt>
<trkpt lat="46.46336697" lon="8.37262901"><ele>2381.612061</ele><time>2007-07-25T11:22:23Z</time></trkpt>
<trkpt lat="46.46337502" lon="8.37263497"><ele>2381.60791</ele><time>2007-07-25T11:22:26Z</time></trkpt>
<trkpt lat="46.46345599" lon="8.37265399"><ele>2379.312012</ele><time>2007-07-25T11:22:30Z</time></trkpt>
<trkpt lat="46.46354601" lon="8.37265098"><ele>2378.826904</ele><time>2007-07-25T11:22:32Z</time></trkpt>
<trkpt lat="46.46385999" lon="8.37280897"><ele>2374.721924</ele><time>2007-07-25T11:22:38Z</time></trkpt>
<trkpt lat="46.46405102" lon="8.37289799"><ele>2371.623047</ele><time>2007-07-25T11:22:41Z</time></trkpt>
<trkpt lat="46.46417700" lon="8.37293403"><ele>2370.724121</ele><time>2007-07-25T11:22:43Z</time></trkpt>
<trkpt lat="46.46440197" lon="8.37298701"><ele>2369.009033</ele><time>2007-07-25T11:22:47Z</time></trkpt>
<trkpt lat="46.46460900" lon="8.37308801"><ele>2369.044922</ele><time>2007-07-25T11:22:56Z</time></trkpt>
<trkpt lat="46.46467002" lon="8.37335397"><ele>2366.575928</ele><time>2007-07-25T11:23:03Z</time></trkpt>
<trkpt lat="46.46477798" lon="8.37375596"><ele>2362.763916</ele><time>2007-07-25T11:23:08Z</time></trkpt>
<trkpt lat="46.46486004" lon="8.37421697"><ele>2359.424072</ele><time>2007-07-25T11:23:12Z</time></trkpt>
<trkpt lat="46.46491704" lon="8.37442601"><ele>2357.725098</ele><time>2007-07-25T11:23:14Z</time></trkpt>
<trkpt lat="46.46495400" lon="8.37486899"><ele>2353.891113</ele><time>2007-07-25T11:23:18Z</time></trkpt>
<trkpt lat="46.46495501" lon="8.37513504"><ele>2352.465088</ele><time>2007-07-25T11:23:20Z</time></trkpt>
<trkpt lat="46.46501301" lon="8.37554701"><ele>2350.768066</ele><time>2007-07-25T11:23:23Z</time></trkpt>
<trkpt lat="46.46504000" lon="8.37568103"><ele>2351.022949</ele><time>2007-07-25T11:23:24Z</time></trkpt>
<trkpt lat="46.46517101" lon="8.37614003"><ele>2351.574951</ele><time>2007-07-25T11:23:28Z</time></trkpt>
<trkpt lat="46.46530101" lon="8.37639400"><ele>2352.647949</ele><time>2007-07-25T11:23:36Z</time></trkpt>
<trkpt lat="46.46529799" lon="8.37637598"><ele>2352.365967</ele><time>2007-07-25T11:24:18Z</time></trkpt>
<trkpt lat="46.46527503" lon="8.37669600"><ele>2350.783936</ele><time>2007-07-25T11:24:26Z</time></trkpt>
<trkpt lat="46.46532096" lon="8.37692600"><ele>2350.603027</ele><time>2007-07-25T11:24:30Z</time></trkpt>
<trkpt lat="46.46544300" lon="8.37727896"><ele>2349.168945</ele><time>2007-07-25T11:24:36Z</time></trkpt>
<trkpt lat="46.46559496" lon="8.37748901"><ele>2347.716064</ele><time>2007-07-25T11:24:40Z</time></trkpt>
<trkpt lat="46.46608698" lon="8.37781297"><ele>2343.727051</ele><time>2007-07-25T11:24:48Z</time></trkpt>
<trkpt lat="46.46622503" lon="8.37791003"><ele>2342.987061</ele><time>2007-07-25T11:24:50Z</time></trkpt>
<trkpt lat="46.46676499" lon="8.37815696"><ele>2339.780029</ele><time>2007-07-25T11:24:57Z</time></trkpt>
<trkpt lat="46.46684797" lon="8.37818798"><ele>2339.271973</ele><time>2007-07-25T11:24:58Z</time></trkpt>
<trkpt lat="46.46715601" lon="8.37842602"><ele>2338.88501</ele><time>2007-07-25T11:25:03Z</time></trkpt>
<trkpt lat="46.46750897" lon="8.37859601"><ele>2336.480957</ele><time>2007-07-25T11:25:09Z</time></trkpt>
<trkpt lat="46.46775599" lon="8.37876398"><ele>2332.657959</ele><time>2007-07-25T11:25:13Z</time></trkpt>
<trkpt lat="46.46795397" lon="8.37886498"><ele>2331.126953</ele><time>2007-07-25T11:25:16Z</time></trkpt>
<trkpt lat="46.46802203" lon="8.37888200"><ele>2330.120117</ele><time>2007-07-25T11:25:17Z</time></trkpt>
<trkpt lat="46.46821297" lon="8.37892399"><ele>2329.189941</ele><time>2007-07-25T11:25:20Z</time></trkpt>
<trkpt lat="46.46838698" lon="8.37890304"><ele>2328.792969</ele><time>2007-07-25T11:25:28Z</time></trkpt>
<trkpt lat="46.46837197" lon="8.37887898"><ele>2328.238037</ele><time>2007-07-25T11:25:55Z</time></trkpt>
<trkpt lat="46.46845101" lon="8.37893296"><ele>2327.51001</ele><time>2007-07-25T11:25:59Z</time></trkpt>
<trkpt lat="46.46857498" lon="8.37897697"><ele>2326.262939</ele><time>2007-07-25T11:26:02Z</time></trkpt>
<trkpt lat="46.46867104" lon="8.37893003"><ele>2323.860107</ele><time>2007-07-25T11:26:04Z</time></trkpt>
<trkpt lat="46.46911503" lon="8.37867304"><ele>2318.760986</ele><time>2007-07-25T11:26:11Z</time></trkpt>
<trkpt lat="46.46935299" lon="8.37852501"><ele>2315.986084</ele><time>2007-07-25T11:26:14Z</time></trkpt>
<trkpt lat="46.46948299" lon="8.37843298"><ele>2315.174072</ele><time>2007-07-25T11:26:16Z</time></trkpt>
<trkpt lat="46.47009898" lon="8.37814900"><ele>2316.169922</ele><time>2007-07-25T11:26:27Z</time></trkpt>
<trkpt lat="46.47028397" lon="8.37817498"><ele>2316.39209</ele><time>2007-07-25T11:26:31Z</time></trkpt>
<trkpt lat="46.47042202" lon="8.37822704"><ele>2317.124023</ele><time>2007-07-25T11:26:34Z</time></trkpt>
<trkpt lat="46.47093398" lon="8.37831597"><ele>2317.686035</ele><time>2007-07-25T11:26:46Z</time></trkpt>
<trkpt lat="46.47119600" lon="8.37856198"><ele>2317.704102</ele><time>2007-07-25T11:26:53Z</time></trkpt>
<trkpt lat="46.47125702" lon="8.37873196"><ele>2317.823975</ele><time>2007-07-25T11:26:56Z</time></trkpt>
<trkpt lat="46.47144796" lon="8.37964601"><ele>2316.666992</ele><time>2007-07-25T11:27:09Z</time></trkpt>
<trkpt lat="46.47161401" lon="8.38003803"><ele>2316.7229</ele><time>2007-07-25T11:27:16Z</time></trkpt>
<trkpt lat="46.47169498" lon="8.38028303"><ele>2316.695068</ele><time>2007-07-25T11:27:20Z</time></trkpt>
<trkpt lat="46.47192598" lon="8.38163998"><ele>2315.256104</ele><time>2007-07-25T11:27:38Z</time></trkpt>
<trkpt lat="46.47198097" lon="8.38231397"><ele>2312.208008</ele><time>2007-07-25T11:27:46Z</time></trkpt>
<trkpt lat="46.47213997" lon="8.38246903"><ele>2311.60498</ele><time>2007-07-25T11:27:53Z</time></trkpt>
<trkpt lat="46.47221197" lon="8.38238999"><ele>2311.646973</ele><time>2007-07-25T11:28:03Z</time></trkpt>
<trkpt lat="46.47220904" lon="8.38237801"><ele>2311.425049</ele><time>2007-07-25T11:28:10Z</time></trkpt>
<trkpt lat="46.47216797" lon="8.38239100"><ele>2310.677979</ele><time>2007-07-25T11:28:26Z</time></trkpt>
<trkpt lat="46.47219404" lon="8.38239301"><ele>2310.069092</ele><time>2007-07-25T11:28:54Z</time></trkpt>
<trkpt lat="46.47214198" lon="8.38231699"><ele>2310.674072</ele><time>2007-07-25T11:31:50Z</time></trkpt>
<trkpt lat="46.47213997" lon="8.38233098"><ele>2312.423096</ele><time>2007-07-25T11:31:53Z</time></trkpt>
<trkpt lat="46.47213796" lon="8.38237298"><ele>2312.37793</ele><time>2007-07-25T11:32:01Z</time></trkpt>
<trkpt lat="46.47211701" lon="8.38235102"><ele>2310.768066</ele><time>2007-07-25T11:32:15Z</time></trkpt>
<trkpt lat="46.47208096" lon="8.38234196"><ele>2311.561035</ele><time>2007-07-25T11:32:56Z</time></trkpt>
<trkpt lat="46.47210401" lon="8.38231204"><ele>2311.291992</ele><time>2007-07-25T11:34:06Z</time></trkpt>
<trkpt lat="46.47210703" lon="8.38231598"><ele>2305.969971</ele><time>2007-07-25T11:34:09Z</time></trkpt>
<trkpt lat="46.47210401" lon="8.38231799"><ele>2312.663086</ele><time>2007-07-25T11:34:10Z</time></trkpt>
<trkpt lat="46.47211500" lon="8.38233501"><ele>2312.198975</ele><time>2007-07-25T11:34:49Z</time></trkpt>
<trkpt lat="46.47210401" lon="8.38233400"><ele>2311.86499</ele><time>2007-07-25T11:34:55Z</time></trkpt>
<trkpt lat="46.47208197" lon="8.38242503"><ele>2312.5</ele><time>2007-07-25T11:35:00Z</time></trkpt>
<trkpt lat="46.47222698" lon="8.38264204"><ele>2312.158936</ele><time>2007-07-25T11:35:08Z</time></trkpt>
<trkpt lat="46.47242596" lon="8.38266701"><ele>2309.514893</ele><time>2007-07-25T11:35:12Z</time></trkpt>
<trkpt lat="46.47255002" lon="8.38262200"><ele>2308.25708</ele><time>2007-07-25T11:35:14Z</time></trkpt>
<trkpt lat="46.47295796" lon="8.38233501"><ele>2309.696045</ele><time>2007-07-25T11:35:22Z</time></trkpt>
<trkpt lat="46.47300901" lon="8.38218899"><ele>2311.0271</ele><time>2007-07-25T11:35:25Z</time></trkpt>
<trkpt lat="46.47316198" lon="8.38181198"><ele>2313.941895</ele><time>2007-07-25T11:35:35Z</time></trkpt>
<trkpt lat="46.47344998" lon="8.38144904"><ele>2316.981934</ele><time>2007-07-25T11:35:49Z</time></trkpt>
<trkpt lat="46.47367696" lon="8.38130001"><ele>2320.1521</ele><time>2007-07-25T11:35:59Z</time></trkpt>
<trkpt lat="46.47397402" lon="8.38115500"><ele>2323.420898</ele><time>2007-07-25T11:36:13Z</time></trkpt>
<trkpt lat="46.47430200" lon="8.38099298"><ele>2326.9021</ele><time>2007-07-25T11:36:30Z</time></trkpt>
<trkpt lat="46.47459101" lon="8.38084596"><ele>2329.418945</ele><time>2007-07-25T11:36:47Z</time></trkpt>
<trkpt lat="46.47483299" lon="8.38071504"><ele>2332.645996</ele><time>2007-07-25T11:37:00Z</time></trkpt>
<trkpt lat="46.47508596" lon="8.38058897"><ele>2335.673096</ele><time>2007-07-25T11:37:13Z</time></trkpt>
<trkpt lat="46.47533398" lon="8.38046702"><ele>2338.780029</ele><time>2007-07-25T11:37:25Z</time></trkpt>
<trkpt lat="46.47560698" lon="8.38036702"><ele>2342.129883</ele><time>2007-07-25T11:37:38Z</time></trkpt>
<trkpt lat="46.47562902" lon="8.38036099"><ele>2342.211914</ele><time>2007-07-25T11:37:39Z</time></trkpt>
<trkpt lat="46.47596799" lon="8.38027901"><ele>2345.400879</ele><time>2007-07-25T11:37:55Z</time></trkpt>
<trkpt lat="46.47626898" lon="8.38027197"><ele>2348.491943</ele><time>2007-07-25T11:38:09Z</time></trkpt>
<trkpt lat="46.47653201" lon="8.38040499"><ele>2351.528076</ele><time>2007-07-25T11:38:22Z</time></trkpt>
<trkpt lat="46.47673803" lon="8.38060297"><ele>2355.056885</ele><time>2007-07-25T11:38:33Z</time></trkpt>
<trkpt lat="46.47706099" lon="8.38100798"><ele>2358.214111</ele><time>2007-07-25T11:38:51Z</time></trkpt>
<trkpt lat="46.47739903" lon="8.38146396"><ele>2361.275879</ele><time>2007-07-25T11:39:10Z</time></trkpt>
<trkpt lat="46.47768200" lon="8.38188197"><ele>2364.501953</ele><time>2007-07-25T11:39:26Z</time></trkpt>
<trkpt lat="46.47789398" lon="8.38217902"><ele>2367.656982</ele><time>2007-07-25T11:39:37Z</time></trkpt>
<trkpt lat="46.47811996" lon="8.38250197"><ele>2370.74707</ele><time>2007-07-25T11:39:50Z</time></trkpt>
<trkpt lat="46.47830402" lon="8.38277900"><ele>2373.812012</ele><time>2007-07-25T11:40:02Z</time></trkpt>
<trkpt lat="46.47853503" lon="8.38311402"><ele>2376.827881</ele><time>2007-07-25T11:40:17Z</time></trkpt>
<trkpt lat="46.47871801" lon="8.38337604"><ele>2380.080078</ele><time>2007-07-25T11:40:29Z</time></trkpt>
<trkpt lat="46.47895698" lon="8.38373101"><ele>2383.254883</ele><time>2007-07-25T11:40:46Z</time></trkpt>
<trkpt lat="46.47915797" lon="8.38400099"><ele>2386.446045</ele><time>2007-07-25T11:40:59Z</time></trkpt>
<trkpt lat="46.47938202" lon="8.38429998"><ele>2389.769043</ele><time>2007-07-25T11:41:14Z</time></trkpt>
<trkpt lat="46.47964404" lon="8.38446502"><ele>2392.938965</ele><time>2007-07-25T11:41:28Z</time></trkpt>
<trkpt lat="46.47996398" lon="8.38466601"><ele>2396.153076</ele><time>2007-07-25T11:41:45Z</time></trkpt>
<trkpt lat="46.48018601" lon="8.38483097"><ele>2398.366943</ele><time>2007-07-25T11:41:58Z</time></trkpt>
<trkpt lat="46.48040696" lon="8.38498503"><ele>2402.237061</ele><time>2007-07-25T11:42:10Z</time></trkpt>
<trkpt lat="46.48075799" lon="8.38520296"><ele>2405.524902</ele><time>2007-07-25T11:42:29Z</time></trkpt>
<trkpt lat="46.48102496" lon="8.38535702"><ele>2408.603027</ele><time>2007-07-25T11:42:43Z</time></trkpt>
<trkpt lat="46.48122604" lon="8.38551099"><ele>2412</ele><time>2007-07-25T11:42:54Z</time></trkpt>
<trkpt lat="46.48147699" lon="8.38590100"><ele>2415.087891</ele><time>2007-07-25T11:43:13Z</time></trkpt>
<trkpt lat="46.48168897" lon="8.38626402"><ele>2418.111084</ele><time>2007-07-25T11:43:30Z</time></trkpt>
<trkpt lat="46.48185703" lon="8.38649604"><ele>2421.158936</ele><time>2007-07-25T11:43:42Z</time></trkpt>
<trkpt lat="46.48213296" lon="8.38677499"><ele>2424.312012</ele><time>2007-07-25T11:43:58Z</time></trkpt>
<trkpt lat="46.48216900" lon="8.38680600"><ele>2425.285889</ele><time>2007-07-25T11:44:00Z</time></trkpt>
<trkpt lat="46.48247603" lon="8.38721403"><ele>2428.319092</ele><time>2007-07-25T11:44:19Z</time></trkpt>
<trkpt lat="46.48231602" lon="8.38722400"><ele>2429.35791</ele><time>2007-07-25T11:44:26Z</time></trkpt>
<trkpt lat="46.48204604" lon="8.38693500"><ele>2432.779053</ele><time>2007-07-25T11:44:39Z</time></trkpt>
<trkpt lat="46.48169702" lon="8.38673199"><ele>2435.925049</ele><time>2007-07-25T11:44:55Z</time></trkpt>
<trkpt lat="46.48143198" lon="8.38653903"><ele>2439.068115</ele><time>2007-07-25T11:45:08Z</time></trkpt>
<trkpt lat="46.48121296" lon="8.38629303"><ele>2442.125977</ele><time>2007-07-25T11:45:21Z</time></trkpt>
<trkpt lat="46.48096402" lon="8.38604903"><ele>2445.376953</ele><time>2007-07-25T11:45:36Z</time></trkpt>
<trkpt lat="46.48064702" lon="8.38595498"><ele>2448.450928</ele><time>2007-07-25T11:45:52Z</time></trkpt>
<trkpt lat="46.48048801" lon="8.38596999"><ele>2450.572998</ele><time>2007-07-25T11:46:00Z</time></trkpt>
<trkpt lat="46.48017696" lon="8.38614400"><ele>2453.612061</ele><time>2007-07-25T11:46:16Z</time></trkpt>
<trkpt lat="46.48002198" lon="8.38628196"><ele>2455.912109</ele><time>2007-07-25T11:46:25Z</time></trkpt>
<trkpt lat="46.47975401" lon="8.38657097"><ele>2459.076904</ele><time>2007-07-25T11:46:41Z</time></trkpt>
<trkpt lat="46.47944899" lon="8.38678303"><ele>2462.100098</ele><time>2007-07-25T11:46:57Z</time></trkpt>
<trkpt lat="46.47918203" lon="8.38684497"><ele>2465.100098</ele><time>2007-07-25T11:47:10Z</time></trkpt>
<trkpt lat="46.47889503" lon="8.38683098"><ele>2468.154053</ele><time>2007-07-25T11:47:24Z</time></trkpt>
<trkpt lat="46.47859898" lon="8.38679401"><ele>2471.498047</ele><time>2007-07-25T11:47:39Z</time></trkpt>
<trkpt lat="46.47831400" lon="8.38675797"><ele>2474.596924</ele><time>2007-07-25T11:47:53Z</time></trkpt>
<trkpt lat="46.47829103" lon="8.38675696"><ele>2474.875977</ele><time>2007-07-25T11:47:54Z</time></trkpt>
<trkpt lat="46.47786196" lon="8.38666602"><ele>2476.829102</ele><time>2007-07-25T11:48:14Z</time></trkpt>
<trkpt lat="46.47769902" lon="8.38662696"><ele>2477.544922</ele><time>2007-07-25T11:48:24Z</time></trkpt>
<trkpt lat="46.47766801" lon="8.38657399"><ele>2477.544922</ele><time>2007-07-25T11:48:27Z</time></trkpt>
<trkpt lat="46.47765996" lon="8.38654096"><ele>2478.166016</ele><time>2007-07-25T11:48:40Z</time></trkpt>
<trkpt lat="46.47751302" lon="8.38674699"><ele>2476.951904</ele><time>2007-07-25T11:49:20Z</time></trkpt>
<trkpt lat="46.47755401" lon="8.38662503"><ele>2476.998047</ele><time>2007-07-25T11:49:50Z</time></trkpt>
<trkpt lat="46.47759500" lon="8.38660701"><ele>2474.981934</ele><time>2007-07-25T11:51:22Z</time></trkpt>
<trkpt lat="46.47764697" lon="8.38657298"><ele>2476.466064</ele><time>2007-07-25T11:51:36Z</time></trkpt>
<trkpt lat="46.47766901" lon="8.38652998"><ele>2475.376953</ele><time>2007-07-25T11:51:59Z</time></trkpt>
<trkpt lat="46.47765300" lon="8.38628800"><ele>2474.510986</ele><time>2007-07-25T11:52:14Z</time></trkpt>
<trkpt lat="46.47765501" lon="8.38621901"><ele>2473.496094</ele><time>2007-07-25T11:52:28Z</time></trkpt>
<trkpt lat="46.47764697" lon="8.38622698"><ele>2473.332031</ele><time>2007-07-25T11:52:39Z</time></trkpt>
<trkpt lat="46.47767597" lon="8.38651397"><ele>2475.913086</ele><time>2007-07-25T11:52:59Z</time></trkpt>
<trkpt lat="46.47767899" lon="8.38668203"><ele>2475.14209</ele><time>2007-07-25T11:53:16Z</time></trkpt>
<trkpt lat="46.47769399" lon="8.38665797"><ele>2475.175049</ele><time>2007-07-25T11:53:31Z</time></trkpt>
<trkpt lat="46.47767798" lon="8.38665999"><ele>2475.528076</ele><time>2007-07-25T11:54:07Z</time></trkpt>
<trkpt lat="46.47763800" lon="8.38661699"><ele>2475.149902</ele><time>2007-07-25T11:54:12Z</time></trkpt>
<trkpt lat="46.47758896" lon="8.38660601"><ele>2475.179932</ele><time>2007-07-25T11:54:31Z</time></trkpt>
<trkpt lat="46.47757698" lon="8.38664699"><ele>2475.444092</ele><time>2007-07-25T11:54:46Z</time></trkpt>
<trkpt lat="46.47763004" lon="8.38668304"><ele>2475.87207</ele><time>2007-07-25T11:54:58Z</time></trkpt>
<trkpt lat="46.47763004" lon="8.38667599"><ele>2475.531982</ele><time>2007-07-25T11:55:24Z</time></trkpt>
<trkpt lat="46.47761897" lon="8.38662998"><ele>2475.980957</ele><time>2007-07-25T11:55:36Z</time></trkpt>
<trkpt lat="46.47761897" lon="8.38659301"><ele>2476.124023</ele><time>2007-07-25T11:55:50Z</time></trkpt>
<trkpt lat="46.47762098" lon="8.38654499"><ele>2476.042969</ele><time>2007-07-25T11:56:05Z</time></trkpt>
<trkpt lat="46.47763599" lon="8.38646703"><ele>2476.417969</ele><time>2007-07-25T11:56:18Z</time></trkpt>
<trkpt lat="46.47764102" lon="8.38650299"><ele>2476.194092</ele><time>2007-07-25T11:56:40Z</time></trkpt>
<trkpt lat="46.47768402" lon="8.38648899"><ele>2477.165039</ele><time>2007-07-25T11:57:00Z</time></trkpt>
<trkpt lat="46.47769801" lon="8.38651699"><ele>2477.398926</ele><time>2007-07-25T11:57:16Z</time></trkpt>
<trkpt lat="46.47764102" lon="8.38648598"><ele>2477.356934</ele><time>2007-07-25T11:57:29Z</time></trkpt>
<trkpt lat="46.47737598" lon="8.38635899"><ele>2476.172119</ele><time>2007-07-25T11:57:50Z</time></trkpt>
<trkpt lat="46.47718999" lon="8.38624500"><ele>2476.624023</ele><time>2007-07-25T11:58:10Z</time></trkpt>
<trkpt lat="46.47718797" lon="8.38623804"><ele>2476.743896</ele><time>2007-07-25T11:58:22Z</time></trkpt>
<trkpt lat="46.47732100" lon="8.38613503"><ele>2476.930908</ele><time>2007-07-25T11:58:43Z</time></trkpt>
<trkpt lat="46.47732502" lon="8.38622103"><ele>2476.409912</ele><time>2007-07-25T11:58:48Z</time></trkpt>
<trkpt lat="46.47759601" lon="8.38636603"><ele>2476.224121</ele><time>2007-07-25T11:59:10Z</time></trkpt>
<trkpt lat="46.47769198" lon="8.38647500"><ele>2477.312012</ele><time>2007-07-25T11:59:19Z</time></trkpt>
<trkpt lat="46.47773498" lon="8.38650903"><ele>2476.586914</ele><time>2007-07-25T11:59:36Z</time></trkpt>
<trkpt lat="46.47772903" lon="8.38654096"><ele>2477.865967</ele><time>2007-07-25T12:00:14Z</time></trkpt>
<trkpt lat="46.47779902" lon="8.38655404"><ele>2477.626953</ele><time>2007-07-25T12:00:28Z</time></trkpt>
<trkpt lat="46.47781201" lon="8.38648799"><ele>2477.843994</ele><time>2007-07-25T12:00:40Z</time></trkpt>
<trkpt lat="46.47780899" lon="8.38641398"><ele>2478.326904</ele><time>2007-07-25T12:01:12Z</time></trkpt>
<trkpt lat="46.47786800" lon="8.38637500"><ele>2478.718994</ele><time>2007-07-25T12:01:50Z</time></trkpt>
<trkpt lat="46.47783397" lon="8.38638003"><ele>2478.805908</ele><time>2007-07-25T12:02:42Z</time></trkpt>
<trkpt lat="46.47785702" lon="8.38641004"><ele>2479.400879</ele><time>2007-07-25T12:03:38Z</time></trkpt>
<trkpt lat="46.47785400" lon="8.38636503"><ele>2479.449951</ele><time>2007-07-25T12:03:50Z</time></trkpt>
<trkpt lat="46.47779499" lon="8.38638397"><ele>2479.058105</ele><time>2007-07-25T12:03:57Z</time></trkpt>
<trkpt lat="46.47778401" lon="8.38653803"><ele>2478.636963</ele><time>2007-07-25T12:04:06Z</time></trkpt>
<trkpt lat="46.47778803" lon="8.38656904"><ele>2478.655029</ele><time>2007-07-25T12:04:09Z</time></trkpt>
<trkpt lat="46.47772500" lon="8.38651598"><ele>2478.37793</ele><time>2007-07-25T12:04:22Z</time></trkpt>
<trkpt lat="46.47768804" lon="8.38660098"><ele>2478.302002</ele><time>2007-07-25T12:05:06Z</time></trkpt>
<trkpt lat="46.47767404" lon="8.38655999"><ele>2478.929932</ele><time>2007-07-25T12:05:33Z</time></trkpt>
<trkpt lat="46.47757798" lon="8.38642303"><ele>2478.596924</ele><time>2007-07-25T12:05:46Z</time></trkpt>
<trkpt lat="46.47748897" lon="8.38626604"><ele>2477.825928</ele><time>2007-07-25T12:05:57Z</time></trkpt>
<trkpt lat="46.47724497" lon="8.38609203"><ele>2477.649902</ele><time>2007-07-25T12:06:18Z</time></trkpt>
<trkpt lat="46.47718596" lon="8.38600603"><ele>2476.268066</ele><time>2007-07-25T12:06:32Z</time></trkpt>
<trkpt lat="46.47718999" lon="8.38598398"><ele>2472.790039</ele><time>2007-07-25T12:07:14Z</time></trkpt>
<trkpt lat="46.47718999" lon="8.38598197"><ele>2480.311035</ele><time>2007-07-25T12:07:15Z</time></trkpt>
<trkpt lat="46.47718797" lon="8.38598097"><ele>2477.210938</ele><time>2007-07-25T12:07:16Z</time></trkpt>
<trkpt lat="46.47721102" lon="8.38597996"><ele>2475.958984</ele><time>2007-07-25T12:08:48Z</time></trkpt>
<trkpt lat="46.47719996" lon="8.38597502"><ele>2476.690918</ele><time>2007-07-25T12:09:14Z</time></trkpt>
<trkpt lat="46.47716803" lon="8.38600100"><ele>2480.021973</ele><time>2007-07-25T12:25:04Z</time></trkpt>
<trkpt lat="46.47717800" lon="8.38599999"><ele>2476.003906</ele><time>2007-07-25T12:25:09Z</time></trkpt>
<trkpt lat="46.47717901" lon="8.38600201"><ele>2481.176025</ele><time>2007-07-25T12:25:10Z</time></trkpt>
<trkpt lat="46.47717901" lon="8.38600301"><ele>2480.089111</ele><time>2007-07-25T12:25:11Z</time></trkpt>
<trkpt lat="46.47718001" lon="8.38600402"><ele>2479.081055</ele><time>2007-07-25T12:25:13Z</time></trkpt>
<trkpt lat="46.47720197" lon="8.38601500"><ele>2480.280029</ele><time>2007-07-25T12:26:00Z</time></trkpt>
<trkpt lat="46.47726702" lon="8.38628397"><ele>2480.793945</ele><time>2007-07-25T12:26:10Z</time></trkpt>
<trkpt lat="46.47728998" lon="8.38647902"><ele>2480.143066</ele><time>2007-07-25T12:26:16Z</time></trkpt>
<trkpt lat="46.47728696" lon="8.38651598"><ele>2480.240967</ele><time>2007-07-25T12:26:17Z</time></trkpt>
<trkpt lat="46.47733097" lon="8.38657499"><ele>2481.123047</ele><time>2007-07-25T12:26:21Z</time></trkpt>
<trkpt lat="46.47736802" lon="8.38656904"><ele>2481.191895</ele><time>2007-07-25T12:26:25Z</time></trkpt>
<trkpt lat="46.47756499" lon="8.38657399"><ele>2480.471924</ele><time>2007-07-25T12:26:35Z</time></trkpt>
<trkpt lat="46.47769298" lon="8.38647299"><ele>2481.611084</ele><time>2007-07-25T12:26:50Z</time></trkpt>
<trkpt lat="46.47766599" lon="8.38651900"><ele>2481.602051</ele><time>2007-07-25T12:27:20Z</time></trkpt>
<trkpt lat="46.47753599" lon="8.38678999"><ele>2480.697998</ele><time>2007-07-25T12:27:31Z</time></trkpt>
<trkpt lat="46.47728403" lon="8.38700901"><ele>2481.35498</ele><time>2007-07-25T12:27:39Z</time></trkpt>
<trkpt lat="46.47718202" lon="8.38719198"><ele>2480.844971</ele><time>2007-07-25T12:27:42Z</time></trkpt>
<trkpt lat="46.47713500" lon="8.38801299"><ele>2480.568115</ele><time>2007-07-25T12:27:51Z</time></trkpt>
<trkpt lat="46.47761797" lon="8.38956901"><ele>2482.025879</ele><time>2007-07-25T12:28:11Z</time></trkpt>
<trkpt lat="46.47796196" lon="8.39070098"><ele>2478.939941</ele><time>2007-07-25T12:28:24Z</time></trkpt>
<trkpt lat="46.47803698" lon="8.39106501"><ele>2475.780029</ele><time>2007-07-25T12:28:27Z</time></trkpt>
<trkpt lat="46.47808601" lon="8.39147899"><ele>2472.01709</ele><time>2007-07-25T12:28:30Z</time></trkpt>
<trkpt lat="46.47811401" lon="8.39192701"><ele>2470.594971</ele><time>2007-07-25T12:28:33Z</time></trkpt>
<trkpt lat="46.47812499" lon="8.39223999"><ele>2467.565918</ele><time>2007-07-25T12:28:35Z</time></trkpt>
<trkpt lat="46.47813798" lon="8.39256001"><ele>2466.220947</ele><time>2007-07-25T12:28:37Z</time></trkpt>
<trkpt lat="46.47815399" lon="8.39305202"><ele>2462.253906</ele><time>2007-07-25T12:28:40Z</time></trkpt>
<trkpt lat="46.47815902" lon="8.39354798"><ele>2460.714111</ele><time>2007-07-25T12:28:43Z</time></trkpt>
<trkpt lat="46.47812398" lon="8.39450704"><ele>2457.448975</ele><time>2007-07-25T12:28:49Z</time></trkpt>
<trkpt lat="46.47810898" lon="8.39465800"><ele>2457.690918</ele><time>2007-07-25T12:28:50Z</time></trkpt>
<trkpt lat="46.47797202" lon="8.39522000"><ele>2457.076904</ele><time>2007-07-25T12:28:54Z</time></trkpt>
<trkpt lat="46.47778200" lon="8.39573197"><ele>2454.612061</ele><time>2007-07-25T12:28:58Z</time></trkpt>
<trkpt lat="46.47760296" lon="8.39623002"><ele>2452.603027</ele><time>2007-07-25T12:29:02Z</time></trkpt>
<trkpt lat="46.47753096" lon="8.39701801"><ele>2451.447998</ele><time>2007-07-25T12:29:08Z</time></trkpt>
<trkpt lat="46.47757798" lon="8.39740902"><ele>2449.615967</ele><time>2007-07-25T12:29:11Z</time></trkpt>
<trkpt lat="46.47763800" lon="8.39780096"><ele>2448.12793</ele><time>2007-07-25T12:29:14Z</time></trkpt>
<trkpt lat="46.47782299" lon="8.39828703"><ele>2444.043945</ele><time>2007-07-25T12:29:18Z</time></trkpt>
<trkpt lat="46.47796598" lon="8.39848199"><ele>2443.099121</ele><time>2007-07-25T12:29:20Z</time></trkpt>
<trkpt lat="46.47843797" lon="8.39875298"><ele>2439.659912</ele><time>2007-07-25T12:29:25Z</time></trkpt>
<trkpt lat="46.47887299" lon="8.39882104"><ele>2436.854004</ele><time>2007-07-25T12:29:29Z</time></trkpt>
<trkpt lat="46.47921296" lon="8.39886798"><ele>2433.430908</ele><time>2007-07-25T12:29:32Z</time></trkpt>
<trkpt lat="46.47932704" lon="8.39888499"><ele>2433.177979</ele><time>2007-07-25T12:29:33Z</time></trkpt>
<trkpt lat="46.47955896" lon="8.39894098"><ele>2431.702881</ele><time>2007-07-25T12:29:35Z</time></trkpt>
<trkpt lat="46.47977999" lon="8.39906503"><ele>2430.699951</ele><time>2007-07-25T12:29:37Z</time></trkpt>
<trkpt lat="46.48003497" lon="8.39943199"><ele>2426.688965</ele><time>2007-07-25T12:29:40Z</time></trkpt>
<trkpt lat="46.48008803" lon="8.39959200"><ele>2426.691895</ele><time>2007-07-25T12:29:41Z</time></trkpt>
<trkpt lat="46.48012298" lon="8.39976098"><ele>2424.681885</ele><time>2007-07-25T12:29:42Z</time></trkpt>
<trkpt lat="46.48024603" lon="8.40063597"><ele>2420.409912</ele><time>2007-07-25T12:29:47Z</time></trkpt>
<trkpt lat="46.48033102" lon="8.40134500"><ele>2417.034912</ele><time>2007-07-25T12:29:51Z</time></trkpt>
<trkpt lat="46.48045599" lon="8.40228997"><ele>2413.498047</ele><time>2007-07-25T12:29:57Z</time></trkpt>
<trkpt lat="46.48047100" lon="8.40240899"><ele>2413.644043</ele><time>2007-07-25T12:29:58Z</time></trkpt>
<trkpt lat="46.48029498" lon="8.40257999"><ele>2414.22998</ele><time>2007-07-25T12:30:03Z</time></trkpt>
<trkpt lat="46.48026698" lon="8.40248602"><ele>2413.509033</ele><time>2007-07-25T12:30:04Z</time></trkpt>
<trkpt lat="46.48010999" lon="8.40191798"><ele>2408.940918</ele><time>2007-07-25T12:30:09Z</time></trkpt>
<trkpt lat="46.48003103" lon="8.40165102"><ele>2407.705078</ele><time>2007-07-25T12:30:11Z</time></trkpt>
<trkpt lat="46.47988996" lon="8.40122103"><ele>2405.018066</ele><time>2007-07-25T12:30:14Z</time></trkpt>
<trkpt lat="46.47954999" lon="8.40073203"><ele>2399.667969</ele><time>2007-07-25T12:30:18Z</time></trkpt>
<trkpt lat="46.47919896" lon="8.40052902"><ele>2396.73999</ele><time>2007-07-25T12:30:21Z</time></trkpt>
<trkpt lat="46.47896502" lon="8.40046699"><ele>2395.791992</ele><time>2007-07-25T12:30:23Z</time></trkpt>
<trkpt lat="46.47876796" lon="8.40042701"><ele>2394.912109</ele><time>2007-07-25T12:30:25Z</time></trkpt>
<trkpt lat="46.47860401" lon="8.40072297"><ele>2394.427979</ele><time>2007-07-25T12:30:30Z</time></trkpt>
<trkpt lat="46.47871197" lon="8.40084803"><ele>2392.693115</ele><time>2007-07-25T12:30:32Z</time></trkpt>
<trkpt lat="46.47908798" lon="8.40109698"><ele>2388.697021</ele><time>2007-07-25T12:30:37Z</time></trkpt>
<trkpt lat="46.47938102" lon="8.40152001"><ele>2383.406982</ele><time>2007-07-25T12:30:41Z</time></trkpt>
<trkpt lat="46.47948897" lon="8.40198898"><ele>2379.295898</ele><time>2007-07-25T12:30:44Z</time></trkpt>
<trkpt lat="46.47958403" lon="8.40307200"><ele>2375.429932</ele><time>2007-07-25T12:30:52Z</time></trkpt>
<trkpt lat="46.47941303" lon="8.40316102"><ele>2374.26709</ele><time>2007-07-25T12:30:57Z</time></trkpt>
<trkpt lat="46.47939996" lon="8.40306798"><ele>2374.322021</ele><time>2007-07-25T12:30:58Z</time></trkpt>
<trkpt lat="46.47938001" lon="8.40287201"><ele>2373.801025</ele><time>2007-07-25T12:31:00Z</time></trkpt>
<trkpt lat="46.47921296" lon="8.40234202"><ele>2370.066895</ele><time>2007-07-25T12:31:05Z</time></trkpt>
<trkpt lat="46.47907600" lon="8.40214496"><ele>2366.991943</ele><time>2007-07-25T12:31:07Z</time></trkpt>
<trkpt lat="46.47899704" lon="8.40205302"><ele>2366.480957</ele><time>2007-07-25T12:31:08Z</time></trkpt>
<trkpt lat="46.47873997" lon="8.40176904"><ele>2362.917969</ele><time>2007-07-25T12:31:11Z</time></trkpt>
<trkpt lat="46.47856403" lon="8.40155899"><ele>2361.227051</ele><time>2007-07-25T12:31:13Z</time></trkpt>
<trkpt lat="46.47837502" lon="8.40135204"><ele>2358.662109</ele><time>2007-07-25T12:31:15Z</time></trkpt>
<trkpt lat="46.47779298" lon="8.40109304"><ele>2352.834961</ele><time>2007-07-25T12:31:20Z</time></trkpt>
<trkpt lat="46.47741303" lon="8.40120200"><ele>2349.36792</ele><time>2007-07-25T12:31:23Z</time></trkpt>
<trkpt lat="46.47686301" lon="8.40148204"><ele>2346.439941</ele><time>2007-07-25T12:31:28Z</time></trkpt>
<trkpt lat="46.47677500" lon="8.40152596"><ele>2347.0979</ele><time>2007-07-25T12:31:29Z</time></trkpt>
<trkpt lat="46.47668498" lon="8.40195604"><ele>2345.837891</ele><time>2007-07-25T12:31:35Z</time></trkpt>
<trkpt lat="46.47674197" lon="8.40199702"><ele>2345.137939</ele><time>2007-07-25T12:31:36Z</time></trkpt>
<trkpt lat="46.47701799" lon="8.40217204"><ele>2341.281006</ele><time>2007-07-25T12:31:40Z</time></trkpt>
<trkpt lat="46.47727196" lon="8.40236499"><ele>2337.451904</ele><time>2007-07-25T12:31:43Z</time></trkpt>
<trkpt lat="46.47753004" lon="8.40268803"><ele>2333.996094</ele><time>2007-07-25T12:31:46Z</time></trkpt>
<trkpt lat="46.47760799" lon="8.40282499"><ele>2331.24707</ele><time>2007-07-25T12:31:47Z</time></trkpt>
<trkpt lat="46.47783397" lon="8.40327300"><ele>2325.344971</ele><time>2007-07-25T12:31:50Z</time></trkpt>
<trkpt lat="46.47806598" lon="8.40374297"><ele>2320.448975</ele><time>2007-07-25T12:31:53Z</time></trkpt>
<trkpt lat="46.47829900" lon="8.40422996"><ele>2316.508057</ele><time>2007-07-25T12:31:56Z</time></trkpt>
<trkpt lat="46.47853704" lon="8.40472701"><ele>2312.826904</ele><time>2007-07-25T12:31:59Z</time></trkpt>
<trkpt lat="46.47875204" lon="8.40526496"><ele>2308.556885</ele><time>2007-07-25T12:32:02Z</time></trkpt>
<trkpt lat="46.47884499" lon="8.40567098"><ele>2300.946045</ele><time>2007-07-25T12:32:04Z</time></trkpt>
<trkpt lat="46.47889202" lon="8.40630298"><ele>2297.840088</ele><time>2007-07-25T12:32:07Z</time></trkpt>
<trkpt lat="46.47880602" lon="8.40691997"><ele>2293.793945</ele><time>2007-07-25T12:32:10Z</time></trkpt>
<trkpt lat="46.47859597" lon="8.40771700"><ele>2288.604004</ele><time>2007-07-25T12:32:14Z</time></trkpt>
<trkpt lat="46.47855196" lon="8.40792404"><ele>2288.071045</ele><time>2007-07-25T12:32:15Z</time></trkpt>
<trkpt lat="46.47848801" lon="8.40857699"><ele>2282.207031</ele><time>2007-07-25T12:32:18Z</time></trkpt>
<trkpt lat="46.47846303" lon="8.40899399"><ele>2279.726074</ele><time>2007-07-25T12:32:20Z</time></trkpt>
<trkpt lat="46.47814502" lon="8.40978297"><ele>2274.220947</ele><time>2007-07-25T12:32:25Z</time></trkpt>
<trkpt lat="46.47776498" lon="8.41016703"><ele>2268.337891</ele><time>2007-07-25T12:32:29Z</time></trkpt>
<trkpt lat="46.47755502" lon="8.41056299"><ele>2264.2771</ele><time>2007-07-25T12:32:32Z</time></trkpt>
<trkpt lat="46.47748000" lon="8.41106901"><ele>2259.740967</ele><time>2007-07-25T12:32:35Z</time></trkpt>
<trkpt lat="46.47749500" lon="8.41198498"><ele>2255.022949</ele><time>2007-07-25T12:32:40Z</time></trkpt>
<trkpt lat="46.47750699" lon="8.41216402"><ele>2254.403076</ele><time>2007-07-25T12:32:41Z</time></trkpt>
<trkpt lat="46.47763004" lon="8.41268697"><ele>2248.272949</ele><time>2007-07-25T12:32:44Z</time></trkpt>
<trkpt lat="46.47779399" lon="8.41298796"><ele>2244.729004</ele><time>2007-07-25T12:32:46Z</time></trkpt>
<trkpt lat="46.47807503" lon="8.41341502"><ele>2240.176025</ele><time>2007-07-25T12:32:49Z</time></trkpt>
<trkpt lat="46.47829598" lon="8.41392498"><ele>2235.320068</ele><time>2007-07-25T12:32:52Z</time></trkpt>
<trkpt lat="46.47842498" lon="8.41429696"><ele>2232.284912</ele><time>2007-07-25T12:32:54Z</time></trkpt>
<trkpt lat="46.47855397" lon="8.41468002"><ele>2228.168945</ele><time>2007-07-25T12:32:56Z</time></trkpt>
<trkpt lat="46.47865699" lon="8.41508402"><ele>2225.716064</ele><time>2007-07-25T12:32:58Z</time></trkpt>
<trkpt lat="46.47870803" lon="8.41570202"><ele>2221.115967</ele><time>2007-07-25T12:33:01Z</time></trkpt>
<trkpt lat="46.47869504" lon="8.41634098"><ele>2217.050049</ele><time>2007-07-25T12:33:04Z</time></trkpt>
<trkpt lat="46.47868096" lon="8.41700600"><ele>2211.839111</ele><time>2007-07-25T12:33:07Z</time></trkpt>
<trkpt lat="46.47867098" lon="8.41744898"><ele>2208.660889</ele><time>2007-07-25T12:33:09Z</time></trkpt>
<trkpt lat="46.47875103" lon="8.41808097"><ele>2203.718018</ele><time>2007-07-25T12:33:12Z</time></trkpt>
<trkpt lat="46.47880803" lon="8.41827502"><ele>2202.9729</ele><time>2007-07-25T12:33:13Z</time></trkpt>
<trkpt lat="46.47892102" lon="8.41866000"><ele>2202.085938</ele><time>2007-07-25T12:33:15Z</time></trkpt>
<trkpt lat="46.47900802" lon="8.41926500"><ele>2197.303955</ele><time>2007-07-25T12:33:18Z</time></trkpt>
<trkpt lat="46.47903803" lon="8.41987797"><ele>2193.945068</ele><time>2007-07-25T12:33:21Z</time></trkpt>
<trkpt lat="46.47902998" lon="8.42068498"><ele>2190.427002</ele><time>2007-07-25T12:33:25Z</time></trkpt>
<trkpt lat="46.47892202" lon="8.42127004"><ele>2187.094971</ele><time>2007-07-25T12:33:28Z</time></trkpt>
<trkpt lat="46.47875296" lon="8.42183196"><ele>2183.477051</ele><time>2007-07-25T12:33:31Z</time></trkpt>
<trkpt lat="46.47848700" lon="8.42256202"><ele>2179.883057</ele><time>2007-07-25T12:33:35Z</time></trkpt>
<trkpt lat="46.47833998" lon="8.42292203"><ele>2176.714111</ele><time>2007-07-25T12:33:37Z</time></trkpt>
<trkpt lat="46.47818903" lon="8.42327599"><ele>2173.24292</ele><time>2007-07-25T12:33:39Z</time></trkpt>
<trkpt lat="46.47804201" lon="8.42362904"><ele>2170.958984</ele><time>2007-07-25T12:33:41Z</time></trkpt>
<trkpt lat="46.47780203" lon="8.42437604"><ele>2167.731934</ele><time>2007-07-25T12:33:45Z</time></trkpt>
<trkpt lat="46.47768896" lon="8.42498004"><ele>2164.343018</ele><time>2007-07-25T12:33:48Z</time></trkpt>
<trkpt lat="46.47764898" lon="8.42560499"><ele>2159.822998</ele><time>2007-07-25T12:33:51Z</time></trkpt>
<trkpt lat="46.47765602" lon="8.42602300"><ele>2158.88208</ele><time>2007-07-25T12:33:53Z</time></trkpt>
<trkpt lat="46.47769298" lon="8.42665097"><ele>2154.336914</ele><time>2007-07-25T12:33:56Z</time></trkpt>
<trkpt lat="46.47767697" lon="8.42729101"><ele>2149.758057</ele><time>2007-07-25T12:33:59Z</time></trkpt>
<trkpt lat="46.47762199" lon="8.42771597"><ele>2146.362061</ele><time>2007-07-25T12:34:01Z</time></trkpt>
<trkpt lat="46.47752803" lon="8.42813197"><ele>2142.289063</ele><time>2007-07-25T12:34:03Z</time></trkpt>
<trkpt lat="46.47738696" lon="8.42876304"><ele>2137.866943</ele><time>2007-07-25T12:34:06Z</time></trkpt>
<trkpt lat="46.47731898" lon="8.42920200"><ele>2133.337891</ele><time>2007-07-25T12:34:08Z</time></trkpt>
<trkpt lat="46.47725402" lon="8.42964004"><ele>2129.790039</ele><time>2007-07-25T12:34:10Z</time></trkpt>
<trkpt lat="46.47716098" lon="8.43004396"><ele>2126.731934</ele><time>2007-07-25T12:34:12Z</time></trkpt>
<trkpt lat="46.47705001" lon="8.43040003"><ele>2125.214111</ele><time>2007-07-25T12:34:14Z</time></trkpt>
<trkpt lat="46.47684197" lon="8.43103001"><ele>2122.211914</ele><time>2007-07-25T12:34:18Z</time></trkpt>
<trkpt lat="46.47675203" lon="8.43131399"><ele>2120.697998</ele><time>2007-07-25T12:34:20Z</time></trkpt>
<trkpt lat="46.47668699" lon="8.43187901"><ele>2116.209961</ele><time>2007-07-25T12:34:24Z</time></trkpt>
<trkpt lat="46.47671398" lon="8.43227204"><ele>2116.311035</ele><time>2007-07-25T12:34:27Z</time></trkpt>
<trkpt lat="46.47654198" lon="8.43243498"><ele>2115.906006</ele><time>2007-07-25T12:34:32Z</time></trkpt>
<trkpt lat="46.47650401" lon="8.43224396"><ele>2114.322021</ele><time>2007-07-25T12:34:34Z</time></trkpt>
<trkpt lat="46.47646202" lon="8.43176602"><ele>2109.833008</ele><time>2007-07-25T12:34:38Z</time></trkpt>
<trkpt lat="46.47642396" lon="8.43133000"><ele>2105.604004</ele><time>2007-07-25T12:34:41Z</time></trkpt>
<trkpt lat="46.47638398" lon="8.43083002"><ele>2101.833984</ele><time>2007-07-25T12:34:44Z</time></trkpt>
<trkpt lat="46.47634601" lon="8.43027103"><ele>2097.278076</ele><time>2007-07-25T12:34:47Z</time></trkpt>
<trkpt lat="46.47633403" lon="8.42987398"><ele>2093.437988</ele><time>2007-07-25T12:34:49Z</time></trkpt>
<trkpt lat="46.47633696" lon="8.42924701"><ele>2087.520996</ele><time>2007-07-25T12:34:52Z</time></trkpt>
<trkpt lat="46.47634400" lon="8.42880998"><ele>2083.641113</ele><time>2007-07-25T12:34:54Z</time></trkpt>
<trkpt lat="46.47636596" lon="8.42813700"><ele>2079.178955</ele><time>2007-07-25T12:34:57Z</time></trkpt>
<trkpt lat="46.47639404" lon="8.42768102"><ele>2075.736084</ele><time>2007-07-25T12:34:59Z</time></trkpt>
<trkpt lat="46.47640997" lon="8.42721700"><ele>2072.75</ele><time>2007-07-25T12:35:01Z</time></trkpt>
<trkpt lat="46.47634501" lon="8.42651501"><ele>2066.389893</ele><time>2007-07-25T12:35:04Z</time></trkpt>
<trkpt lat="46.47625197" lon="8.42605996"><ele>2063.344971</ele><time>2007-07-25T12:35:06Z</time></trkpt>
<trkpt lat="46.47613001" lon="8.42535999"><ele>2059.042969</ele><time>2007-07-25T12:35:09Z</time></trkpt>
<trkpt lat="46.47605902" lon="8.42465096"><ele>2055.447021</ele><time>2007-07-25T12:35:12Z</time></trkpt>
<trkpt lat="46.47598500" lon="8.42420798"><ele>2053.273926</ele><time>2007-07-25T12:35:14Z</time></trkpt>
<trkpt lat="46.47557999" lon="8.42354103"><ele>2050.278076</ele><time>2007-07-25T12:35:19Z</time></trkpt>
<trkpt lat="46.47511798" lon="8.42353701"><ele>2047.234985</ele><time>2007-07-25T12:35:23Z</time></trkpt>
<trkpt lat="46.47500399" lon="8.42359903"><ele>2045.775024</ele><time>2007-07-25T12:35:24Z</time></trkpt>
<trkpt lat="46.47465697" lon="8.42383297"><ele>2040.415039</ele><time>2007-07-25T12:35:27Z</time></trkpt>
<trkpt lat="46.47453904" lon="8.42391604"><ele>2040.136963</ele><time>2007-07-25T12:35:28Z</time></trkpt>
<trkpt lat="46.47429697" lon="8.42408996"><ele>2036.916016</ele><time>2007-07-25T12:35:30Z</time></trkpt>
<trkpt lat="46.47405297" lon="8.42428803"><ele>2033.146973</ele><time>2007-07-25T12:35:32Z</time></trkpt>
<trkpt lat="46.47381904" lon="8.42452599"><ele>2029.406982</ele><time>2007-07-25T12:35:34Z</time></trkpt>
<trkpt lat="46.47347798" lon="8.42492597"><ele>2024.704956</ele><time>2007-07-25T12:35:37Z</time></trkpt>
<trkpt lat="46.47323901" lon="8.42515899"><ele>2021.506958</ele><time>2007-07-25T12:35:39Z</time></trkpt>
<trkpt lat="46.47291002" lon="8.42536996"><ele>2021.296021</ele><time>2007-07-25T12:35:42Z</time></trkpt>
<trkpt lat="46.47279401" lon="8.42575301"><ele>2021.385986</ele><time>2007-07-25T12:35:47Z</time></trkpt>
<trkpt lat="46.47296299" lon="8.42578403"><ele>2022.235962</ele><time>2007-07-25T12:35:53Z</time></trkpt>
<trkpt lat="46.47301597" lon="8.42577799"><ele>2026.479004</ele><time>2007-07-25T12:36:05Z</time></trkpt>
<trkpt lat="46.47301798" lon="8.42577799"><ele>2022.192017</ele><time>2007-07-25T12:36:06Z</time></trkpt>
<trkpt lat="46.47321504" lon="8.42566903"><ele>2019.161011</ele><time>2007-07-25T12:36:13Z</time></trkpt>
<trkpt lat="46.47341997" lon="8.42557398"><ele>2015.895996</ele><time>2007-07-25T12:36:16Z</time></trkpt>
<trkpt lat="46.47359096" lon="8.42552897"><ele>2013.962036</ele><time>2007-07-25T12:36:18Z</time></trkpt>
<trkpt lat="46.47398399" lon="8.42564003"><ele>2009.317017</ele><time>2007-07-25T12:36:22Z</time></trkpt>
<trkpt lat="46.47415800" lon="8.42584999"><ele>2005.520996</ele><time>2007-07-25T12:36:24Z</time></trkpt>
<trkpt lat="46.47431399" lon="8.42632500"><ele>2001.109009</ele><time>2007-07-25T12:36:27Z</time></trkpt>
<trkpt lat="46.47440703" lon="8.42687703"><ele>1995.972046</ele><time>2007-07-25T12:36:30Z</time></trkpt>
<trkpt lat="46.47448900" lon="8.42745999"><ele>1991.484009</ele><time>2007-07-25T12:36:33Z</time></trkpt>
<trkpt lat="46.47452999" lon="8.42807002"><ele>1987.21106</ele><time>2007-07-25T12:36:36Z</time></trkpt>
<trkpt lat="46.47451800" lon="8.42848702"><ele>1984.035034</ele><time>2007-07-25T12:36:38Z</time></trkpt>
<trkpt lat="46.47447400" lon="8.42890796"><ele>1981.034058</ele><time>2007-07-25T12:36:40Z</time></trkpt>
<trkpt lat="46.47439898" lon="8.42932303"><ele>1976.723999</ele><time>2007-07-25T12:36:42Z</time></trkpt>
<trkpt lat="46.47430502" lon="8.42972998"><ele>1975.522949</ele><time>2007-07-25T12:36:44Z</time></trkpt>
<trkpt lat="46.47425699" lon="8.42993097"><ele>1971.093018</ele><time>2007-07-25T12:36:45Z</time></trkpt>
<trkpt lat="46.47411400" lon="8.43052701"><ele>1967.409058</ele><time>2007-07-25T12:36:48Z</time></trkpt>
<trkpt lat="46.47407100" lon="8.43073002"><ele>1967.402954</ele><time>2007-07-25T12:36:49Z</time></trkpt>
<trkpt lat="46.47400998" lon="8.43113604"><ele>1963.989014</ele><time>2007-07-25T12:36:51Z</time></trkpt>
<trkpt lat="46.47397804" lon="8.43154600"><ele>1960.828003</ele><time>2007-07-25T12:36:53Z</time></trkpt>
<trkpt lat="46.47396999" lon="8.43175203"><ele>1960.71106</ele><time>2007-07-25T12:36:54Z</time></trkpt>
<trkpt lat="46.47395801" lon="8.43216198"><ele>1956.177002</ele><time>2007-07-25T12:36:56Z</time></trkpt>
<trkpt lat="46.47392297" lon="8.43277403"><ele>1950.81897</ele><time>2007-07-25T12:36:59Z</time></trkpt>
<trkpt lat="46.47374704" lon="8.43373602"><ele>1947.162964</ele><time>2007-07-25T12:37:04Z</time></trkpt>
<trkpt lat="46.47352600" lon="8.43477898"><ele>1943.994995</ele><time>2007-07-25T12:37:10Z</time></trkpt>
<trkpt lat="46.47350304" lon="8.43494704"><ele>1943.807983</ele><time>2007-07-25T12:37:11Z</time></trkpt>
<trkpt lat="46.47344504" lon="8.43576402"><ele>1940.328003</ele><time>2007-07-25T12:37:16Z</time></trkpt>
<trkpt lat="46.47344101" lon="8.43666801"><ele>1937.823975</ele><time>2007-07-25T12:37:22Z</time></trkpt>
<trkpt lat="46.47344202" lon="8.43738399"><ele>1935.785034</ele><time>2007-07-25T12:37:27Z</time></trkpt>
<trkpt lat="46.47343900" lon="8.43809796"><ele>1933.313965</ele><time>2007-07-25T12:37:32Z</time></trkpt>
<trkpt lat="46.47343799" lon="8.43867397"><ele>1931.245972</ele><time>2007-07-25T12:37:36Z</time></trkpt>
<trkpt lat="46.47344101" lon="8.43971400"><ele>1927.029053</ele><time>2007-07-25T12:37:43Z</time></trkpt>
<trkpt lat="46.47346800" lon="8.44019101"><ele>1922.905029</ele><time>2007-07-25T12:37:46Z</time></trkpt>
<trkpt lat="46.47352600" lon="8.44068001"><ele>1919.57605</ele><time>2007-07-25T12:37:49Z</time></trkpt>
<trkpt lat="46.47361997" lon="8.44133900"><ele>1915.746948</ele><time>2007-07-25T12:37:53Z</time></trkpt>
<trkpt lat="46.47369498" lon="8.44200703"><ele>1912.333984</ele><time>2007-07-25T12:37:57Z</time></trkpt>
<trkpt lat="46.47369398" lon="8.44285696"><ele>1908.552979</ele><time>2007-07-25T12:38:02Z</time></trkpt>
<trkpt lat="46.47367202" lon="8.44320003"><ele>1905.427002</ele><time>2007-07-25T12:38:04Z</time></trkpt>
<trkpt lat="46.47363799" lon="8.44370596"><ele>1902.375</ele><time>2007-07-25T12:38:07Z</time></trkpt>
<trkpt lat="46.47360303" lon="8.44420100"><ele>1899.237061</ele><time>2007-07-25T12:38:10Z</time></trkpt>
<trkpt lat="46.47356498" lon="8.44470802"><ele>1895.94397</ele><time>2007-07-25T12:38:13Z</time></trkpt>
<trkpt lat="46.47353003" lon="8.44523599"><ele>1892.057983</ele><time>2007-07-25T12:38:16Z</time></trkpt>
<trkpt lat="46.47352098" lon="8.44578099"><ele>1887.714966</ele><time>2007-07-25T12:38:19Z</time></trkpt>
<trkpt lat="46.47358401" lon="8.44633000"><ele>1883.578979</ele><time>2007-07-25T12:38:22Z</time></trkpt>
<trkpt lat="46.47374201" lon="8.44685102"><ele>1879.994019</ele><time>2007-07-25T12:38:25Z</time></trkpt>
<trkpt lat="46.47396899" lon="8.44732904"><ele>1876.552979</ele><time>2007-07-25T12:38:28Z</time></trkpt>
<trkpt lat="46.47414803" lon="8.44763003"><ele>1873.479004</ele><time>2007-07-25T12:38:30Z</time></trkpt>
<trkpt lat="46.47434098" lon="8.44792399"><ele>1867.953003</ele><time>2007-07-25T12:38:32Z</time></trkpt>
<trkpt lat="46.47462999" lon="8.44838298"><ele>1863.692017</ele><time>2007-07-25T12:38:35Z</time></trkpt>
<trkpt lat="46.47481296" lon="8.44871297"><ele>1860.552979</ele><time>2007-07-25T12:38:37Z</time></trkpt>
<trkpt lat="46.47498596" lon="8.44905797"><ele>1857.312988</ele><time>2007-07-25T12:38:39Z</time></trkpt>
<trkpt lat="46.47527698" lon="8.44969299"><ele>1854.160034</ele><time>2007-07-25T12:38:43Z</time></trkpt>
<trkpt lat="46.47549802" lon="8.45015500"><ele>1853.177002</ele><time>2007-07-25T12:38:47Z</time></trkpt>
<trkpt lat="46.47544898" lon="8.45045096"><ele>1852.10498</ele><time>2007-07-25T12:38:53Z</time></trkpt>
<trkpt lat="46.47539299" lon="8.45038097"><ele>1851.390991</ele><time>2007-07-25T12:38:54Z</time></trkpt>
<trkpt lat="46.47521001" lon="8.45016003"><ele>1849.745972</ele><time>2007-07-25T12:38:57Z</time></trkpt>
<trkpt lat="46.47488303" lon="8.44993204"><ele>1845.70105</ele><time>2007-07-25T12:39:01Z</time></trkpt>
<trkpt lat="46.47458799" lon="8.44979097"><ele>1842.222046</ele><time>2007-07-25T12:39:04Z</time></trkpt>
<trkpt lat="46.47433301" lon="8.44967899"><ele>1841.071045</ele><time>2007-07-25T12:39:07Z</time></trkpt>
<trkpt lat="46.47409396" lon="8.45007202"><ele>1838.866943</ele><time>2007-07-25T12:39:13Z</time></trkpt>
<trkpt lat="46.47428197" lon="8.45022096"><ele>1836.713013</ele><time>2007-07-25T12:39:16Z</time></trkpt>
<trkpt lat="46.47445397" lon="8.45034703"><ele>1835.161011</ele><time>2007-07-25T12:39:18Z</time></trkpt>
<trkpt lat="46.47468899" lon="8.45065297"><ele>1829.386963</ele><time>2007-07-25T12:39:21Z</time></trkpt>
<trkpt lat="46.47475798" lon="8.45078196"><ele>1828.06897</ele><time>2007-07-25T12:39:22Z</time></trkpt>
<trkpt lat="46.47495897" lon="8.45121204"><ele>1822.718994</ele><time>2007-07-25T12:39:25Z</time></trkpt>
<trkpt lat="46.47520599" lon="8.45162803"><ele>1819.53894</ele><time>2007-07-25T12:39:28Z</time></trkpt>
<trkpt lat="46.47540900" lon="8.45187597"><ele>1815.750977</ele><time>2007-07-25T12:39:30Z</time></trkpt>
<trkpt lat="46.47563104" lon="8.45210899"><ele>1812.389038</ele><time>2007-07-25T12:39:32Z</time></trkpt>
<trkpt lat="46.47585500" lon="8.45234502"><ele>1808.410034</ele><time>2007-07-25T12:39:34Z</time></trkpt>
<trkpt lat="46.47606597" lon="8.45260704"><ele>1805.281982</ele><time>2007-07-25T12:39:36Z</time></trkpt>
<trkpt lat="46.47616102" lon="8.45275498"><ele>1803.665039</ele><time>2007-07-25T12:39:37Z</time></trkpt>
<trkpt lat="46.47645003" lon="8.45344800"><ele>1798.170044</ele><time>2007-07-25T12:39:41Z</time></trkpt>
<trkpt lat="46.47660803" lon="8.45402199"><ele>1792.500977</ele><time>2007-07-25T12:39:44Z</time></trkpt>
<trkpt lat="46.47678799" lon="8.45458299"><ele>1788.619019</ele><time>2007-07-25T12:39:47Z</time></trkpt>
<trkpt lat="46.47695504" lon="8.45494098"><ele>1785.421997</ele><time>2007-07-25T12:39:49Z</time></trkpt>
<trkpt lat="46.47732401" lon="8.45540802"><ele>1781.753052</ele><time>2007-07-25T12:39:52Z</time></trkpt>
<trkpt lat="46.47754102" lon="8.45572301"><ele>1778.233032</ele><time>2007-07-25T12:39:54Z</time></trkpt>
<trkpt lat="46.47784797" lon="8.45620799"><ele>1774.067993</ele><time>2007-07-25T12:39:57Z</time></trkpt>
<trkpt lat="46.47804301" lon="8.45654796"><ele>1770.524048</ele><time>2007-07-25T12:39:59Z</time></trkpt>
<trkpt lat="46.47813404" lon="8.45672700"><ele>1768.930054</ele><time>2007-07-25T12:40:00Z</time></trkpt>
<trkpt lat="46.47834401" lon="8.45731599"><ele>1763.561035</ele><time>2007-07-25T12:40:03Z</time></trkpt>
<trkpt lat="46.47844501" lon="8.45773299"><ele>1760.092041</ele><time>2007-07-25T12:40:05Z</time></trkpt>
<trkpt lat="46.47853796" lon="8.45814899"><ele>1756.962036</ele><time>2007-07-25T12:40:07Z</time></trkpt>
<trkpt lat="46.47863704" lon="8.45856196"><ele>1753.281982</ele><time>2007-07-25T12:40:09Z</time></trkpt>
<trkpt lat="46.47876402" lon="8.45895801"><ele>1749.984985</ele><time>2007-07-25T12:40:11Z</time></trkpt>
<trkpt lat="46.47892596" lon="8.45932597"><ele>1746.562988</ele><time>2007-07-25T12:40:13Z</time></trkpt>
<trkpt lat="46.47925001" lon="8.45978698"><ele>1742.395996</ele><time>2007-07-25T12:40:16Z</time></trkpt>
<trkpt lat="46.47950398" lon="8.46003399"><ele>1739.526001</ele><time>2007-07-25T12:40:18Z</time></trkpt>
<trkpt lat="46.48042096" lon="8.46081099"><ele>1731.524048</ele><time>2007-07-25T12:40:25Z</time></trkpt>
<trkpt lat="46.48080602" lon="8.46145397"><ele>1725.588989</ele><time>2007-07-25T12:40:29Z</time></trkpt>
<trkpt lat="46.48087501" lon="8.46163703"><ele>1725.588989</ele><time>2007-07-25T12:40:30Z</time></trkpt>
<trkpt lat="46.48093401" lon="8.46182504"><ele>1720.745972</ele><time>2007-07-25T12:40:31Z</time></trkpt>
<trkpt lat="46.48111800" lon="8.46257698"><ele>1716.19104</ele><time>2007-07-25T12:40:35Z</time></trkpt>
<trkpt lat="46.48135101" lon="8.46328399"><ele>1712.786987</ele><time>2007-07-25T12:40:39Z</time></trkpt>
<trkpt lat="46.48171596" lon="8.46386100"><ele>1708.000977</ele><time>2007-07-25T12:40:43Z</time></trkpt>
<trkpt lat="46.48203800" lon="8.46423299"><ele>1704.745972</ele><time>2007-07-25T12:40:46Z</time></trkpt>
<trkpt lat="46.48236204" lon="8.46461898"><ele>1701.676025</ele><time>2007-07-25T12:40:49Z</time></trkpt>
<trkpt lat="46.48255600" lon="8.46491000"><ele>1698.383057</ele><time>2007-07-25T12:40:51Z</time></trkpt>
<trkpt lat="46.48264199" lon="8.46507101"><ele>1697.329956</ele><time>2007-07-25T12:40:52Z</time></trkpt>
<trkpt lat="46.48286697" lon="8.46581600"><ele>1692.77002</ele><time>2007-07-25T12:40:56Z</time></trkpt>
<trkpt lat="46.48289303" lon="8.46622302"><ele>1688.83606</ele><time>2007-07-25T12:40:58Z</time></trkpt>
<trkpt lat="46.48288800" lon="8.46642503"><ele>1687.458984</ele><time>2007-07-25T12:40:59Z</time></trkpt>
<trkpt lat="46.48285397" lon="8.46703900"><ele>1683.479004</ele><time>2007-07-25T12:41:02Z</time></trkpt>
<trkpt lat="46.48284702" lon="8.46744100"><ele>1681.531982</ele><time>2007-07-25T12:41:04Z</time></trkpt>
<trkpt lat="46.48285297" lon="8.46763697"><ele>1680.456055</ele><time>2007-07-25T12:41:05Z</time></trkpt>
<trkpt lat="46.48304801" lon="8.46853802"><ele>1674.338989</ele><time>2007-07-25T12:41:10Z</time></trkpt>
<trkpt lat="46.48312697" lon="8.46868998"><ele>1674.043945</ele><time>2007-07-25T12:41:11Z</time></trkpt>
<trkpt lat="46.48339997" lon="8.46907203"><ele>1671.602051</ele><time>2007-07-25T12:41:14Z</time></trkpt>
<trkpt lat="46.48360600" lon="8.46927403"><ele>1670.384033</ele><time>2007-07-25T12:41:16Z</time></trkpt>
<trkpt lat="46.48405502" lon="8.46961099"><ele>1666.17395</ele><time>2007-07-25T12:41:20Z</time></trkpt>
<trkpt lat="46.48428703" lon="8.46977603"><ele>1662.813965</ele><time>2007-07-25T12:41:22Z</time></trkpt>
<trkpt lat="46.48462096" lon="8.47006403"><ele>1660.795044</ele><time>2007-07-25T12:41:25Z</time></trkpt>
<trkpt lat="46.48472297" lon="8.47018003"><ele>1659.55896</ele><time>2007-07-25T12:41:26Z</time></trkpt>
<trkpt lat="46.48503100" lon="8.47077004"><ele>1654.709961</ele><time>2007-07-25T12:41:30Z</time></trkpt>
<trkpt lat="46.48508498" lon="8.47094203"><ele>1652.667969</ele><time>2007-07-25T12:41:31Z</time></trkpt>
<trkpt lat="46.48527299" lon="8.47163899"><ele>1649.897949</ele><time>2007-07-25T12:41:35Z</time></trkpt>
<trkpt lat="46.48572603" lon="8.47345702"><ele>1647.16394</ele><time>2007-07-25T12:41:47Z</time></trkpt>
<trkpt lat="46.48625996" lon="8.47451599"><ele>1645.456055</ele><time>2007-07-25T12:41:57Z</time></trkpt>
<trkpt lat="46.48632299" lon="8.47460400"><ele>1645.31604</ele><time>2007-07-25T12:41:58Z</time></trkpt>
<trkpt lat="46.48711500" lon="8.47567496"><ele>1642.28894</ele><time>2007-07-25T12:42:10Z</time></trkpt>
<trkpt lat="46.48743804" lon="8.47657601"><ele>1640.281006</ele><time>2007-07-25T12:42:18Z</time></trkpt>
<trkpt lat="46.48752697" lon="8.47711497"><ele>1636.645996</ele><time>2007-07-25T12:42:22Z</time></trkpt>
<trkpt lat="46.48758397" lon="8.47756097"><ele>1633.479004</ele><time>2007-07-25T12:42:25Z</time></trkpt>
<trkpt lat="46.48772696" lon="8.47818702"><ele>1629.884033</ele><time>2007-07-25T12:42:29Z</time></trkpt>
<trkpt lat="46.48792000" lon="8.47863897"><ele>1625.147949</ele><time>2007-07-25T12:42:32Z</time></trkpt>
<trkpt lat="46.48807397" lon="8.47893703"><ele>1622.024048</ele><time>2007-07-25T12:42:34Z</time></trkpt>
<trkpt lat="46.48823298" lon="8.47924397"><ele>1618.833984</ele><time>2007-07-25T12:42:36Z</time></trkpt>
<trkpt lat="46.48840003" lon="8.47955603"><ele>1615.41394</ele><time>2007-07-25T12:42:38Z</time></trkpt>
<trkpt lat="46.48856699" lon="8.47987496"><ele>1611.77002</ele><time>2007-07-25T12:42:40Z</time></trkpt>
<trkpt lat="46.48882097" lon="8.48035701"><ele>1608.633057</ele><time>2007-07-25T12:42:43Z</time></trkpt>
<trkpt lat="46.48908198" lon="8.48084902"><ele>1604.197021</ele><time>2007-07-25T12:42:46Z</time></trkpt>
<trkpt lat="46.48925104" lon="8.48118396"><ele>1600.531982</ele><time>2007-07-25T12:42:48Z</time></trkpt>
<trkpt lat="46.48946403" lon="8.48172401"><ele>1596.680054</ele><time>2007-07-25T12:42:51Z</time></trkpt>
<trkpt lat="46.48963502" lon="8.48229700"><ele>1593.404053</ele><time>2007-07-25T12:42:54Z</time></trkpt>
<trkpt lat="46.48980701" lon="8.48287904"><ele>1589.552979</ele><time>2007-07-25T12:42:57Z</time></trkpt>
<trkpt lat="46.48992000" lon="8.48327701"><ele>1585.723999</ele><time>2007-07-25T12:42:59Z</time></trkpt>
<trkpt lat="46.49004498" lon="8.48367498"><ele>1582.097046</ele><time>2007-07-25T12:43:01Z</time></trkpt>
<trkpt lat="46.49021999" lon="8.48427798"><ele>1578.293945</ele><time>2007-07-25T12:43:04Z</time></trkpt>
<trkpt lat="46.49040297" lon="8.48485599"><ele>1575.608032</ele><time>2007-07-25T12:43:07Z</time></trkpt>
<trkpt lat="46.49080597" lon="8.48621101"><ele>1572.016968</ele><time>2007-07-25T12:43:15Z</time></trkpt>
<trkpt lat="46.49112398" lon="8.48722598"><ele>1568.506958</ele><time>2007-07-25T12:43:22Z</time></trkpt>
<trkpt lat="46.49135800" lon="8.48804003"><ele>1565.73999</ele><time>2007-07-25T12:43:28Z</time></trkpt>
<trkpt lat="46.49156503" lon="8.48874302"><ele>1562.160034</ele><time>2007-07-25T12:43:33Z</time></trkpt>
<trkpt lat="46.49167299" lon="8.48903001"><ele>1559.042969</ele><time>2007-07-25T12:43:35Z</time></trkpt>
<trkpt lat="46.49181004" lon="8.48930402"><ele>1555.973999</ele><time>2007-07-25T12:43:37Z</time></trkpt>
<trkpt lat="46.49207097" lon="8.48967399"><ele>1552.525024</ele><time>2007-07-25T12:43:40Z</time></trkpt>
<trkpt lat="46.49238604" lon="8.48999703"><ele>1549.199951</ele><time>2007-07-25T12:43:43Z</time></trkpt>
<trkpt lat="46.49272702" lon="8.49031999"><ele>1544.267944</ele><time>2007-07-25T12:43:46Z</time></trkpt>
<trkpt lat="46.49296196" lon="8.49054303"><ele>1540.640015</ele><time>2007-07-25T12:43:48Z</time></trkpt>
<trkpt lat="46.49337402" lon="8.49107997"><ele>1537.166016</ele><time>2007-07-25T12:43:52Z</time></trkpt>
<trkpt lat="46.49369999" lon="8.49171599"><ele>1533.468994</ele><time>2007-07-25T12:43:56Z</time></trkpt>
<trkpt lat="46.49407499" lon="8.49222997"><ele>1529.843018</ele><time>2007-07-25T12:44:00Z</time></trkpt>
<trkpt lat="46.49439200" lon="8.49251898"><ele>1528.302979</ele><time>2007-07-25T12:44:03Z</time></trkpt>
<trkpt lat="46.49512198" lon="8.49350897"><ele>1526.967041</ele><time>2007-07-25T12:44:12Z</time></trkpt>
<trkpt lat="46.49556798" lon="8.49421103"><ele>1523.781006</ele><time>2007-07-25T12:44:19Z</time></trkpt>
<trkpt lat="46.49580100" lon="8.49468797"><ele>1520.437988</ele><time>2007-07-25T12:44:23Z</time></trkpt>
<trkpt lat="46.49600702" lon="8.49523002"><ele>1517.359985</ele><time>2007-07-25T12:44:27Z</time></trkpt>
<trkpt lat="46.49616402" lon="8.49563202"><ele>1514.156006</ele><time>2007-07-25T12:44:30Z</time></trkpt>
<trkpt lat="46.49637499" lon="8.49618900"><ele>1510.942017</ele><time>2007-07-25T12:44:34Z</time></trkpt>
<trkpt lat="46.49704898" lon="8.49771098"><ele>1507.447021</ele><time>2007-07-25T12:44:47Z</time></trkpt>
<trkpt lat="46.49719700" lon="8.49805104"><ele>1504.328003</ele><time>2007-07-25T12:44:50Z</time></trkpt>
<trkpt lat="46.49728300" lon="8.49830098"><ele>1503.687012</ele><time>2007-07-25T12:44:52Z</time></trkpt>
<trkpt lat="46.49738098" lon="8.49872896"><ele>1499.979004</ele><time>2007-07-25T12:44:55Z</time></trkpt>
<trkpt lat="46.49741904" lon="8.49904899"><ele>1496.666016</ele><time>2007-07-25T12:44:57Z</time></trkpt>
<trkpt lat="46.49743102" lon="8.49938996"><ele>1493.256958</ele><time>2007-07-25T12:44:59Z</time></trkpt>
<trkpt lat="46.49742700" lon="8.49993504"><ele>1488.646973</ele><time>2007-07-25T12:45:02Z</time></trkpt>
<trkpt lat="46.49747201" lon="8.50050903"><ele>1484.672974</ele><time>2007-07-25T12:45:05Z</time></trkpt>
<trkpt lat="46.49754896" lon="8.50089703"><ele>1481.06897</ele><time>2007-07-25T12:45:07Z</time></trkpt>
<trkpt lat="46.49766999" lon="8.50126700"><ele>1477.727051</ele><time>2007-07-25T12:45:09Z</time></trkpt>
<trkpt lat="46.49783000" lon="8.50160899"><ele>1474.626953</ele><time>2007-07-25T12:45:11Z</time></trkpt>
<trkpt lat="46.49792497" lon="8.50176598"><ele>1473.275024</ele><time>2007-07-25T12:45:12Z</time></trkpt>
<trkpt lat="46.49825798" lon="8.50216404"><ele>1468.646973</ele><time>2007-07-25T12:45:15Z</time></trkpt>
<trkpt lat="46.49865503" lon="8.50243997"><ele>1464.696045</ele><time>2007-07-25T12:45:18Z</time></trkpt>
<trkpt lat="46.49879602" lon="8.50250199"><ele>1462.938965</ele><time>2007-07-25T12:45:19Z</time></trkpt>
<trkpt lat="46.49922500" lon="8.50265203"><ele>1457.188965</ele><time>2007-07-25T12:45:22Z</time></trkpt>
<trkpt lat="46.49976798" lon="8.50284699"><ele>1454.194946</ele><time>2007-07-25T12:45:26Z</time></trkpt>
<trkpt lat="46.50026998" lon="8.50308697"><ele>1450.983032</ele><time>2007-07-25T12:45:30Z</time></trkpt>
<trkpt lat="46.50039302" lon="8.50316601"><ele>1450.707031</ele><time>2007-07-25T12:45:31Z</time></trkpt>
<trkpt lat="46.50104396" lon="8.50376699"><ele>1447.603027</ele><time>2007-07-25T12:45:37Z</time></trkpt>
<trkpt lat="46.50137404" lon="8.50428902"><ele>1444.411011</ele><time>2007-07-25T12:45:41Z</time></trkpt>
<trkpt lat="46.50166699" lon="8.50483702"><ele>1441.011963</ele><time>2007-07-25T12:45:45Z</time></trkpt>
<trkpt lat="46.50202900" lon="8.50549802"><ele>1437.843994</ele><time>2007-07-25T12:45:50Z</time></trkpt>
<trkpt lat="46.50251398" lon="8.50641098"><ele>1434.421021</ele><time>2007-07-25T12:45:57Z</time></trkpt>
<trkpt lat="46.50289301" lon="8.50706703"><ele>1430.661011</ele><time>2007-07-25T12:46:02Z</time></trkpt>
<trkpt lat="46.50314899" lon="8.50762803"><ele>1427.973999</ele><time>2007-07-25T12:46:06Z</time></trkpt>
<trkpt lat="46.50336198" lon="8.50821401"><ele>1424.052002</ele><time>2007-07-25T12:46:10Z</time></trkpt>
<trkpt lat="46.50367596" lon="8.50903996"><ele>1420.958008</ele><time>2007-07-25T12:46:16Z</time></trkpt>
<trkpt lat="46.50383698" lon="8.50941698"><ele>1419.452026</ele><time>2007-07-25T12:46:19Z</time></trkpt>
<trkpt lat="46.50413898" lon="8.51012299"><ele>1416.396973</ele><time>2007-07-25T12:46:25Z</time></trkpt>
<trkpt lat="46.50462697" lon="8.51122001"><ele>1413.240967</ele><time>2007-07-25T12:46:35Z</time></trkpt>
<trkpt lat="46.50467701" lon="8.51133099"><ele>1413.093018</ele><time>2007-07-25T12:46:36Z</time></trkpt>
<trkpt lat="46.50534203" lon="8.51278399"><ele>1410.014038</ele><time>2007-07-25T12:46:49Z</time></trkpt>
<trkpt lat="46.50577102" lon="8.51390004"><ele>1406.743042</ele><time>2007-07-25T12:46:58Z</time></trkpt>
<trkpt lat="46.50583497" lon="8.51418100"><ele>1405.469971</ele><time>2007-07-25T12:47:00Z</time></trkpt>
<trkpt lat="46.50606799" lon="8.51545799"><ele>1401.578003</ele><time>2007-07-25T12:47:09Z</time></trkpt>
<trkpt lat="46.50609397" lon="8.51560601"><ele>1401.386963</ele><time>2007-07-25T12:47:10Z</time></trkpt>
<trkpt lat="46.50623303" lon="8.51638603"><ele>1397.561035</ele><time>2007-07-25T12:47:15Z</time></trkpt>
<trkpt lat="46.50632699" lon="8.51687101"><ele>1394.560059</ele><time>2007-07-25T12:47:18Z</time></trkpt>
<trkpt lat="46.50636496" lon="8.51703102"><ele>1394.303955</ele><time>2007-07-25T12:47:19Z</time></trkpt>
<trkpt lat="46.50650502" lon="8.51750099"><ele>1390.807983</ele><time>2007-07-25T12:47:22Z</time></trkpt>
<trkpt lat="46.50668004" lon="8.51793903"><ele>1388.140991</ele><time>2007-07-25T12:47:25Z</time></trkpt>
<trkpt lat="46.50732997" lon="8.51942103"><ele>1384.233032</ele><time>2007-07-25T12:47:36Z</time></trkpt>
<trkpt lat="46.50749803" lon="8.51980903"><ele>1382.599976</ele><time>2007-07-25T12:47:39Z</time></trkpt>
<trkpt lat="46.50799197" lon="8.52103497"><ele>1379.36499</ele><time>2007-07-25T12:47:49Z</time></trkpt>
<trkpt lat="46.50858399" lon="8.52254204"><ele>1375.88501</ele><time>2007-07-25T12:48:01Z</time></trkpt>
<trkpt lat="46.50890401" lon="8.52335701"><ele>1372.540039</ele><time>2007-07-25T12:48:07Z</time></trkpt>
<trkpt lat="46.50917399" lon="8.52464799"><ele>1369.483032</ele><time>2007-07-25T12:48:16Z</time></trkpt>
<trkpt lat="46.50925596" lon="8.52639796"><ele>1367.552979</ele><time>2007-07-25T12:48:29Z</time></trkpt>
<trkpt lat="46.50948403" lon="8.52709500"><ele>1364.814941</ele><time>2007-07-25T12:48:35Z</time></trkpt>
<trkpt lat="46.50975502" lon="8.52814601"><ele>1363.671997</ele><time>2007-07-25T12:48:44Z</time></trkpt>
<trkpt lat="46.50995904" lon="8.52882100"><ele>1361.640015</ele><time>2007-07-25T12:48:50Z</time></trkpt>
<trkpt lat="46.51060503" lon="8.53017502"><ele>1360.125</ele><time>2007-07-25T12:49:05Z</time></trkpt>
<trkpt lat="46.51088197" lon="8.53083601"><ele>1358.89502</ele><time>2007-07-25T12:49:12Z</time></trkpt>
<trkpt lat="46.51100401" lon="8.53125201"><ele>1359.291016</ele><time>2007-07-25T12:49:16Z</time></trkpt>
<trkpt lat="46.51108598" lon="8.53218298"><ele>1357.890015</ele><time>2007-07-25T12:49:24Z</time></trkpt>
<trkpt lat="46.51116502" lon="8.53310600"><ele>1355.563965</ele><time>2007-07-25T12:49:32Z</time></trkpt>
<trkpt lat="46.51119998" lon="8.53422096"><ele>1355.866943</ele><time>2007-07-25T12:49:42Z</time></trkpt>
<trkpt lat="46.51129603" lon="8.53463402"><ele>1355.212036</ele><time>2007-07-25T12:49:46Z</time></trkpt>
<trkpt lat="46.51189802" lon="8.53627997"><ele>1353.261963</ele><time>2007-07-25T12:50:03Z</time></trkpt>
<trkpt lat="46.51233003" lon="8.53794403"><ele>1349.906982</ele><time>2007-07-25T12:50:18Z</time></trkpt>
<trkpt lat="46.51306001" lon="8.53928296"><ele>1351.520996</ele><time>2007-07-25T12:50:34Z</time></trkpt>
<trkpt lat="46.51333703" lon="8.53983399"><ele>1351.396973</ele><time>2007-07-25T12:50:42Z</time></trkpt>
<trkpt lat="46.51341598" lon="8.54019499"><ele>1350.791992</ele><time>2007-07-25T12:50:46Z</time></trkpt>
<trkpt lat="46.51344499" lon="8.54159603"><ele>1349.063965</ele><time>2007-07-25T12:50:59Z</time></trkpt>
<trkpt lat="46.51346100" lon="8.54171304"><ele>1348.916016</ele><time>2007-07-25T12:51:00Z</time></trkpt>
<trkpt lat="46.51383701" lon="8.54354197"><ele>1345.567993</ele><time>2007-07-25T12:51:15Z</time></trkpt>
<trkpt lat="46.51411202" lon="8.54479800"><ele>1343.234985</ele><time>2007-07-25T12:51:25Z</time></trkpt>
<trkpt lat="46.51443698" lon="8.54542396"><ele>1341.563965</ele><time>2007-07-25T12:51:31Z</time></trkpt>
<trkpt lat="46.51511500" lon="8.54688099"><ele>1339.416992</ele><time>2007-07-25T12:51:45Z</time></trkpt>
<trkpt lat="46.51553200" lon="8.54826501"><ele>1336.427979</ele><time>2007-07-25T12:51:58Z</time></trkpt>
<trkpt lat="46.51633699" lon="8.55015404"><ele>1333.541992</ele><time>2007-07-25T12:52:16Z</time></trkpt>
<trkpt lat="46.51657596" lon="8.55186403"><ele>1330.656006</ele><time>2007-07-25T12:52:30Z</time></trkpt>
<trkpt lat="46.51680001" lon="8.55378097"><ele>1328.412964</ele><time>2007-07-25T12:52:47Z</time></trkpt>
<trkpt lat="46.51715599" lon="8.55577402"><ele>1325.797974</ele><time>2007-07-25T12:53:04Z</time></trkpt>
<trkpt lat="46.51712598" lon="8.55758501"><ele>1323.453979</ele><time>2007-07-25T12:53:18Z</time></trkpt>
<trkpt lat="46.51714400" lon="8.55771602"><ele>1323.187988</ele><time>2007-07-25T12:53:19Z</time></trkpt>
<trkpt lat="46.51728800" lon="8.55820402"><ele>1322.421021</ele><time>2007-07-25T12:53:23Z</time></trkpt>
<trkpt lat="46.51767500" lon="8.55876904"><ele>1320.355957</ele><time>2007-07-25T12:53:29Z</time></trkpt>
<trkpt lat="46.51796199" lon="8.55942903"><ele>1318.800049</ele><time>2007-07-25T12:53:35Z</time></trkpt>
<trkpt lat="46.51808999" lon="8.56005097"><ele>1317.678955</ele><time>2007-07-25T12:53:40Z</time></trkpt>
<trkpt lat="46.51825503" lon="8.56054801"><ele>1316.371948</ele><time>2007-07-25T12:53:44Z</time></trkpt>
<trkpt lat="46.51885903" lon="8.56207998"><ele>1316.963989</ele><time>2007-07-25T12:53:58Z</time></trkpt>
<trkpt lat="46.51923001" lon="8.56269898"><ele>1315.359985</ele><time>2007-07-25T12:54:05Z</time></trkpt>
<trkpt lat="46.51944802" lon="8.56365602"><ele>1316.26001</ele><time>2007-07-25T12:54:15Z</time></trkpt>
<trkpt lat="46.51943201" lon="8.56375501"><ele>1316.567017</ele><time>2007-07-25T12:54:16Z</time></trkpt>
<trkpt lat="46.51931902" lon="8.56425902"><ele>1315.83606</ele><time>2007-07-25T12:54:21Z</time></trkpt>
<trkpt lat="46.51938298" lon="8.56514297"><ele>1315.598022</ele><time>2007-07-25T12:54:30Z</time></trkpt>
<trkpt lat="46.51969797" lon="8.56654803"><ele>1316.499023</ele><time>2007-07-25T12:54:46Z</time></trkpt>
<trkpt lat="46.51970803" lon="8.56662699"><ele>1316.397949</ele><time>2007-07-25T12:54:47Z</time></trkpt>
<trkpt lat="46.51965799" lon="8.56683897"><ele>1317.602051</ele><time>2007-07-25T12:54:55Z</time></trkpt>
<trkpt lat="46.51964500" lon="8.56680502"><ele>1314.526978</ele><time>2007-07-25T12:56:55Z</time></trkpt>
<trkpt lat="46.51965396" lon="8.56680804"><ele>1311.484985</ele><time>2007-07-25T13:01:32Z</time></trkpt>
<trkpt lat="46.51961298" lon="8.56684802"><ele>1311.46106</ele><time>2007-07-25T13:02:57Z</time></trkpt>
<trkpt lat="46.51963502" lon="8.56689001"><ele>1310.993042</ele><time>2007-07-25T13:03:04Z</time></trkpt>
<trkpt lat="46.51970400" lon="8.56735102"><ele>1310.031982</ele><time>2007-07-25T13:03:15Z</time></trkpt>
<trkpt lat="46.51975396" lon="8.56761497"><ele>1309.392944</ele><time>2007-07-25T13:03:19Z</time></trkpt>
<trkpt lat="46.51983501" lon="8.56781797"><ele>1308.791016</ele><time>2007-07-25T13:03:22Z</time></trkpt>
<trkpt lat="46.51997499" lon="8.56863999"><ele>1305.021973</ele><time>2007-07-25T13:03:30Z</time></trkpt>
<trkpt lat="46.52020499" lon="8.57011604"><ele>1301.902954</ele><time>2007-07-25T13:03:43Z</time></trkpt>
<trkpt lat="46.52068301" lon="8.57115297"><ele>1298.889038</ele><time>2007-07-25T13:03:53Z</time></trkpt>
<trkpt lat="46.52072702" lon="8.57127199"><ele>1298.640991</ele><time>2007-07-25T13:03:54Z</time></trkpt>
<trkpt lat="46.52083900" lon="8.57179603"><ele>1296.380005</ele><time>2007-07-25T13:03:58Z</time></trkpt>
<trkpt lat="46.52093103" lon="8.57263296"><ele>1292.668945</ele><time>2007-07-25T13:04:04Z</time></trkpt>
<trkpt lat="46.52094997" lon="8.57276900"><ele>1292.61499</ele><time>2007-07-25T13:04:05Z</time></trkpt>
<trkpt lat="46.52116396" lon="8.57396199"><ele>1289.470947</ele><time>2007-07-25T13:04:14Z</time></trkpt>
<trkpt lat="46.52133998" lon="8.57488803"><ele>1286.488037</ele><time>2007-07-25T13:04:21Z</time></trkpt>
<trkpt lat="46.52135298" lon="8.57598103"><ele>1283.256958</ele><time>2007-07-25T13:04:29Z</time></trkpt>
<trkpt lat="46.52113899" lon="8.57719800"><ele>1281.334961</ele><time>2007-07-25T13:04:38Z</time></trkpt>
<trkpt lat="46.52129799" lon="8.57802001"><ele>1278.482056</ele><time>2007-07-25T13:04:44Z</time></trkpt>
<trkpt lat="46.52149798" lon="8.57854497"><ele>1276.546021</ele><time>2007-07-25T13:04:48Z</time></trkpt>
<trkpt lat="46.52177400" lon="8.57918099"><ele>1273.04895</ele><time>2007-07-25T13:04:53Z</time></trkpt>
<trkpt lat="46.52183804" lon="8.57929800"><ele>1272.801025</ele><time>2007-07-25T13:04:54Z</time></trkpt>
<trkpt lat="46.52196804" lon="8.57952900"><ele>1271.475952</ele><time>2007-07-25T13:04:56Z</time></trkpt>
<trkpt lat="46.52214901" lon="8.58019302"><ele>1269.079956</ele><time>2007-07-25T13:05:01Z</time></trkpt>
<trkpt lat="46.52215202" lon="8.58033199"><ele>1269.071045</ele><time>2007-07-25T13:05:02Z</time></trkpt>
<trkpt lat="46.52243701" lon="8.58147503"><ele>1264.660034</ele><time>2007-07-25T13:05:11Z</time></trkpt>
<trkpt lat="46.52250297" lon="8.58200803"><ele>1263.23999</ele><time>2007-07-25T13:05:15Z</time></trkpt>
<trkpt lat="46.52245503" lon="8.58270600"><ele>1262.208984</ele><time>2007-07-25T13:05:20Z</time></trkpt>
<trkpt lat="46.52253499" lon="8.58324202"><ele>1260.266968</ele><time>2007-07-25T13:05:24Z</time></trkpt>
<trkpt lat="46.52257799" lon="8.58336397"><ele>1260.104004</ele><time>2007-07-25T13:05:25Z</time></trkpt>
<trkpt lat="46.52273599" lon="8.58370403"><ele>1258.47998</ele><time>2007-07-25T13:05:28Z</time></trkpt>
<trkpt lat="46.52278100" lon="8.58382297"><ele>1258.469971</ele><time>2007-07-25T13:05:29Z</time></trkpt>
<trkpt lat="46.52287899" lon="8.58421599"><ele>1257.144043</ele><time>2007-07-25T13:05:32Z</time></trkpt>
<trkpt lat="46.52299298" lon="8.58478001"><ele>1254.508057</ele><time>2007-07-25T13:05:36Z</time></trkpt>
<trkpt lat="46.52312399" lon="8.58556003"><ele>1250.652954</ele><time>2007-07-25T13:05:41Z</time></trkpt>
<trkpt lat="46.52317998" lon="8.58587997"><ele>1249.863037</ele><time>2007-07-25T13:05:43Z</time></trkpt>
<trkpt lat="46.52334896" lon="8.58696601"><ele>1245.958984</ele><time>2007-07-25T13:05:50Z</time></trkpt>
<trkpt lat="46.52336396" lon="8.58711999"><ele>1245.972046</ele><time>2007-07-25T13:05:51Z</time></trkpt>
<trkpt lat="46.52349204" lon="8.58801903"><ele>1243.775024</ele><time>2007-07-25T13:05:57Z</time></trkpt>
<trkpt lat="46.52363998" lon="8.58874298"><ele>1239.964966</ele><time>2007-07-25T13:06:02Z</time></trkpt>
<trkpt lat="46.52371299" lon="8.58902302"><ele>1239.043945</ele><time>2007-07-25T13:06:04Z</time></trkpt>
<trkpt lat="46.52379597" lon="8.58929501"><ele>1237.949951</ele><time>2007-07-25T13:06:06Z</time></trkpt>
<trkpt lat="46.52391499" lon="8.58970597"><ele>1235.994995</ele><time>2007-07-25T13:06:09Z</time></trkpt>
<trkpt lat="46.52395899" lon="8.58999297"><ele>1235.041992</ele><time>2007-07-25T13:06:11Z</time></trkpt>
<trkpt lat="46.52397802" lon="8.59059496"><ele>1231.901978</ele><time>2007-07-25T13:06:15Z</time></trkpt>
<trkpt lat="46.52395799" lon="8.59131999"><ele>1230.291992</ele><time>2007-07-25T13:06:20Z</time></trkpt>
<trkpt lat="46.52391801" lon="8.59172903"><ele>1230.358032</ele><time>2007-07-25T13:06:23Z</time></trkpt>
<trkpt lat="46.52399403" lon="8.59223404"><ele>1229.119995</ele><time>2007-07-25T13:06:27Z</time></trkpt>
<trkpt lat="46.52437499" lon="8.59322503"><ele>1225.557983</ele><time>2007-07-25T13:06:36Z</time></trkpt>
<trkpt lat="46.52454103" lon="8.59355100"><ele>1223.519043</ele><time>2007-07-25T13:06:39Z</time></trkpt>
<trkpt lat="46.52493901" lon="8.59439498"><ele>1220.144043</ele><time>2007-07-25T13:06:46Z</time></trkpt>
<trkpt lat="46.52499097" lon="8.59452196"><ele>1219.491943</ele><time>2007-07-25T13:06:47Z</time></trkpt>
<trkpt lat="46.52506398" lon="8.59511901"><ele>1217.55896</ele><time>2007-07-25T13:06:51Z</time></trkpt>
<trkpt lat="46.52503297" lon="8.59576802"><ele>1213.838013</ele><time>2007-07-25T13:06:55Z</time></trkpt>
<trkpt lat="46.52511000" lon="8.59642801"><ele>1209.853027</ele><time>2007-07-25T13:06:59Z</time></trkpt>
<trkpt lat="46.52514696" lon="8.59676404"><ele>1209.223022</ele><time>2007-07-25T13:07:01Z</time></trkpt>
<trkpt lat="46.52520798" lon="8.59726997"><ele>1205.385986</ele><time>2007-07-25T13:07:04Z</time></trkpt>
<trkpt lat="46.52528199" lon="8.59793499"><ele>1200.765991</ele><time>2007-07-25T13:07:08Z</time></trkpt>
<trkpt lat="46.52529901" lon="8.59826499"><ele>1199.723999</ele><time>2007-07-25T13:07:10Z</time></trkpt>
<trkpt lat="46.52523598" lon="8.59889204"><ele>1196.932007</ele><time>2007-07-25T13:07:14Z</time></trkpt>
<trkpt lat="46.52485896" lon="8.60062801"><ele>1194.31604</ele><time>2007-07-25T13:07:27Z</time></trkpt>
<trkpt lat="46.52478101" lon="8.60141499"><ele>1192.703003</ele><time>2007-07-25T13:07:33Z</time></trkpt>
<trkpt lat="46.52450700" lon="8.60252501"><ele>1191.327026</ele><time>2007-07-25T13:07:43Z</time></trkpt>
<trkpt lat="46.52460901" lon="8.60301602"><ele>1191.130005</ele><time>2007-07-25T13:07:49Z</time></trkpt>
<trkpt lat="46.52471798" lon="8.60308601"><ele>1192.970947</ele><time>2007-07-25T13:07:55Z</time></trkpt>
<trkpt lat="46.52474396" lon="8.60306497"><ele>1192.75</ele><time>2007-07-25T13:08:16Z</time></trkpt>
<trkpt lat="46.52470700" lon="8.60303496"><ele>1191.129028</ele><time>2007-07-25T13:10:08Z</time></trkpt>
<trkpt lat="46.52470498" lon="8.60303203"><ele>1192.562012</ele><time>2007-07-25T13:10:11Z</time></trkpt>
<trkpt lat="46.52472703" lon="8.60298299"><ele>1193.651001</ele><time>2007-07-25T13:11:40Z</time></trkpt>
<trkpt lat="46.52473197" lon="8.60298601"><ele>1191.839966</ele><time>2007-07-25T13:11:43Z</time></trkpt>
<trkpt lat="46.52480599" lon="8.60299699"><ele>1191.314941</ele><time>2007-07-25T13:12:25Z</time></trkpt>
<trkpt lat="46.52490196" lon="8.60287000"><ele>1191.27002</ele><time>2007-07-25T13:12:32Z</time></trkpt>
<trkpt lat="46.52500598" lon="8.60190701"><ele>1188.052002</ele><time>2007-07-25T13:12:43Z</time></trkpt>
<trkpt lat="46.52540596" lon="8.60045099"><ele>1184.534058</ele><time>2007-07-25T13:12:56Z</time></trkpt>
<trkpt lat="46.52612999" lon="8.59949201"><ele>1183.036011</ele><time>2007-07-25T13:13:07Z</time></trkpt>
<trkpt lat="46.52707798" lon="8.59909496"><ele>1182.577026</ele><time>2007-07-25T13:13:19Z</time></trkpt>
<trkpt lat="46.52747998" lon="8.59916998"><ele>1182.459961</ele><time>2007-07-25T13:13:24Z</time></trkpt>
<trkpt lat="46.52784401" lon="8.59943602"><ele>1182.505005</ele><time>2007-07-25T13:13:29Z</time></trkpt>
<trkpt lat="46.52802899" lon="8.59966401"><ele>1182.142944</ele><time>2007-07-25T13:13:32Z</time></trkpt>
<trkpt lat="46.52833099" lon="8.60031797"><ele>1181.985962</ele><time>2007-07-25T13:13:39Z</time></trkpt>
<trkpt lat="46.52859502" lon="8.60145003"><ele>1181.295044</ele><time>2007-07-25T13:13:50Z</time></trkpt>
<trkpt lat="46.52853501" lon="8.60293899"><ele>1179.365967</ele><time>2007-07-25T13:14:04Z</time></trkpt>
<trkpt lat="46.52822798" lon="8.60405596"><ele>1176.062988</ele><time>2007-07-25T13:14:14Z</time></trkpt>
<trkpt lat="46.52813704" lon="8.60427498"><ele>1175.260986</ele><time>2007-07-25T13:14:16Z</time></trkpt>
<trkpt lat="46.52790201" lon="8.60485199"><ele>1171.489014</ele><time>2007-07-25T13:14:21Z</time></trkpt>
<trkpt lat="46.52780503" lon="8.60537804"><ele>1169.100952</ele><time>2007-07-25T13:14:25Z</time></trkpt>
<trkpt lat="46.52778902" lon="8.60550896"><ele>1169.092041</ele><time>2007-07-25T13:14:26Z</time></trkpt>
<trkpt lat="46.52776396" lon="8.60607600"><ele>1170.387939</ele><time>2007-07-25T13:14:31Z</time></trkpt>
<trkpt lat="46.52778198" lon="8.60598698"><ele>1172.902954</ele><time>2007-07-25T13:14:36Z</time></trkpt>
<trkpt lat="46.52777402" lon="8.60534200"><ele>1173.296997</ele><time>2007-07-25T13:14:44Z</time></trkpt>
<trkpt lat="46.52784300" lon="8.60498903"><ele>1173.781006</ele><time>2007-07-25T13:14:49Z</time></trkpt>
<trkpt lat="46.52796797" lon="8.60510898"><ele>1174.641968</ele><time>2007-07-25T13:14:55Z</time></trkpt>
<trkpt lat="46.52795197" lon="8.60525901"><ele>1176.015015</ele><time>2007-07-25T13:15:08Z</time></trkpt>
<trkpt lat="46.52795498" lon="8.60525700"><ele>1176.177002</ele><time>2007-07-25T13:15:17Z</time></trkpt>
<trkpt lat="46.52799698" lon="8.60554500"><ele>1178.302979</ele><time>2007-07-25T13:15:29Z</time></trkpt>
<trkpt lat="46.52800301" lon="8.60565799"><ele>1178.686035</ele><time>2007-07-25T13:15:33Z</time></trkpt>
<trkpt lat="46.52801299" lon="8.60570996"><ele>1180.199951</ele><time>2007-07-25T13:15:35Z</time></trkpt>
<trkpt lat="46.52814902" lon="8.60600299"><ele>1181.696045</ele><time>2007-07-25T13:15:45Z</time></trkpt>
<trkpt lat="46.52824198" lon="8.60606904"><ele>1183.764038</ele><time>2007-07-25T13:15:49Z</time></trkpt>
<trkpt lat="46.52841297" lon="8.60606401"><ele>1184.993042</ele><time>2007-07-25T13:15:56Z</time></trkpt>
<trkpt lat="46.52863601" lon="8.60629904"><ele>1187.88501</ele><time>2007-07-25T13:16:09Z</time></trkpt>
<trkpt lat="46.52875001" lon="8.60639401"><ele>1189.579956</ele><time>2007-07-25T13:16:18Z</time></trkpt>
<trkpt lat="46.52880499" lon="8.60645000"><ele>1190.926025</ele><time>2007-07-25T13:16:22Z</time></trkpt>
<trkpt lat="46.52893198" lon="8.60660599"><ele>1193.937988</ele><time>2007-07-25T13:16:33Z</time></trkpt>
<trkpt lat="46.52901898" lon="8.60672903"><ele>1195.016968</ele><time>2007-07-25T13:16:42Z</time></trkpt>
<trkpt lat="46.52901596" lon="8.60659501"><ele>1196.165039</ele><time>2007-07-25T13:16:52Z</time></trkpt>
<trkpt lat="46.52901001" lon="8.60658101"><ele>1196.727051</ele><time>2007-07-25T13:16:54Z</time></trkpt>
<trkpt lat="46.52899400" lon="8.60655402"><ele>1197.011963</ele><time>2007-07-25T13:16:56Z</time></trkpt>
<trkpt lat="46.52895201" lon="8.60627398"><ele>1200.722046</ele><time>2007-07-25T13:17:08Z</time></trkpt>
<trkpt lat="46.52895100" lon="8.60602101"><ele>1203.151978</ele><time>2007-07-25T13:17:19Z</time></trkpt>
<trkpt lat="46.52915301" lon="8.60577903"><ele>1205.324951</ele><time>2007-07-25T13:17:33Z</time></trkpt>
<trkpt lat="46.52947797" lon="8.60538499"><ele>1208.483032</ele><time>2007-07-25T13:17:53Z</time></trkpt>
<trkpt lat="46.52966397" lon="8.60503899"><ele>1210.621948</ele><time>2007-07-25T13:18:08Z</time></trkpt>
<trkpt lat="46.52979397" lon="8.60449098"><ele>1212.631958</ele><time>2007-07-25T13:18:25Z</time></trkpt>
<trkpt lat="46.52987796" lon="8.60414799"><ele>1215.847046</ele><time>2007-07-25T13:18:38Z</time></trkpt>
<trkpt lat="46.52990696" lon="8.60405001"><ele>1217.110962</ele><time>2007-07-25T13:18:43Z</time></trkpt>
<trkpt lat="46.53005096" lon="8.60359102"><ele>1219.01001</ele><time>2007-07-25T13:19:00Z</time></trkpt>
<trkpt lat="46.53014400" lon="8.60333897"><ele>1221.151978</ele><time>2007-07-25T13:19:09Z</time></trkpt>
<trkpt lat="46.53002297" lon="8.60274897"><ele>1224.828003</ele><time>2007-07-25T13:19:29Z</time></trkpt>
<trkpt lat="46.52994996" lon="8.60231596"><ele>1227.866943</ele><time>2007-07-25T13:19:44Z</time></trkpt>
<trkpt lat="46.52988299" lon="8.60176602"><ele>1231.206055</ele><time>2007-07-25T13:20:03Z</time></trkpt>
<trkpt lat="46.52983102" lon="8.60125498"><ele>1234.284058</ele><time>2007-07-25T13:20:20Z</time></trkpt>
<trkpt lat="46.52975701" lon="8.60064603"><ele>1237.969971</ele><time>2007-07-25T13:20:40Z</time></trkpt>
<trkpt lat="46.52968501" lon="8.60009601"><ele>1241.047974</ele><time>2007-07-25T13:20:58Z</time></trkpt>
<trkpt lat="46.52966104" lon="8.59980198"><ele>1242.880981</ele><time>2007-07-25T13:21:08Z</time></trkpt>
<trkpt lat="46.52977402" lon="8.59985604"><ele>1244.723022</ele><time>2007-07-25T13:21:15Z</time></trkpt>
<trkpt lat="46.52995398" lon="8.60032501"><ele>1248.260986</ele><time>2007-07-25T13:21:34Z</time></trkpt>
<trkpt lat="46.53002598" lon="8.60050497"><ele>1249.906006</ele><time>2007-07-25T13:21:41Z</time></trkpt>
<trkpt lat="46.53022002" lon="8.60083697"><ele>1253.291016</ele><time>2007-07-25T13:21:57Z</time></trkpt>
<trkpt lat="46.53043502" lon="8.60103596"><ele>1255.436035</ele><time>2007-07-25T13:22:12Z</time></trkpt>
<trkpt lat="46.53034902" lon="8.60075098"><ele>1257.821045</ele><time>2007-07-25T13:22:24Z</time></trkpt>
<trkpt lat="46.53019002" lon="8.60029701"><ele>1260.953979</ele><time>2007-07-25T13:22:41Z</time></trkpt>
<trkpt lat="46.53009396" lon="8.59987197"><ele>1264.040039</ele><time>2007-07-25T13:22:56Z</time></trkpt>
<trkpt lat="46.53005197" lon="8.59934902"><ele>1267.05896</ele><time>2007-07-25T13:23:14Z</time></trkpt>
<trkpt lat="46.52999396" lon="8.59890201"><ele>1270.303955</ele><time>2007-07-25T13:23:30Z</time></trkpt>
<trkpt lat="46.52993697" lon="8.59857101"><ele>1273.462036</ele><time>2007-07-25T13:23:43Z</time></trkpt>
<trkpt lat="46.52992599" lon="8.59850102"><ele>1274.399048</ele><time>2007-07-25T13:23:46Z</time></trkpt>
<trkpt lat="46.53000897" lon="8.59853304"><ele>1274.958008</ele><time>2007-07-25T13:23:53Z</time></trkpt>
<trkpt lat="46.53012799" lon="8.59880101"><ele>1278.062012</ele><time>2007-07-25T13:24:07Z</time></trkpt>
<trkpt lat="46.53020703" lon="8.59895700"><ele>1280.157959</ele><time>2007-07-25T13:24:15Z</time></trkpt>
<trkpt lat="46.53042597" lon="8.59919404"><ele>1283.496948</ele><time>2007-07-25T13:24:32Z</time></trkpt>
<trkpt lat="46.53052001" lon="8.59894702"><ele>1284.636963</ele><time>2007-07-25T13:24:45Z</time></trkpt>
<trkpt lat="46.53054197" lon="8.59858803"><ele>1287.719971</ele><time>2007-07-25T13:25:00Z</time></trkpt>
<trkpt lat="46.53057299" lon="8.59824596"><ele>1290.748047</ele><time>2007-07-25T13:25:14Z</time></trkpt>
<trkpt lat="46.53048799" lon="8.59779904"><ele>1293.909058</ele><time>2007-07-25T13:25:32Z</time></trkpt>
<trkpt lat="46.53062504" lon="8.59741900"><ele>1295.610962</ele><time>2007-07-25T13:25:48Z</time></trkpt>
<trkpt lat="46.53084397" lon="8.59685096"><ele>1298.427002</ele><time>2007-07-25T13:26:09Z</time></trkpt>
<trkpt lat="46.53085697" lon="8.59637202"><ele>1301.458984</ele><time>2007-07-25T13:26:25Z</time></trkpt>
<trkpt lat="46.53082402" lon="8.59594999"><ele>1304.899048</ele><time>2007-07-25T13:26:39Z</time></trkpt>
<trkpt lat="46.53087004" lon="8.59553098"><ele>1308.100952</ele><time>2007-07-25T13:26:56Z</time></trkpt>
<trkpt lat="46.53091103" lon="8.59513904"><ele>1311.412964</ele><time>2007-07-25T13:27:12Z</time></trkpt>
<trkpt lat="46.53095302" lon="8.59475900"><ele>1314.459961</ele><time>2007-07-25T13:27:28Z</time></trkpt>
<trkpt lat="46.53103399" lon="8.59437796"><ele>1317.474976</ele><time>2007-07-25T13:27:44Z</time></trkpt>
<trkpt lat="46.53124002" lon="8.59404302"><ele>1320.807983</ele><time>2007-07-25T13:28:02Z</time></trkpt>
<trkpt lat="46.53139902" lon="8.59374404"><ele>1323.928955</ele><time>2007-07-25T13:28:18Z</time></trkpt>
<trkpt lat="46.53144998" lon="8.59354497"><ele>1327.035034</ele><time>2007-07-25T13:28:29Z</time></trkpt>
<trkpt lat="46.53145996" lon="8.59352804"><ele>1327.060059</ele><time>2007-07-25T13:28:30Z</time></trkpt>
<trkpt lat="46.53150296" lon="8.59328002"><ele>1328.962036</ele><time>2007-07-25T13:28:41Z</time></trkpt>
<trkpt lat="46.53123499" lon="8.59282002"><ele>1330.900024</ele><time>2007-07-25T13:28:58Z</time></trkpt>
<trkpt lat="46.53099200" lon="8.59239698"><ele>1332.807007</ele><time>2007-07-25T13:29:17Z</time></trkpt>
<trkpt lat="46.53095604" lon="8.59208803"><ele>1334.171997</ele><time>2007-07-25T13:29:29Z</time></trkpt>
<trkpt lat="46.53080097" lon="8.59188401"><ele>1335.605957</ele><time>2007-07-25T13:29:40Z</time></trkpt>
<trkpt lat="46.53063702" lon="8.59170799"><ele>1337.45105</ele><time>2007-07-25T13:29:52Z</time></trkpt>
<trkpt lat="46.53047701" lon="8.59136702"><ele>1339.100952</ele><time>2007-07-25T13:30:06Z</time></trkpt>
<trkpt lat="46.53040501" lon="8.59114104"><ele>1340.786011</ele><time>2007-07-25T13:30:15Z</time></trkpt>
<trkpt lat="46.53033502" lon="8.59068900"><ele>1343.698975</ele><time>2007-07-25T13:30:33Z</time></trkpt>
<trkpt lat="46.53029102" lon="8.59025398"><ele>1345.723022</ele><time>2007-07-25T13:30:50Z</time></trkpt>
<trkpt lat="46.53030502" lon="8.58970396"><ele>1348.843018</ele><time>2007-07-25T13:31:10Z</time></trkpt>
<trkpt lat="46.53024098" lon="8.58930004"><ele>1350.892944</ele><time>2007-07-25T13:31:24Z</time></trkpt>
<trkpt lat="46.53008499" lon="8.58876703"><ele>1353.354004</ele><time>2007-07-25T13:31:40Z</time></trkpt>
<trkpt lat="46.53007803" lon="8.58870199"><ele>1354.005005</ele><time>2007-07-25T13:31:42Z</time></trkpt>
<trkpt lat="46.53021701" lon="8.58872697"><ele>1355.098022</ele><time>2007-07-25T13:31:50Z</time></trkpt>
<trkpt lat="46.53037601" lon="8.58931404"><ele>1358.156006</ele><time>2007-07-25T13:32:08Z</time></trkpt>
<trkpt lat="46.53049696" lon="8.58977999"><ele>1361.103027</ele><time>2007-07-25T13:32:26Z</time></trkpt>
<trkpt lat="46.53062202" lon="8.59024996"><ele>1364.223999</ele><time>2007-07-25T13:32:45Z</time></trkpt>
<trkpt lat="46.53076602" lon="8.59067098"><ele>1367.25</ele><time>2007-07-25T13:33:02Z</time></trkpt>
<trkpt lat="46.53105704" lon="8.59108698"><ele>1370.541016</ele><time>2007-07-25T13:33:23Z</time></trkpt>
<trkpt lat="46.53127899" lon="8.59131203"><ele>1372.074951</ele><time>2007-07-25T13:33:37Z</time></trkpt>
<trkpt lat="46.53157001" lon="8.59158302"><ele>1375.146973</ele><time>2007-07-25T13:33:55Z</time></trkpt>
<trkpt lat="46.53190101" lon="8.59191796"><ele>1377.744019</ele><time>2007-07-25T13:34:16Z</time></trkpt>
<trkpt lat="46.53217996" lon="8.59225399"><ele>1381.364014</ele><time>2007-07-25T13:34:36Z</time></trkpt>
<trkpt lat="46.53248004" lon="8.59249698"><ele>1383.562988</ele><time>2007-07-25T13:34:55Z</time></trkpt>
<trkpt lat="46.53258498" lon="8.59255901"><ele>1383.032959</ele><time>2007-07-25T13:35:07Z</time></trkpt>
<trkpt lat="46.53260099" lon="8.59251601"><ele>1382.262939</ele><time>2007-07-25T13:35:24Z</time></trkpt>
<trkpt lat="46.53258900" lon="8.59246999"><ele>1383.609009</ele><time>2007-07-25T13:37:31Z</time></trkpt>
<trkpt lat="46.53257702" lon="8.59247502"><ele>1383.453979</ele><time>2007-07-25T13:37:38Z</time></trkpt>
<trkpt lat="46.53252404" lon="8.59244099"><ele>1384.035034</ele><time>2007-07-25T13:37:44Z</time></trkpt>
<trkpt lat="46.53242698" lon="8.59213798"><ele>1384.925049</ele><time>2007-07-25T13:37:58Z</time></trkpt>
<trkpt lat="46.53220402" lon="8.59191000"><ele>1386.615967</ele><time>2007-07-25T13:38:11Z</time></trkpt>
<trkpt lat="46.53193102" lon="8.59156701"><ele>1389.910034</ele><time>2007-07-25T13:38:28Z</time></trkpt>
<trkpt lat="46.53168501" lon="8.59120801"><ele>1392.287964</ele><time>2007-07-25T13:38:45Z</time></trkpt>
<trkpt lat="46.53146298" lon="8.59084801"><ele>1395.552002</ele><time>2007-07-25T13:39:00Z</time></trkpt>
<trkpt lat="46.53132400" lon="8.59042204"><ele>1398.015991</ele><time>2007-07-25T13:39:16Z</time></trkpt>
<trkpt lat="46.53125402" lon="8.58994301"><ele>1401.322021</ele><time>2007-07-25T13:39:32Z</time></trkpt>
<trkpt lat="46.53115301" lon="8.58944496"><ele>1404.334961</ele><time>2007-07-25T13:39:49Z</time></trkpt>
<trkpt lat="46.53105402" lon="8.58904498"><ele>1407.385986</ele><time>2007-07-25T13:40:03Z</time></trkpt>
<trkpt lat="46.53091304" lon="8.58857299"><ele>1410.479004</ele><time>2007-07-25T13:40:20Z</time></trkpt>
<trkpt lat="46.53079201" lon="8.58802901"><ele>1413.774048</ele><time>2007-07-25T13:40:39Z</time></trkpt>
<trkpt lat="46.53068497" lon="8.58749097"><ele>1416.758057</ele><time>2007-07-25T13:40:58Z</time></trkpt>
<trkpt lat="46.53057198" lon="8.58695302"><ele>1419.915039</ele><time>2007-07-25T13:41:17Z</time></trkpt>
<trkpt lat="46.53044298" lon="8.58642697"><ele>1423.223022</ele><time>2007-07-25T13:41:36Z</time></trkpt>
<trkpt lat="46.53036503" lon="8.58588399"><ele>1426.610962</ele><time>2007-07-25T13:41:55Z</time></trkpt>
<trkpt lat="46.53027903" lon="8.58541796"><ele>1429.04895</ele><time>2007-07-25T13:42:12Z</time></trkpt>
<trkpt lat="46.53019597" lon="8.58492200"><ele>1432.134033</ele><time>2007-07-25T13:42:29Z</time></trkpt>
<trkpt lat="46.53015104" lon="8.58454700"><ele>1433.457031</ele><time>2007-07-25T13:42:41Z</time></trkpt>
<trkpt lat="46.53026101" lon="8.58457700"><ele>1434.312988</ele><time>2007-07-25T13:42:48Z</time></trkpt>
<trkpt lat="46.53038397" lon="8.58521202"><ele>1437.925049</ele><time>2007-07-25T13:43:08Z</time></trkpt>
<trkpt lat="46.53046402" lon="8.58563497"><ele>1441.110962</ele><time>2007-07-25T13:43:22Z</time></trkpt>
<trkpt lat="46.53054700" lon="8.58611198"><ele>1444.165039</ele><time>2007-07-25T13:43:38Z</time></trkpt>
<trkpt lat="46.53065102" lon="8.58652303"><ele>1447.656982</ele><time>2007-07-25T13:43:52Z</time></trkpt>
<trkpt lat="46.53088002" lon="8.58695101"><ele>1450.859009</ele><time>2007-07-25T13:44:09Z</time></trkpt>
<trkpt lat="46.53125997" lon="8.58729701"><ele>1453.540039</ele><time>2007-07-25T13:44:30Z</time></trkpt>
<trkpt lat="46.53158602" lon="8.58761704"><ele>1456.718994</ele><time>2007-07-25T13:44:46Z</time></trkpt>
<trkpt lat="46.53180798" lon="8.58804300"><ele>1460.087036</ele><time>2007-07-25T13:45:01Z</time></trkpt>
<trkpt lat="46.53195801" lon="8.58850300"><ele>1462.765015</ele><time>2007-07-25T13:45:16Z</time></trkpt>
<trkpt lat="46.53208600" lon="8.58900298"><ele>1465.96106</ele><time>2007-07-25T13:45:34Z</time></trkpt>
<trkpt lat="46.53223302" lon="8.58948796"><ele>1469.103027</ele><time>2007-07-25T13:45:52Z</time></trkpt>
<trkpt lat="46.53238800" lon="8.58949098"><ele>1469.655029</ele><time>2007-07-25T13:46:00Z</time></trkpt>
<trkpt lat="46.53238096" lon="8.58929601"><ele>1469.895996</ele><time>2007-07-25T13:46:05Z</time></trkpt>
<trkpt lat="46.53216203" lon="8.58886200"><ele>1472.489014</ele><time>2007-07-25T13:46:19Z</time></trkpt>
<trkpt lat="46.53209204" lon="8.58841399"><ele>1475.616943</ele><time>2007-07-25T13:46:32Z</time></trkpt>
<trkpt lat="46.53205700" lon="8.58796799"><ele>1478.727051</ele><time>2007-07-25T13:46:46Z</time></trkpt>
<trkpt lat="46.53200202" lon="8.58761100"><ele>1480.875977</ele><time>2007-07-25T13:46:58Z</time></trkpt>
<trkpt lat="46.53199104" lon="8.58739500"><ele>1482.537964</ele><time>2007-07-25T13:47:06Z</time></trkpt>
<trkpt lat="46.53188702" lon="8.58688496"><ele>1485.218994</ele><time>2007-07-25T13:47:23Z</time></trkpt>
<trkpt lat="46.53172298" lon="8.58652102"><ele>1488.526978</ele><time>2007-07-25T13:47:37Z</time></trkpt>
<trkpt lat="46.53150396" lon="8.58611299"><ele>1491.744019</ele><time>2007-07-25T13:47:54Z</time></trkpt>
<trkpt lat="46.53139500" lon="8.58587796"><ele>1492.416016</ele><time>2007-07-25T13:48:04Z</time></trkpt>
<trkpt lat="46.53152400" lon="8.58583404"><ele>1494.218994</ele><time>2007-07-25T13:48:12Z</time></trkpt>
<trkpt lat="46.53182399" lon="8.58623503"><ele>1497.421997</ele><time>2007-07-25T13:48:29Z</time></trkpt>
<trkpt lat="46.53200604" lon="8.58659796"><ele>1500.718994</ele><time>2007-07-25T13:48:42Z</time></trkpt>
<trkpt lat="46.53214199" lon="8.58712301"><ele>1504.149048</ele><time>2007-07-25T13:49:00Z</time></trkpt>
<trkpt lat="46.53224199" lon="8.58759801"><ele>1506.810059</ele><time>2007-07-25T13:49:18Z</time></trkpt>
<trkpt lat="46.53243402" lon="8.58809296"><ele>1509.989014</ele><time>2007-07-25T13:49:36Z</time></trkpt>
<trkpt lat="46.53264399" lon="8.58854399"><ele>1513.404053</ele><time>2007-07-25T13:49:52Z</time></trkpt>
<trkpt lat="46.53276896" lon="8.58883501"><ele>1516.411011</ele><time>2007-07-25T13:50:05Z</time></trkpt>
<trkpt lat="46.53302503" lon="8.58920901"><ele>1519.079956</ele><time>2007-07-25T13:50:24Z</time></trkpt>
<trkpt lat="46.53329903" lon="8.58940699"><ele>1522.171997</ele><time>2007-07-25T13:50:40Z</time></trkpt>
<trkpt lat="46.53371503" lon="8.58965501"><ele>1525.714966</ele><time>2007-07-25T13:51:01Z</time></trkpt>
<trkpt lat="46.53394201" lon="8.58986598"><ele>1528.713989</ele><time>2007-07-25T13:51:14Z</time></trkpt>
<trkpt lat="46.53420797" lon="8.59024602"><ele>1532.349976</ele><time>2007-07-25T13:51:31Z</time></trkpt>
<trkpt lat="46.53452002" lon="8.59030201"><ele>1535.031006</ele><time>2007-07-25T13:51:46Z</time></trkpt>
<trkpt lat="46.53462203" lon="8.58982701"><ele>1537.248047</ele><time>2007-07-25T13:52:01Z</time></trkpt>
<trkpt lat="46.53465296" lon="8.58907498"><ele>1540.151978</ele><time>2007-07-25T13:52:21Z</time></trkpt>
<trkpt lat="46.53467299" lon="8.58848699"><ele>1540.274048</ele><time>2007-07-25T13:52:35Z</time></trkpt>
<trkpt lat="46.53468297" lon="8.58803303"><ele>1540.671997</ele><time>2007-07-25T13:52:44Z</time></trkpt>
<trkpt lat="46.53482898" lon="8.58754604"><ele>1540.348999</ele><time>2007-07-25T13:52:55Z</time></trkpt>
<trkpt lat="46.53532804" lon="8.58672604"><ele>1541.381958</ele><time>2007-07-25T13:53:15Z</time></trkpt>
<trkpt lat="46.53549601" lon="8.58597200"><ele>1543.970947</ele><time>2007-07-25T13:53:31Z</time></trkpt>
<trkpt lat="46.53550004" lon="8.58593001"><ele>1544.233032</ele><time>2007-07-25T13:53:32Z</time></trkpt>
<trkpt lat="46.53546399" lon="8.58500398"><ele>1546.737061</ele><time>2007-07-25T13:53:54Z</time></trkpt>
<trkpt lat="46.53537800" lon="8.58447902"><ele>1550.092041</ele><time>2007-07-25T13:54:08Z</time></trkpt>
<trkpt lat="46.53523500" lon="8.58396001"><ele>1553.64502</ele><time>2007-07-25T13:54:24Z</time></trkpt>
<trkpt lat="46.53495999" lon="8.58356598"><ele>1556.907959</ele><time>2007-07-25T13:54:42Z</time></trkpt>
<trkpt lat="46.53456302" lon="8.58357402"><ele>1559.363037</ele><time>2007-07-25T13:55:00Z</time></trkpt>
<trkpt lat="46.53443201" lon="8.58401500"><ele>1560.792969</ele><time>2007-07-25T13:55:13Z</time></trkpt>
<trkpt lat="46.53434400" lon="8.58446703"><ele>1563.93103</ele><time>2007-07-25T13:55:27Z</time></trkpt>
<trkpt lat="46.53410001" lon="8.58452504"><ele>1565.399048</ele><time>2007-07-25T13:55:40Z</time></trkpt>
<trkpt lat="46.53405298" lon="8.58447097"><ele>1566.667969</ele><time>2007-07-25T13:55:43Z</time></trkpt>
<trkpt lat="46.53392902" lon="8.58420703"><ele>1569.984009</ele><time>2007-07-25T13:55:54Z</time></trkpt>
<trkpt lat="46.53372500" lon="8.58364804"><ele>1572.206055</ele><time>2007-07-25T13:56:15Z</time></trkpt>
<trkpt lat="46.53355401" lon="8.58322601"><ele>1575.948975</ele><time>2007-07-25T13:56:31Z</time></trkpt>
<trkpt lat="46.53343004" lon="8.58270801"><ele>1578.421997</ele><time>2007-07-25T13:56:49Z</time></trkpt>
<trkpt lat="46.53337799" lon="8.58216302"><ele>1581.546021</ele><time>2007-07-25T13:57:08Z</time></trkpt>
<trkpt lat="46.53313399" lon="8.58187904"><ele>1583.765991</ele><time>2007-07-25T13:57:23Z</time></trkpt>
<trkpt lat="46.53281003" lon="8.58180000"><ele>1586.80896</ele><time>2007-07-25T13:57:38Z</time></trkpt>
<trkpt lat="46.53244802" lon="8.58164904"><ele>1589.890015</ele><time>2007-07-25T13:57:54Z</time></trkpt>
<trkpt lat="46.53224400" lon="8.58151903"><ele>1592.135986</ele><time>2007-07-25T13:58:05Z</time></trkpt>
<trkpt lat="46.53194301" lon="8.58119298"><ele>1594.171997</ele><time>2007-07-25T13:58:24Z</time></trkpt>
<trkpt lat="46.53193697" lon="8.58118099"><ele>1593.769043</ele><time>2007-07-25T13:58:25Z</time></trkpt>
<trkpt lat="46.53203898" lon="8.58104998"><ele>1594.702026</ele><time>2007-07-25T13:58:31Z</time></trkpt>
<trkpt lat="46.53232899" lon="8.58130898"><ele>1597.677979</ele><time>2007-07-25T13:58:45Z</time></trkpt>
<trkpt lat="46.53271599" lon="8.58149900"><ele>1600.83606</ele><time>2007-07-25T13:59:05Z</time></trkpt>
<trkpt lat="46.53308798" lon="8.58149104"><ele>1604.092041</ele><time>2007-07-25T13:59:23Z</time></trkpt>
<trkpt lat="46.53340297" lon="8.58143899"><ele>1607.57605</ele><time>2007-07-25T13:59:37Z</time></trkpt>
<trkpt lat="46.53367898" lon="8.58136900"><ele>1609.467041</ele><time>2007-07-25T13:59:51Z</time></trkpt>
<trkpt lat="46.53376004" lon="8.58123204"><ele>1610.089966</ele><time>2007-07-25T13:59:58Z</time></trkpt>
<trkpt lat="46.53376197" lon="8.58119097"><ele>1609.790039</ele><time>2007-07-25T14:00:00Z</time></trkpt>
<trkpt lat="46.53364202" lon="8.58115199"><ele>1610.67395</ele><time>2007-07-25T14:00:06Z</time></trkpt>
<trkpt lat="46.53331404" lon="8.58118401"><ele>1613.291992</ele><time>2007-07-25T14:00:19Z</time></trkpt>
<trkpt lat="46.53295697" lon="8.58101796"><ele>1616.511963</ele><time>2007-07-25T14:00:35Z</time></trkpt>
<trkpt lat="46.53254902" lon="8.58084798"><ele>1618.973022</ele><time>2007-07-25T14:00:54Z</time></trkpt>
<trkpt lat="46.53255003" lon="8.58076600"><ele>1619.235962</ele><time>2007-07-25T14:00:57Z</time></trkpt>
<trkpt lat="46.53294599" lon="8.58087899"><ele>1623.177002</ele><time>2007-07-25T14:01:15Z</time></trkpt>
<trkpt lat="46.53325402" lon="8.58088100"><ele>1626.397949</ele><time>2007-07-25T14:01:29Z</time></trkpt>
<trkpt lat="46.53355502" lon="8.58078201"><ele>1629.416016</ele><time>2007-07-25T14:01:43Z</time></trkpt>
<trkpt lat="46.53385601" lon="8.58064103"><ele>1631.571045</ele><time>2007-07-25T14:01:58Z</time></trkpt>
<trkpt lat="46.53417402" lon="8.58043299"><ele>1633.946045</ele><time>2007-07-25T14:02:15Z</time></trkpt>
<trkpt lat="46.53452698" lon="8.58025001"><ele>1637.182007</ele><time>2007-07-25T14:02:32Z</time></trkpt>
<trkpt lat="46.53479696" lon="8.58009000"><ele>1640.625</ele><time>2007-07-25T14:02:48Z</time></trkpt>
<trkpt lat="46.53483904" lon="8.58005396"><ele>1640.699951</ele><time>2007-07-25T14:02:50Z</time></trkpt>
<trkpt lat="46.53489897" lon="8.58000199"><ele>1641.218994</ele><time>2007-07-25T14:02:53Z</time></trkpt>
<trkpt lat="46.53514297" lon="8.57978700"><ele>1644.718994</ele><time>2007-07-25T14:03:08Z</time></trkpt>
<trkpt lat="46.53525202" lon="8.57976797"><ele>1645.380981</ele><time>2007-07-25T14:03:23Z</time></trkpt>
<trkpt lat="46.53528403" lon="8.57987501"><ele>1646.703003</ele><time>2007-07-25T14:07:34Z</time></trkpt>
<trkpt lat="46.53529904" lon="8.57995103"><ele>1649.795044</ele><time>2007-07-25T14:09:18Z</time></trkpt>
<trkpt lat="46.53525998" lon="8.57990200"><ele>1651.026001</ele><time>2007-07-25T14:10:44Z</time></trkpt>
<trkpt lat="46.53525604" lon="8.57992404"><ele>1654.113037</ele><time>2007-07-25T14:12:53Z</time></trkpt>
<trkpt lat="46.53523299" lon="8.57997601"><ele>1654.671021</ele><time>2007-07-25T14:13:12Z</time></trkpt>
<trkpt lat="46.53528797" lon="8.57992496"><ele>1654.621948</ele><time>2007-07-25T14:13:20Z</time></trkpt>
<trkpt lat="46.53531999" lon="8.57989898"><ele>1655.088989</ele><time>2007-07-25T14:13:24Z</time></trkpt>
<trkpt lat="46.53546399" lon="8.57999696"><ele>1655.524048</ele><time>2007-07-25T14:13:33Z</time></trkpt>
<trkpt lat="46.53556399" lon="8.58001197"><ele>1656.553955</ele><time>2007-07-25T14:13:38Z</time></trkpt>
<trkpt lat="46.53583297" lon="8.58003099"><ele>1660.112061</ele><time>2007-07-25T14:13:53Z</time></trkpt>
<trkpt lat="46.53618702" lon="8.57992496"><ele>1662.619995</ele><time>2007-07-25T14:14:14Z</time></trkpt>
<trkpt lat="46.53649698" lon="8.57981600"><ele>1665.697021</ele><time>2007-07-25T14:14:31Z</time></trkpt>
<trkpt lat="46.53681801" lon="8.57953101"><ele>1668.772949</ele><time>2007-07-25T14:14:50Z</time></trkpt>
<trkpt lat="46.53706100" lon="8.57930101"><ele>1671.859009</ele><time>2007-07-25T14:15:04Z</time></trkpt>
<trkpt lat="46.53741002" lon="8.57910303"><ele>1674.928955</ele><time>2007-07-25T14:15:22Z</time></trkpt>
<trkpt lat="46.53786097" lon="8.57907898"><ele>1678.529053</ele><time>2007-07-25T14:15:43Z</time></trkpt>
<trkpt lat="46.53819297" lon="8.57926698"><ele>1681.61499</ele><time>2007-07-25T14:16:00Z</time></trkpt>
<trkpt lat="46.53823203" lon="8.57929104"><ele>1682.324951</ele><time>2007-07-25T14:16:02Z</time></trkpt>
<trkpt lat="46.53849397" lon="8.57954300"><ele>1685.390015</ele><time>2007-07-25T14:16:17Z</time></trkpt>
<trkpt lat="46.53873201" lon="8.57992304"><ele>1688.796021</ele><time>2007-07-25T14:16:34Z</time></trkpt>
<trkpt lat="46.53906704" lon="8.58013996"><ele>1691.88501</ele><time>2007-07-25T14:16:52Z</time></trkpt>
<trkpt lat="46.53934197" lon="8.58011104"><ele>1694.994995</ele><time>2007-07-25T14:17:05Z</time></trkpt>
<trkpt lat="46.53964799" lon="8.58000501"><ele>1698.109009</ele><time>2007-07-25T14:17:20Z</time></trkpt>
<trkpt lat="46.53994203" lon="8.57992002"><ele>1701.374023</ele><time>2007-07-25T14:17:35Z</time></trkpt>
<trkpt lat="46.54022299" lon="8.57961500"><ele>1704.72998</ele><time>2007-07-25T14:17:54Z</time></trkpt>
<trkpt lat="46.54044301" lon="8.57928098"><ele>1707.988037</ele><time>2007-07-25T14:18:11Z</time></trkpt>
<trkpt lat="46.54058198" lon="8.57881604"><ele>1711.135986</ele><time>2007-07-25T14:18:27Z</time></trkpt>
<trkpt lat="46.54072297" lon="8.57824900"><ele>1714.196045</ele><time>2007-07-25T14:18:46Z</time></trkpt>
<trkpt lat="46.54081400" lon="8.57779504"><ele>1717.21106</ele><time>2007-07-25T14:19:02Z</time></trkpt>
<trkpt lat="46.54086303" lon="8.57717000"><ele>1720.272949</ele><time>2007-07-25T14:19:24Z</time></trkpt>
<trkpt lat="46.54089698" lon="8.57670497"><ele>1723.281006</ele><time>2007-07-25T14:19:39Z</time></trkpt>
<trkpt lat="46.54096998" lon="8.57612603"><ele>1726.599976</ele><time>2007-07-25T14:19:58Z</time></trkpt>
<trkpt lat="46.54105204" lon="8.57562203"><ele>1729.876953</ele><time>2007-07-25T14:20:15Z</time></trkpt>
<trkpt lat="46.54111197" lon="8.57493899"><ele>1733.083008</ele><time>2007-07-25T14:20:37Z</time></trkpt>
<trkpt lat="46.54112899" lon="8.57446197"><ele>1736.097046</ele><time>2007-07-25T14:20:53Z</time></trkpt>
<trkpt lat="46.54127902" lon="8.57391497"><ele>1738.459961</ele><time>2007-07-25T14:21:12Z</time></trkpt>
<trkpt lat="46.54152797" lon="8.57333603"><ele>1741.803955</ele><time>2007-07-25T14:21:33Z</time></trkpt>
<trkpt lat="46.54175897" lon="8.57303797"><ele>1744.993042</ele><time>2007-07-25T14:21:48Z</time></trkpt>
<trkpt lat="46.54193600" lon="8.57287603"><ele>1748.01001</ele><time>2007-07-25T14:21:59Z</time></trkpt>
<trkpt lat="46.54209701" lon="8.57260496"><ele>1750.866943</ele><time>2007-07-25T14:22:15Z</time></trkpt>
<trkpt lat="46.54210799" lon="8.57253497"><ele>1751.262939</ele><time>2007-07-25T14:22:18Z</time></trkpt>
<trkpt lat="46.54211998" lon="8.57244504"><ele>1751.667969</ele><time>2007-07-25T14:22:22Z</time></trkpt>
<trkpt lat="46.54219701" lon="8.57213398"><ele>1754.449951</ele><time>2007-07-25T14:22:37Z</time></trkpt>
<trkpt lat="46.54229399" lon="8.57177197"><ele>1757.453003</ele><time>2007-07-25T14:22:51Z</time></trkpt>
<trkpt lat="46.54246003" lon="8.57150199"><ele>1759.766968</ele><time>2007-07-25T14:23:05Z</time></trkpt>
<trkpt lat="46.54250798" lon="8.57166301"><ele>1760.194946</ele><time>2007-07-25T14:23:14Z</time></trkpt>
<trkpt lat="46.54231302" lon="8.57200901"><ele>1763.307007</ele><time>2007-07-25T14:23:27Z</time></trkpt>
<trkpt lat="46.54226800" lon="8.57231897"><ele>1765.395996</ele><time>2007-07-25T14:23:36Z</time></trkpt>
<trkpt lat="46.54234696" lon="8.57227899"><ele>1765.517944</ele><time>2007-07-25T14:23:40Z</time></trkpt>
<trkpt lat="46.54263698" lon="8.57186199"><ele>1767.105957</ele><time>2007-07-25T14:23:56Z</time></trkpt>
<trkpt lat="46.54273697" lon="8.57151498"><ele>1770.365967</ele><time>2007-07-25T14:24:08Z</time></trkpt>
<trkpt lat="46.54276497" lon="8.57139998"><ele>1770.760986</ele><time>2007-07-25T14:24:12Z</time></trkpt>
<trkpt lat="46.54282901" lon="8.57151004"><ele>1771.677979</ele><time>2007-07-25T14:24:20Z</time></trkpt>
<trkpt lat="46.54258501" lon="8.57197104"><ele>1775.040039</ele><time>2007-07-25T14:24:39Z</time></trkpt>
<trkpt lat="46.54257000" lon="8.57199300"><ele>1775.30603</ele><time>2007-07-25T14:24:40Z</time></trkpt>
<trkpt lat="46.54241502" lon="8.57229399"><ele>1776.791016</ele><time>2007-07-25T14:24:53Z</time></trkpt>
<trkpt lat="46.54258199" lon="8.57229299"><ele>1777.121948</ele><time>2007-07-25T14:25:02Z</time></trkpt>
<trkpt lat="46.54293101" lon="8.57181698"><ele>1780.463989</ele><time>2007-07-25T14:25:23Z</time></trkpt>
<trkpt lat="46.54313704" lon="8.57141197"><ele>1783.890991</ele><time>2007-07-25T14:25:39Z</time></trkpt>
<trkpt lat="46.54333896" lon="8.57093504"><ele>1787.204956</ele><time>2007-07-25T14:25:57Z</time></trkpt>
<trkpt lat="46.54355697" lon="8.57040396"><ele>1790.860962</ele><time>2007-07-25T14:26:18Z</time></trkpt>
<trkpt lat="46.54369804" lon="8.57006097"><ele>1791.973999</ele><time>2007-07-25T14:26:31Z</time></trkpt>
<trkpt lat="46.54378002" lon="8.57017798"><ele>1792.938965</ele><time>2007-07-25T14:26:39Z</time></trkpt>
<trkpt lat="46.54362503" lon="8.57073102"><ele>1796.837036</ele><time>2007-07-25T14:26:58Z</time></trkpt>
<trkpt lat="46.54359503" lon="8.57088500"><ele>1798.296021</ele><time>2007-07-25T14:27:04Z</time></trkpt>
<trkpt lat="46.54374900" lon="8.57090704"><ele>1798.428955</ele><time>2007-07-25T14:27:14Z</time></trkpt>
<trkpt lat="46.54392896" lon="8.57027102"><ele>1801.696045</ele><time>2007-07-25T14:27:37Z</time></trkpt>
<trkpt lat="46.54395998" lon="8.56988504"><ele>1804.75</ele><time>2007-07-25T14:27:50Z</time></trkpt>
<trkpt lat="46.54400700" lon="8.56942898"><ele>1807.833008</ele><time>2007-07-25T14:28:06Z</time></trkpt>
<trkpt lat="46.54405603" lon="8.56931699"><ele>1808.503052</ele><time>2007-07-25T14:28:11Z</time></trkpt>
<trkpt lat="46.54411898" lon="8.56939604"><ele>1809.378052</ele><time>2007-07-25T14:28:17Z</time></trkpt>
<trkpt lat="46.54410096" lon="8.56980700"><ele>1811.696045</ele><time>2007-07-25T14:28:31Z</time></trkpt>
<trkpt lat="46.54409400" lon="8.57003801"><ele>1814.46106</ele><time>2007-07-25T14:28:39Z</time></trkpt>
<trkpt lat="46.54402100" lon="8.57055701"><ele>1816.328979</ele><time>2007-07-25T14:28:58Z</time></trkpt>
<trkpt lat="46.54402200" lon="8.57083001"><ele>1817.865967</ele><time>2007-07-25T14:29:09Z</time></trkpt>
<trkpt lat="46.54415402" lon="8.57072499"><ele>1818.618042</ele><time>2007-07-25T14:29:17Z</time></trkpt>
<trkpt lat="46.54424898" lon="8.57025200"><ele>1821.713989</ele><time>2007-07-25T14:29:33Z</time></trkpt>
<trkpt lat="46.54431000" lon="8.56998302"><ele>1823.592041</ele><time>2007-07-25T14:29:43Z</time></trkpt>
<trkpt lat="46.54455903" lon="8.56962796"><ele>1826.907959</ele><time>2007-07-25T14:30:02Z</time></trkpt>
<trkpt lat="46.54475902" lon="8.56916897"><ele>1830.129028</ele><time>2007-07-25T14:30:22Z</time></trkpt>
<trkpt lat="46.54482197" lon="8.56893503"><ele>1830.380981</ele><time>2007-07-25T14:30:31Z</time></trkpt>
<trkpt lat="46.54486899" lon="8.56910401"><ele>1831.859009</ele><time>2007-07-25T14:30:40Z</time></trkpt>
<trkpt lat="46.54486002" lon="8.56913301"><ele>1831.859985</ele><time>2007-07-25T14:30:41Z</time></trkpt>
<trkpt lat="46.54468602" lon="8.56975101"><ele>1836.047974</ele><time>2007-07-25T14:31:02Z</time></trkpt>
<trkpt lat="46.54449399" lon="8.57042299"><ele>1839.209961</ele><time>2007-07-25T14:31:26Z</time></trkpt>
<trkpt lat="46.54437002" lon="8.57087100"><ele>1842.800049</ele><time>2007-07-25T14:31:43Z</time></trkpt>
<trkpt lat="46.54447798" lon="8.57106403"><ele>1843.630981</ele><time>2007-07-25T14:31:55Z</time></trkpt>
<trkpt lat="46.54463103" lon="8.57062298"><ele>1845.520996</ele><time>2007-07-25T14:32:11Z</time></trkpt>
<trkpt lat="46.54481803" lon="8.57027496"><ele>1849.386963</ele><time>2007-07-25T14:32:26Z</time></trkpt>
<trkpt lat="46.54506798" lon="8.56986701"><ele>1851.600952</ele><time>2007-07-25T14:32:46Z</time></trkpt>
<trkpt lat="46.54521902" lon="8.56929302"><ele>1854.987061</ele><time>2007-07-25T14:33:08Z</time></trkpt>
<trkpt lat="46.54526303" lon="8.56880997"><ele>1858.000977</ele><time>2007-07-25T14:33:26Z</time></trkpt>
<trkpt lat="46.54525397" lon="8.56831502"><ele>1861.119995</ele><time>2007-07-25T14:33:45Z</time></trkpt>
<trkpt lat="46.54540996" lon="8.56786198"><ele>1864.30896</ele><time>2007-07-25T14:34:05Z</time></trkpt>
<trkpt lat="46.54567701" lon="8.56757700"><ele>1867.791992</ele><time>2007-07-25T14:34:22Z</time></trkpt>
<trkpt lat="46.54602100" lon="8.56729100"><ele>1870.738037</ele><time>2007-07-25T14:34:43Z</time></trkpt>
<trkpt lat="46.54606299" lon="8.56738304"><ele>1870.810059</ele><time>2007-07-25T14:34:49Z</time></trkpt>
<trkpt lat="46.54585202" lon="8.56786701"><ele>1873.88501</ele><time>2007-07-25T14:35:08Z</time></trkpt>
<trkpt lat="46.54587901" lon="8.56791202"><ele>1873.561035</ele><time>2007-07-25T14:35:10Z</time></trkpt>
<trkpt lat="46.54598697" lon="8.56785896"><ele>1873.271973</ele><time>2007-07-25T14:35:16Z</time></trkpt>
<trkpt lat="46.54622602" lon="8.56736996"><ele>1875.937988</ele><time>2007-07-25T14:35:35Z</time></trkpt>
<trkpt lat="46.54617196" lon="8.56679899"><ele>1879.140991</ele><time>2007-07-25T14:35:54Z</time></trkpt>
<trkpt lat="46.54616701" lon="8.56674501"><ele>1879.593018</ele><time>2007-07-25T14:35:56Z</time></trkpt>
<trkpt lat="46.54627204" lon="8.56682598"><ele>1880.45105</ele><time>2007-07-25T14:36:04Z</time></trkpt>
<trkpt lat="46.54642803" lon="8.56736099"><ele>1883.786987</ele><time>2007-07-25T14:36:24Z</time></trkpt>
<trkpt lat="46.54642903" lon="8.56791303"><ele>1887.509033</ele><time>2007-07-25T14:36:44Z</time></trkpt>
<trkpt lat="46.54617397" lon="8.56819902"><ele>1889.907959</ele><time>2007-07-25T14:37:01Z</time></trkpt>
<trkpt lat="46.54594196" lon="8.56838903"><ele>1892.928955</ele><time>2007-07-25T14:37:14Z</time></trkpt>
<trkpt lat="46.54587499" lon="8.56865097"><ele>1894.520996</ele><time>2007-07-25T14:37:25Z</time></trkpt>
<trkpt lat="46.54597197" lon="8.56866396"><ele>1894.780029</ele><time>2007-07-25T14:37:29Z</time></trkpt>
<trkpt lat="46.54627598" lon="8.56848903"><ele>1895.852051</ele><time>2007-07-25T14:37:45Z</time></trkpt>
<trkpt lat="46.54665099" lon="8.56828904"><ele>1898.969971</ele><time>2007-07-25T14:38:05Z</time></trkpt>
<trkpt lat="46.54707402" lon="8.56798100"><ele>1902.198975</ele><time>2007-07-25T14:38:26Z</time></trkpt>
<trkpt lat="46.54719103" lon="8.56751799"><ele>1905.262939</ele><time>2007-07-25T14:38:41Z</time></trkpt>
<trkpt lat="46.54725599" lon="8.56702798"><ele>1908.508057</ele><time>2007-07-25T14:38:58Z</time></trkpt>
<trkpt lat="46.54753000" lon="8.56680804"><ele>1911.412964</ele><time>2007-07-25T14:39:16Z</time></trkpt>
<trkpt lat="46.54793601" lon="8.56674098"><ele>1914.438965</ele><time>2007-07-25T14:39:37Z</time></trkpt>
<trkpt lat="46.54821002" lon="8.56670100"><ele>1916.332031</ele><time>2007-07-25T14:39:50Z</time></trkpt>
<trkpt lat="46.54817599" lon="8.56685003"><ele>1916.932007</ele><time>2007-07-25T14:39:57Z</time></trkpt>
<trkpt lat="46.54771901" lon="8.56699998"><ele>1920.125</ele><time>2007-07-25T14:40:18Z</time></trkpt>
<trkpt lat="46.54756201" lon="8.56710300"><ele>1920.822021</ele><time>2007-07-25T14:40:31Z</time></trkpt>
<trkpt lat="46.54754299" lon="8.56713996"><ele>1921.344971</ele><time>2007-07-25T14:40:45Z</time></trkpt>
<trkpt lat="46.54751600" lon="8.56720400"><ele>1921.824951</ele><time>2007-07-25T14:43:03Z</time></trkpt>
<trkpt lat="46.54743503" lon="8.56772100"><ele>1923.874023</ele><time>2007-07-25T14:43:26Z</time></trkpt>
<trkpt lat="46.54739798" lon="8.56805602"><ele>1927.005005</ele><time>2007-07-25T14:43:41Z</time></trkpt>
<trkpt lat="46.54738801" lon="8.56857000"><ele>1928.910034</ele><time>2007-07-25T14:44:02Z</time></trkpt>
<trkpt lat="46.54723302" lon="8.56894702"><ele>1931.598999</ele><time>2007-07-25T14:44:19Z</time></trkpt>
<trkpt lat="46.54694997" lon="8.56931901"><ele>1934.843994</ele><time>2007-07-25T14:44:40Z</time></trkpt>
<trkpt lat="46.54662802" lon="8.56955797"><ele>1938.010986</ele><time>2007-07-25T14:44:59Z</time></trkpt>
<trkpt lat="46.54637204" lon="8.56973500"><ele>1941.170044</ele><time>2007-07-25T14:45:14Z</time></trkpt>
<trkpt lat="46.54633398" lon="8.56982804"><ele>1941.743042</ele><time>2007-07-25T14:45:18Z</time></trkpt>
<trkpt lat="46.54641101" lon="8.56995704"><ele>1942.019043</ele><time>2007-07-25T14:45:25Z</time></trkpt>
<trkpt lat="46.54674000" lon="8.56975998"><ele>1943.029053</ele><time>2007-07-25T14:45:43Z</time></trkpt>
<trkpt lat="46.54707603" lon="8.56953702"><ele>1946.133057</ele><time>2007-07-25T14:46:01Z</time></trkpt>
<trkpt lat="46.54736998" lon="8.56935203"><ele>1949.160034</ele><time>2007-07-25T14:46:17Z</time></trkpt>
<trkpt lat="46.54766603" lon="8.56904601"><ele>1952.348022</ele><time>2007-07-25T14:46:36Z</time></trkpt>
<trkpt lat="46.54778497" lon="8.56856799"><ele>1955.750977</ele><time>2007-07-25T14:46:55Z</time></trkpt>
<trkpt lat="46.54786703" lon="8.56819499"><ele>1959.14502</ele><time>2007-07-25T14:47:09Z</time></trkpt>
<trkpt lat="46.54788204" lon="8.56814303"><ele>1960.238037</ele><time>2007-07-25T14:47:11Z</time></trkpt>
<trkpt lat="46.54813601" lon="8.56800900"><ele>1963.052979</ele><time>2007-07-25T14:47:27Z</time></trkpt>
<trkpt lat="46.54850104" lon="8.56783600"><ele>1963.824951</ele><time>2007-07-25T14:47:47Z</time></trkpt>
<trkpt lat="46.54844698" lon="8.56797497"><ele>1966.046021</ele><time>2007-07-25T14:47:55Z</time></trkpt>
<trkpt lat="46.54835201" lon="8.56821201"><ele>1967.078979</ele><time>2007-07-25T14:48:06Z</time></trkpt>
<trkpt lat="46.54848000" lon="8.56823497"><ele>1966.615967</ele><time>2007-07-25T14:48:12Z</time></trkpt>
<trkpt lat="46.54881603" lon="8.56786299"><ele>1969.312988</ele><time>2007-07-25T14:48:32Z</time></trkpt>
<trkpt lat="46.54888803" lon="8.56809701"><ele>1971.031982</ele><time>2007-07-25T14:48:43Z</time></trkpt>
<trkpt lat="46.54861998" lon="8.56824000"><ele>1974.321045</ele><time>2007-07-25T14:48:56Z</time></trkpt>
<trkpt lat="46.54859802" lon="8.56824696"><ele>1974.587036</ele><time>2007-07-25T14:48:57Z</time></trkpt>
<trkpt lat="46.54853004" lon="8.56845802"><ele>1975.829956</ele><time>2007-07-25T14:49:06Z</time></trkpt>
<trkpt lat="46.54865996" lon="8.56848199"><ele>1975.838989</ele><time>2007-07-25T14:49:12Z</time></trkpt>
<trkpt lat="46.54901602" lon="8.56825098"><ele>1979.031982</ele><time>2007-07-25T14:49:30Z</time></trkpt>
<trkpt lat="46.54939304" lon="8.56809902"><ele>1981.418945</ele><time>2007-07-25T14:49:51Z</time></trkpt>
<trkpt lat="46.54937100" lon="8.56842902"><ele>1983.727051</ele><time>2007-07-25T14:50:05Z</time></trkpt>
<trkpt lat="46.54913002" lon="8.56851904"><ele>1987.473999</ele><time>2007-07-25T14:50:17Z</time></trkpt>
<trkpt lat="46.54874898" lon="8.56862800"><ele>1990.083984</ele><time>2007-07-25T14:50:37Z</time></trkpt>
<trkpt lat="46.54872500" lon="8.56878097"><ele>1990.312012</ele><time>2007-07-25T14:50:43Z</time></trkpt>
<trkpt lat="46.54897202" lon="8.56891600"><ele>1991.254028</ele><time>2007-07-25T14:50:56Z</time></trkpt>
<trkpt lat="46.54936404" lon="8.56894299"><ele>1994.527954</ele><time>2007-07-25T14:51:15Z</time></trkpt>
<trkpt lat="46.54975296" lon="8.56888197"><ele>1997.06897</ele><time>2007-07-25T14:51:35Z</time></trkpt>
<trkpt lat="46.54972899" lon="8.56926301"><ele>1998.937012</ele><time>2007-07-25T14:51:50Z</time></trkpt>
<trkpt lat="46.54947602" lon="8.56926402"><ele>2002.215942</ele><time>2007-07-25T14:52:03Z</time></trkpt>
<trkpt lat="46.54925499" lon="8.56913997"><ele>2005.241943</ele><time>2007-07-25T14:52:15Z</time></trkpt>
<trkpt lat="46.54905098" lon="8.56922999"><ele>2007.506958</ele><time>2007-07-25T14:52:29Z</time></trkpt>
<trkpt lat="46.54927603" lon="8.56946703"><ele>2007.406982</ele><time>2007-07-25T14:52:42Z</time></trkpt>
<trkpt lat="46.54946504" lon="8.56959603"><ele>2010.103027</ele><time>2007-07-25T14:52:52Z</time></trkpt>
<trkpt lat="46.54979101" lon="8.56991203"><ele>2013.524048</ele><time>2007-07-25T14:53:11Z</time></trkpt>
<trkpt lat="46.55005597" lon="8.57036800"><ele>2016.81604</ele><time>2007-07-25T14:53:31Z</time></trkpt>
<trkpt lat="46.55016803" lon="8.57095599"><ele>2019.712036</ele><time>2007-07-25T14:53:52Z</time></trkpt>
<trkpt lat="46.55025898" lon="8.57152001"><ele>2022.962036</ele><time>2007-07-25T14:54:12Z</time></trkpt>
<trkpt lat="46.55035797" lon="8.57201002"><ele>2025.811035</ele><time>2007-07-25T14:54:31Z</time></trkpt>
<trkpt lat="46.55049501" lon="8.57253003"><ele>2029.266968</ele><time>2007-07-25T14:54:51Z</time></trkpt>
<trkpt lat="46.55077396" lon="8.57286103"><ele>2031.791992</ele><time>2007-07-25T14:55:11Z</time></trkpt>
<trkpt lat="46.55114100" lon="8.57267797"><ele>2034.574951</ele><time>2007-07-25T14:55:30Z</time></trkpt>
<trkpt lat="46.55146496" lon="8.57248401"><ele>2037.842041</ele><time>2007-07-25T14:55:47Z</time></trkpt>
<trkpt lat="46.55183896" lon="8.57227304"><ele>2040.920044</ele><time>2007-07-25T14:56:07Z</time></trkpt>
<trkpt lat="46.55215102" lon="8.57208604"><ele>2044.057007</ele><time>2007-07-25T14:56:24Z</time></trkpt>
<trkpt lat="46.55222403" lon="8.57204304"><ele>2045.182007</ele><time>2007-07-25T14:56:28Z</time></trkpt>
<trkpt lat="46.55259803" lon="8.57183299"><ele>2048.2229</ele><time>2007-07-25T14:56:49Z</time></trkpt>
<trkpt lat="46.55290104" lon="8.57159402"><ele>2051.427979</ele><time>2007-07-25T14:57:08Z</time></trkpt>
<trkpt lat="46.55312500" lon="8.57123402"><ele>2054.525879</ele><time>2007-07-25T14:57:28Z</time></trkpt>
<trkpt lat="46.55334100" lon="8.57081098"><ele>2057.429932</ele><time>2007-07-25T14:57:48Z</time></trkpt>
<trkpt lat="46.55357100" lon="8.57036398"><ele>2060.476074</ele><time>2007-07-25T14:58:09Z</time></trkpt>
<trkpt lat="46.55376404" lon="8.56998696"><ele>2063.510986</ele><time>2007-07-25T14:58:28Z</time></trkpt>
<trkpt lat="46.55396101" lon="8.56961899"><ele>2066.833008</ele><time>2007-07-25T14:58:47Z</time></trkpt>
<trkpt lat="46.55414399" lon="8.56926000"><ele>2070.089111</ele><time>2007-07-25T14:59:05Z</time></trkpt>
<trkpt lat="46.55432101" lon="8.56885297"><ele>2072.888916</ele><time>2007-07-25T14:59:24Z</time></trkpt>
<trkpt lat="46.55447801" lon="8.56837998"><ele>2075.73291</ele><time>2007-07-25T14:59:45Z</time></trkpt>
<trkpt lat="46.55460097" lon="8.56801000"><ele>2078.939941</ele><time>2007-07-25T15:00:02Z</time></trkpt>
<trkpt lat="46.55476500" lon="8.56756702"><ele>2081.459961</ele><time>2007-07-25T15:00:23Z</time></trkpt>
<trkpt lat="46.55498997" lon="8.56732998"><ele>2084.802979</ele><time>2007-07-25T15:00:40Z</time></trkpt>
<trkpt lat="46.55528703" lon="8.56712001"><ele>2088.0271</ele><time>2007-07-25T15:01:00Z</time></trkpt>
<trkpt lat="46.55544796" lon="8.56695103"><ele>2089.746094</ele><time>2007-07-25T15:01:12Z</time></trkpt>
<trkpt lat="46.55539800" lon="8.56689496"><ele>2088.738037</ele><time>2007-07-25T15:01:18Z</time></trkpt>
<trkpt lat="46.55533397" lon="8.56690602"><ele>2089.459961</ele><time>2007-07-25T15:01:36Z</time></trkpt>
<trkpt lat="46.55532500" lon="8.56694098"><ele>2087.216064</ele><time>2007-07-25T15:02:00Z</time></trkpt>
<trkpt lat="46.55532500" lon="8.56694701"><ele>2089.295898</ele><time>2007-07-25T15:02:02Z</time></trkpt>
<trkpt lat="46.55532299" lon="8.56695103"><ele>2093.353027</ele><time>2007-07-25T15:02:10Z</time></trkpt>
<trkpt lat="46.55532198" lon="8.56695204"><ele>2089.721924</ele><time>2007-07-25T15:02:12Z</time></trkpt>
<trkpt lat="46.55532198" lon="8.56695103"><ele>2089.989014</ele><time>2007-07-25T15:02:13Z</time></trkpt>
<trkpt lat="46.55530497" lon="8.56705598"><ele>2090.37793</ele><time>2007-07-25T15:02:58Z</time></trkpt>
<trkpt lat="46.55529298" lon="8.56708498"><ele>2090.221924</ele><time>2007-07-25T15:03:00Z</time></trkpt>
<trkpt lat="46.55536699" lon="8.56709202"><ele>2090.897949</ele><time>2007-07-25T15:03:14Z</time></trkpt>
<trkpt lat="46.55542701" lon="8.56704198"><ele>2090.778076</ele><time>2007-07-25T15:03:41Z</time></trkpt>
<trkpt lat="46.55546598" lon="8.56702899"><ele>2090.98999</ele><time>2007-07-25T15:03:49Z</time></trkpt>
<trkpt lat="46.55551099" lon="8.56696604"><ele>2091.621094</ele><time>2007-07-25T15:03:53Z</time></trkpt>
<trkpt lat="46.55553304" lon="8.56684601"><ele>2090.425049</ele><time>2007-07-25T15:03:59Z</time></trkpt>
<trkpt lat="46.55555097" lon="8.56673503"><ele>2090.805908</ele><time>2007-07-25T15:04:13Z</time></trkpt>
<trkpt lat="46.55551904" lon="8.56668700"><ele>2091.344971</ele><time>2007-07-25T15:04:59Z</time></trkpt>
<trkpt lat="46.55553102" lon="8.56655298"><ele>2092.219971</ele><time>2007-07-25T15:05:09Z</time></trkpt>
<trkpt lat="46.55552901" lon="8.56657402"><ele>2092.620117</ele><time>2007-07-25T15:05:47Z</time></trkpt>
<trkpt lat="46.55551803" lon="8.56660503"><ele>2092.077881</ele><time>2007-07-25T15:06:22Z</time></trkpt>
<trkpt lat="46.55546397" lon="8.56682003"><ele>2092.196045</ele><time>2007-07-25T15:06:30Z</time></trkpt>
<trkpt lat="46.55540102" lon="8.56695296"><ele>2092.501953</ele><time>2007-07-25T15:06:35Z</time></trkpt>
<trkpt lat="46.55524604" lon="8.56707500"><ele>2092.398926</ele><time>2007-07-25T15:06:46Z</time></trkpt>
<trkpt lat="46.55521796" lon="8.56708397"><ele>2092.302002</ele><time>2007-07-25T15:06:49Z</time></trkpt>
<trkpt lat="46.55527001" lon="8.56706302"><ele>2092.042969</ele><time>2007-07-25T15:06:53Z</time></trkpt>
<trkpt lat="46.55548903" lon="8.56700602"><ele>2092.511963</ele><time>2007-07-25T15:07:05Z</time></trkpt>
<trkpt lat="46.55577502" lon="8.56715396"><ele>2092.089111</ele><time>2007-07-25T15:07:16Z</time></trkpt>
<trkpt lat="46.55586798" lon="8.56728799"><ele>2092.283936</ele><time>2007-07-25T15:07:23Z</time></trkpt>
<trkpt lat="46.55592497" lon="8.56733099"><ele>2092.187012</ele><time>2007-07-25T15:07:27Z</time></trkpt>
<trkpt lat="46.55602799" lon="8.56738304"><ele>2092.208008</ele><time>2007-07-25T15:07:33Z</time></trkpt>
<trkpt lat="46.55619303" lon="8.56744800"><ele>2092.904053</ele><time>2007-07-25T15:07:42Z</time></trkpt>
<trkpt lat="46.55621801" lon="8.56763701"><ele>2092.74707</ele><time>2007-07-25T15:07:52Z</time></trkpt>
<trkpt lat="46.55622597" lon="8.56764698"><ele>2093.162109</ele><time>2007-07-25T15:08:05Z</time></trkpt>
<trkpt lat="46.55629001" lon="8.56763399"><ele>2092.425049</ele><time>2007-07-25T15:08:09Z</time></trkpt>
<trkpt lat="46.55631197" lon="8.56751396"><ele>2092.612061</ele><time>2007-07-25T15:08:15Z</time></trkpt>
<trkpt lat="46.55619303" lon="8.56746904"><ele>2092.98291</ele><time>2007-07-25T15:08:31Z</time></trkpt>
<trkpt lat="46.55618498" lon="8.56746300"><ele>2092.485107</ele><time>2007-07-25T15:08:36Z</time></trkpt>
<trkpt lat="46.55605598" lon="8.56744599"><ele>2092.938965</ele><time>2007-07-25T15:08:45Z</time></trkpt>
<trkpt lat="46.55596303" lon="8.56746803"><ele>2093.062988</ele><time>2007-07-25T15:08:52Z</time></trkpt>
<trkpt lat="46.55593604" lon="8.56752000"><ele>2092.789063</ele><time>2007-07-25T15:09:08Z</time></trkpt>
<trkpt lat="46.55592296" lon="8.56752704"><ele>2092.823975</ele><time>2007-07-25T15:09:26Z</time></trkpt>
<trkpt lat="46.55592397" lon="8.56753500"><ele>2095.87793</ele><time>2007-07-25T15:10:51Z</time></trkpt>
<trkpt lat="46.55594098" lon="8.56754003"><ele>2092.693115</ele><time>2007-07-25T15:11:11Z</time></trkpt>
<trkpt lat="46.55594903" lon="8.56749603"><ele>2094.059082</ele><time>2007-07-25T15:11:27Z</time></trkpt>
<trkpt lat="46.55610996" lon="8.56744297"><ele>2093.190918</ele><time>2007-07-25T15:11:46Z</time></trkpt>
<trkpt lat="46.55610904" lon="8.56744104"><ele>2094.030029</ele><time>2007-07-25T15:12:08Z</time></trkpt>
<trkpt lat="46.55611801" lon="8.56743601"><ele>2093.826904</ele><time>2007-07-25T15:12:34Z</time></trkpt>
<trkpt lat="46.55610401" lon="8.56742696"><ele>2094.23999</ele><time>2007-07-25T15:12:49Z</time></trkpt>
<trkpt lat="46.55599404" lon="8.56744800"><ele>2094.298096</ele><time>2007-07-25T15:13:00Z</time></trkpt>
<trkpt lat="46.55597401" lon="8.56750701"><ele>2093.022949</ele><time>2007-07-25T15:13:16Z</time></trkpt>
<trkpt lat="46.55596999" lon="8.56750801"><ele>2094.458984</ele><time>2007-07-25T15:13:52Z</time></trkpt>
<trkpt lat="46.55596797" lon="8.56752897"><ele>2094.531982</ele><time>2007-07-25T15:17:09Z</time></trkpt>
<trkpt lat="46.55596999" lon="8.56754296"><ele>2094.789063</ele><time>2007-07-25T15:17:24Z</time></trkpt>
<trkpt lat="46.55596504" lon="8.56750600"><ele>2094.162109</ele><time>2007-07-25T15:21:03Z</time></trkpt>
<trkpt lat="46.55593302" lon="8.56749301"><ele>2095.23291</ele><time>2007-07-25T15:22:19Z</time></trkpt>
<trkpt lat="46.55595004" lon="8.56747700"><ele>2095.886963</ele><time>2007-07-25T15:22:35Z</time></trkpt>
<trkpt lat="46.55596596" lon="8.56744397"><ele>2096.157959</ele><time>2007-07-25T15:22:37Z</time></trkpt>
<trkpt lat="46.55603897" lon="8.56738304"><ele>2095.224121</ele><time>2007-07-25T15:22:44Z</time></trkpt>
<trkpt lat="46.55604299" lon="8.56739502"><ele>2094.977051</ele><time>2007-07-25T15:22:46Z</time></trkpt>
<trkpt lat="46.55597099" lon="8.56745303"><ele>2095.325928</ele><time>2007-07-25T15:22:53Z</time></trkpt>
<trkpt lat="46.55596102" lon="8.56751304"><ele>2095.400879</ele><time>2007-07-25T15:23:06Z</time></trkpt>
<trkpt lat="46.55594300" lon="8.56752897"><ele>2096.423096</ele><time>2007-07-25T15:24:01Z</time></trkpt>
<trkpt lat="46.55591601" lon="8.56752897"><ele>2096.262939</ele><time>2007-07-25T15:24:31Z</time></trkpt>
<trkpt lat="46.55590896" lon="8.56748597"><ele>2095.87793</ele><time>2007-07-25T15:25:20Z</time></trkpt>
<trkpt lat="46.55591098" lon="8.56748597"><ele>2093.929932</ele><time>2007-07-25T15:25:23Z</time></trkpt>
<trkpt lat="46.55591198" lon="8.56748697"><ele>2099.0271</ele><time>2007-07-25T15:25:25Z</time></trkpt>
<trkpt lat="46.55591299" lon="8.56748697"><ele>2099.0271</ele><time>2007-07-25T15:25:26Z</time></trkpt>
<trkpt lat="46.55591399" lon="8.56748697"><ele>2095.949951</ele><time>2007-07-25T15:25:29Z</time></trkpt>
<trkpt lat="46.55592204" lon="8.56747298"><ele>2095.093994</ele><time>2007-07-25T15:25:36Z</time></trkpt>
<trkpt lat="46.55612203" lon="8.56741296"><ele>2095.220947</ele><time>2007-07-25T15:25:48Z</time></trkpt>
<trkpt lat="46.55659502" lon="8.56743098"><ele>2095.452881</ele><time>2007-07-25T15:26:04Z</time></trkpt>
<trkpt lat="46.55702401" lon="8.56711197"><ele>2094.64502</ele><time>2007-07-25T15:26:19Z</time></trkpt>
<trkpt lat="46.55757898" lon="8.56638098"><ele>2095.281982</ele><time>2007-07-25T15:26:36Z</time></trkpt>
<trkpt lat="46.55802699" lon="8.56536501"><ele>2096.88501</ele><time>2007-07-25T15:26:56Z</time></trkpt>
<trkpt lat="46.55842597" lon="8.56420596"><ele>2098.762939</ele><time>2007-07-25T15:27:19Z</time></trkpt>
<trkpt lat="46.55860299" lon="8.56368503"><ele>2101.875</ele><time>2007-07-25T15:27:33Z</time></trkpt>
<trkpt lat="46.55881799" lon="8.56309896"><ele>2105.365967</ele><time>2007-07-25T15:27:50Z</time></trkpt>
<trkpt lat="46.55911102" lon="8.56219397"><ele>2108.516113</ele><time>2007-07-25T15:28:15Z</time></trkpt>
<trkpt lat="46.55940397" lon="8.56133197"><ele>2110.274902</ele><time>2007-07-25T15:28:36Z</time></trkpt>
<trkpt lat="46.55977503" lon="8.56033696"><ele>2107.971924</ele><time>2007-07-25T15:28:53Z</time></trkpt>
<trkpt lat="46.56001098" lon="8.55992197"><ele>2104.031982</ele><time>2007-07-25T15:28:59Z</time></trkpt>
<trkpt lat="46.56017996" lon="8.55970404"><ele>2100.375977</ele><time>2007-07-25T15:29:02Z</time></trkpt>
<trkpt lat="46.56038901" lon="8.55948100"><ele>2096.707031</ele><time>2007-07-25T15:29:05Z</time></trkpt>
<trkpt lat="46.56064700" lon="8.55927598"><ele>2094.218994</ele><time>2007-07-25T15:29:08Z</time></trkpt>
<trkpt lat="46.56106199" lon="8.55917598"><ele>2088.64209</ele><time>2007-07-25T15:29:12Z</time></trkpt>
<trkpt lat="46.56115796" lon="8.55921999"><ele>2088.720947</ele><time>2007-07-25T15:29:13Z</time></trkpt>
<trkpt lat="46.56124396" lon="8.55927497"><ele>2089.360107</ele><time>2007-07-25T15:29:14Z</time></trkpt>
<trkpt lat="46.56158804" lon="8.55948200"><ele>2085.884033</ele><time>2007-07-25T15:29:18Z</time></trkpt>
<trkpt lat="46.56197201" lon="8.55961201"><ele>2081.716064</ele><time>2007-07-25T15:29:22Z</time></trkpt>
<trkpt lat="46.56207201" lon="8.55964403"><ele>2081.979004</ele><time>2007-07-25T15:29:23Z</time></trkpt>
<trkpt lat="46.56236001" lon="8.55972097"><ele>2079.582031</ele><time>2007-07-25T15:29:26Z</time></trkpt>
<trkpt lat="46.56274499" lon="8.55955602"><ele>2074.37793</ele><time>2007-07-25T15:29:30Z</time></trkpt>
<trkpt lat="46.56283904" lon="8.55897004"><ele>2070.913086</ele><time>2007-07-25T15:29:34Z</time></trkpt>
<trkpt lat="46.56279897" lon="8.55881698"><ele>2070.115967</ele><time>2007-07-25T15:29:35Z</time></trkpt>
<trkpt lat="46.56265598" lon="8.55838104"><ele>2066.895996</ele><time>2007-07-25T15:29:38Z</time></trkpt>
<trkpt lat="46.56261097" lon="8.55824299"><ele>2066.794922</ele><time>2007-07-25T15:29:39Z</time></trkpt>
<trkpt lat="46.56248096" lon="8.55784896"><ele>2063.727051</ele><time>2007-07-25T15:29:42Z</time></trkpt>
<trkpt lat="46.56243897" lon="8.55772197"><ele>2064.187988</ele><time>2007-07-25T15:29:43Z</time></trkpt>
<trkpt lat="46.56226496" lon="8.55722702"><ele>2060.499023</ele><time>2007-07-25T15:29:47Z</time></trkpt>
<trkpt lat="46.56219296" lon="8.55700398"><ele>2057.657959</ele><time>2007-07-25T15:29:49Z</time></trkpt>
<trkpt lat="46.56215399" lon="8.55667700"><ele>2055.89209</ele><time>2007-07-25T15:29:52Z</time></trkpt>
<trkpt lat="46.56228097" lon="8.55642999"><ele>2051.697021</ele><time>2007-07-25T15:29:55Z</time></trkpt>
<trkpt lat="46.56235197" lon="8.55639797"><ele>2051.434082</ele><time>2007-07-25T15:29:56Z</time></trkpt>
<trkpt lat="46.56259102" lon="8.55647198"><ele>2048.475098</ele><time>2007-07-25T15:29:59Z</time></trkpt>
<trkpt lat="46.56302302" lon="8.55674800"><ele>2044.939941</ele><time>2007-07-25T15:30:05Z</time></trkpt>
<trkpt lat="46.56329300" lon="8.55692100"><ele>2041.865967</ele><time>2007-07-25T15:30:09Z</time></trkpt>
<trkpt lat="46.56335796" lon="8.55696299"><ele>2041.712036</ele><time>2007-07-25T15:30:10Z</time></trkpt>
<trkpt lat="46.56361202" lon="8.55713298"><ele>2039.504028</ele><time>2007-07-25T15:30:14Z</time></trkpt>
<trkpt lat="46.56380598" lon="8.55725300"><ele>2036.258057</ele><time>2007-07-25T15:30:17Z</time></trkpt>
<trkpt lat="46.56393397" lon="8.55733297"><ele>2035.310059</ele><time>2007-07-25T15:30:19Z</time></trkpt>
<trkpt lat="46.56411996" lon="8.55744797"><ele>2034.019043</ele><time>2007-07-25T15:30:22Z</time></trkpt>
<trkpt lat="46.56441400" lon="8.55749801"><ele>2032.150024</ele><time>2007-07-25T15:30:27Z</time></trkpt>
<trkpt lat="46.56468297" lon="8.55712300"><ele>2029.258057</ele><time>2007-07-25T15:30:34Z</time></trkpt>
<trkpt lat="46.56480099" lon="8.55674598"><ele>2025.400024</ele><time>2007-07-25T15:30:38Z</time></trkpt>
<trkpt lat="46.56512403" lon="8.55610804"><ele>2019.034058</ele><time>2007-07-25T15:30:44Z</time></trkpt>
<trkpt lat="46.56520802" lon="8.55602397"><ele>2019.034058</ele><time>2007-07-25T15:30:45Z</time></trkpt>
<trkpt lat="46.56539401" lon="8.55590704"><ele>2014.887939</ele><time>2007-07-25T15:30:47Z</time></trkpt>
<trkpt lat="46.56549501" lon="8.55586697"><ele>2013.772949</ele><time>2007-07-25T15:30:48Z</time></trkpt>
<trkpt lat="46.56570196" lon="8.55580503"><ele>2011.965942</ele><time>2007-07-25T15:30:50Z</time></trkpt>
<trkpt lat="46.56591604" lon="8.55575097"><ele>2010.077026</ele><time>2007-07-25T15:30:52Z</time></trkpt>
<trkpt lat="46.56624796" lon="8.55565902"><ele>2005.458008</ele><time>2007-07-25T15:30:55Z</time></trkpt>
<trkpt lat="46.56636296" lon="8.55563303"><ele>2005.46106</ele><time>2007-07-25T15:30:56Z</time></trkpt>
<trkpt lat="46.56682899" lon="8.55570302"><ele>1998.493042</ele><time>2007-07-25T15:31:00Z</time></trkpt>
<trkpt lat="46.56704198" lon="8.55585298"><ele>1997.764038</ele><time>2007-07-25T15:31:02Z</time></trkpt>
<trkpt lat="46.56744900" lon="8.55619404"><ele>1993.130005</ele><time>2007-07-25T15:31:06Z</time></trkpt>
<trkpt lat="46.56795200" lon="8.55661003"><ele>1989.506958</ele><time>2007-07-25T15:31:11Z</time></trkpt>
<trkpt lat="46.56825098" lon="8.55687004"><ele>1986.003052</ele><time>2007-07-25T15:31:14Z</time></trkpt>
<trkpt lat="46.56854896" lon="8.55711697"><ele>1983.719971</ele><time>2007-07-25T15:31:17Z</time></trkpt>
<trkpt lat="46.56909797" lon="8.55729500"><ele>1978.166992</ele><time>2007-07-25T15:31:22Z</time></trkpt>
<trkpt lat="46.56954699" lon="8.55737404"><ele>1974.516968</ele><time>2007-07-25T15:31:26Z</time></trkpt>
<trkpt lat="46.56987699" lon="8.55743196"><ele>1971.291992</ele><time>2007-07-25T15:31:29Z</time></trkpt>
<trkpt lat="46.56998604" lon="8.55745199"><ele>1971.121948</ele><time>2007-07-25T15:31:30Z</time></trkpt>
<trkpt lat="46.57020296" lon="8.55748996"><ele>1969.813965</ele><time>2007-07-25T15:31:32Z</time></trkpt>
<trkpt lat="46.57041402" lon="8.55753296"><ele>1968.312988</ele><time>2007-07-25T15:31:34Z</time></trkpt>
<trkpt lat="46.57107501" lon="8.55777000"><ele>1966.390991</ele><time>2007-07-25T15:31:41Z</time></trkpt>
<trkpt lat="46.57221504" lon="8.55825900"><ele>1964.384033</ele><time>2007-07-25T15:31:57Z</time></trkpt>
<trkpt lat="46.57235401" lon="8.55831600"><ele>1963.397949</ele><time>2007-07-25T15:31:59Z</time></trkpt>
<trkpt lat="46.57295600" lon="8.55857500"><ele>1962.432007</ele><time>2007-07-25T15:32:08Z</time></trkpt>
<trkpt lat="46.57394397" lon="8.55921596"><ele>1962.407959</ele><time>2007-07-25T15:32:26Z</time></trkpt>
<trkpt lat="46.57440498" lon="8.55950497"><ele>1960.765015</ele><time>2007-07-25T15:32:35Z</time></trkpt>
<trkpt lat="46.57452802" lon="8.55953498"><ele>1959.353027</ele><time>2007-07-25T15:32:37Z</time></trkpt>
<trkpt lat="46.57465400" lon="8.55951402"><ele>1958.404053</ele><time>2007-07-25T15:32:39Z</time></trkpt>
<trkpt lat="46.57491602" lon="8.55927899"><ele>1957.696045</ele><time>2007-07-25T15:32:44Z</time></trkpt>
<trkpt lat="46.57526697" lon="8.55860903"><ele>1954.386963</ele><time>2007-07-25T15:32:52Z</time></trkpt>
<trkpt lat="46.57561298" lon="8.55832899"><ele>1950.55603</ele><time>2007-07-25T15:32:57Z</time></trkpt>
<trkpt lat="46.57593199" lon="8.55835900"><ele>1948.946045</ele><time>2007-07-25T15:33:01Z</time></trkpt>
<trkpt lat="46.57623399" lon="8.55848598"><ele>1947.18396</ele><time>2007-07-25T15:33:05Z</time></trkpt>
<trkpt lat="46.57673498" lon="8.55871598"><ele>1944.744995</ele><time>2007-07-25T15:33:12Z</time></trkpt>
<trkpt lat="46.57734803" lon="8.55898999"><ele>1942.503052</ele><time>2007-07-25T15:33:21Z</time></trkpt>
<trkpt lat="46.57761198" lon="8.55901203"><ele>1939.979004</ele><time>2007-07-25T15:33:25Z</time></trkpt>
<trkpt lat="46.57783502" lon="8.55882796"><ele>1939.69397</ele><time>2007-07-25T15:33:29Z</time></trkpt>
<trkpt lat="46.57798296" lon="8.55862504"><ele>1937.938965</ele><time>2007-07-25T15:33:32Z</time></trkpt>
<trkpt lat="46.57820097" lon="8.55833997"><ele>1936.312988</ele><time>2007-07-25T15:33:36Z</time></trkpt>
<trkpt lat="46.57855402" lon="8.55810000"><ele>1933.019043</ele><time>2007-07-25T15:33:41Z</time></trkpt>
<trkpt lat="46.57863398" lon="8.55808097"><ele>1932.531006</ele><time>2007-07-25T15:33:42Z</time></trkpt>
<trkpt lat="46.57879399" lon="8.55806697"><ele>1931.563965</ele><time>2007-07-25T15:33:44Z</time></trkpt>
<trkpt lat="46.58008497" lon="8.55831499"><ele>1927.963989</ele><time>2007-07-25T15:34:00Z</time></trkpt>
<trkpt lat="46.58074002" lon="8.55826998"><ele>1924.083984</ele><time>2007-07-25T15:34:09Z</time></trkpt>
<trkpt lat="46.58082400" lon="8.55826696"><ele>1923.495972</ele><time>2007-07-25T15:34:10Z</time></trkpt>
<trkpt lat="46.58117403" lon="8.55840300"><ele>1919.026001</ele><time>2007-07-25T15:34:14Z</time></trkpt>
<trkpt lat="46.58126003" lon="8.55847299"><ele>1917.92395</ele><time>2007-07-25T15:34:15Z</time></trkpt>
<trkpt lat="46.58167996" lon="8.55887901"><ele>1913.973999</ele><time>2007-07-25T15:34:20Z</time></trkpt>
<trkpt lat="46.58202002" lon="8.55917699"><ele>1914.295044</ele><time>2007-07-25T15:34:27Z</time></trkpt>
<trkpt lat="46.58204399" lon="8.55922200"><ele>1914.20105</ele><time>2007-07-25T15:34:36Z</time></trkpt>
<trkpt lat="46.58226100" lon="8.55924203"><ele>1911.074951</ele><time>2007-07-25T15:34:43Z</time></trkpt>
<trkpt lat="46.58237700" lon="8.55918101"><ele>1908.10498</ele><time>2007-07-25T15:34:45Z</time></trkpt>
<trkpt lat="46.58264397" lon="8.55896199"><ele>1904.793945</ele><time>2007-07-25T15:34:49Z</time></trkpt>
<trkpt lat="46.58287296" lon="8.55871498"><ele>1901.621948</ele><time>2007-07-25T15:34:52Z</time></trkpt>
<trkpt lat="46.58304102" lon="8.55854097"><ele>1898.220947</ele><time>2007-07-25T15:34:54Z</time></trkpt>
<trkpt lat="46.58313003" lon="8.55845002"><ele>1897.942993</ele><time>2007-07-25T15:34:55Z</time></trkpt>
<trkpt lat="46.58340697" lon="8.55817099"><ele>1893.600952</ele><time>2007-07-25T15:34:58Z</time></trkpt>
<trkpt lat="46.58371601" lon="8.55789003"><ele>1890.010986</ele><time>2007-07-25T15:35:01Z</time></trkpt>
<trkpt lat="46.58393797" lon="8.55774100"><ele>1885.96106</ele><time>2007-07-25T15:35:03Z</time></trkpt>
<trkpt lat="46.58439696" lon="8.55756800"><ele>1882.641968</ele><time>2007-07-25T15:35:07Z</time></trkpt>
<trkpt lat="46.58465001" lon="8.55753296"><ele>1881.530029</ele><time>2007-07-25T15:35:09Z</time></trkpt>
<trkpt lat="46.58515502" lon="8.55758099"><ele>1877.795044</ele><time>2007-07-25T15:35:13Z</time></trkpt>
<trkpt lat="46.58541000" lon="8.55764201"><ele>1876.737061</ele><time>2007-07-25T15:35:15Z</time></trkpt>
<trkpt lat="46.58580001" lon="8.55772398"><ele>1870.812012</ele><time>2007-07-25T15:35:18Z</time></trkpt>
<trkpt lat="46.58629001" lon="8.55755400"><ele>1865.389038</ele><time>2007-07-25T15:35:22Z</time></trkpt>
<trkpt lat="46.58662696" lon="8.55729802"><ele>1861.650024</ele><time>2007-07-25T15:35:25Z</time></trkpt>
<trkpt lat="46.58725200" lon="8.55709400"><ele>1857.14502</ele><time>2007-07-25T15:35:30Z</time></trkpt>
<trkpt lat="46.58777503" lon="8.55699400"><ele>1852.723022</ele><time>2007-07-25T15:35:34Z</time></trkpt>
<trkpt lat="46.58818399" lon="8.55698604"><ele>1849.407959</ele><time>2007-07-25T15:35:37Z</time></trkpt>
<trkpt lat="46.58859503" lon="8.55711403"><ele>1845.328003</ele><time>2007-07-25T15:35:40Z</time></trkpt>
<trkpt lat="46.58899301" lon="8.55733196"><ele>1842.011963</ele><time>2007-07-25T15:35:43Z</time></trkpt>
<trkpt lat="46.58923801" lon="8.55754796"><ele>1835.854004</ele><time>2007-07-25T15:35:45Z</time></trkpt>
<trkpt lat="46.58976104" lon="8.55776899"><ele>1830.243042</ele><time>2007-07-25T15:35:49Z</time></trkpt>
<trkpt lat="46.59017201" lon="8.55770596"><ele>1830.126953</ele><time>2007-07-25T15:35:52Z</time></trkpt>
<trkpt lat="46.59083501" lon="8.55798701"><ele>1824.161987</ele><time>2007-07-25T15:35:57Z</time></trkpt>
<trkpt lat="46.59113199" lon="8.55845002"><ele>1819.892944</ele><time>2007-07-25T15:36:00Z</time></trkpt>
<trkpt lat="46.59121103" lon="8.55863099"><ele>1818.103027</ele><time>2007-07-25T15:36:01Z</time></trkpt>
<trkpt lat="46.59151504" lon="8.55936700"><ele>1813.246948</ele><time>2007-07-25T15:36:05Z</time></trkpt>
<trkpt lat="46.59169701" lon="8.55969599"><ele>1810.090942</ele><time>2007-07-25T15:36:07Z</time></trkpt>
<trkpt lat="46.59179701" lon="8.55984796"><ele>1810.197998</ele><time>2007-07-25T15:36:08Z</time></trkpt>
<trkpt lat="46.59219699" lon="8.56039898"><ele>1807.159058</ele><time>2007-07-25T15:36:12Z</time></trkpt>
<trkpt lat="46.59252003" lon="8.56082797"><ele>1804.519043</ele><time>2007-07-25T15:36:16Z</time></trkpt>
<trkpt lat="46.59265699" lon="8.56140004"><ele>1800.06604</ele><time>2007-07-25T15:36:21Z</time></trkpt>
<trkpt lat="46.59257703" lon="8.56151504"><ele>1798.928955</ele><time>2007-07-25T15:36:23Z</time></trkpt>
<trkpt lat="46.59227301" lon="8.56135896"><ele>1795.126953</ele><time>2007-07-25T15:36:26Z</time></trkpt>
<trkpt lat="46.59200496" lon="8.56099603"><ele>1792.276978</ele><time>2007-07-25T15:36:29Z</time></trkpt>
<trkpt lat="46.59193296" lon="8.56086401"><ele>1792.578979</ele><time>2007-07-25T15:36:30Z</time></trkpt>
<trkpt lat="46.59177002" lon="8.56045003"><ele>1789.767944</ele><time>2007-07-25T15:36:33Z</time></trkpt>
<trkpt lat="46.59169701" lon="8.56033302"><ele>1789.555054</ele><time>2007-07-25T15:36:34Z</time></trkpt>
<trkpt lat="46.59118999" lon="8.56020100"><ele>1784.516968</ele><time>2007-07-25T15:36:39Z</time></trkpt>
<trkpt lat="46.59108102" lon="8.56062303"><ele>1780.973999</ele><time>2007-07-25T15:36:42Z</time></trkpt>
<trkpt lat="46.59119502" lon="8.56110499"><ele>1778.713013</ele><time>2007-07-25T15:36:45Z</time></trkpt>
<trkpt lat="46.59140004" lon="8.56173104"><ele>1775.862061</ele><time>2007-07-25T15:36:49Z</time></trkpt>
<trkpt lat="46.59184503" lon="8.56238298"><ele>1771.057983</ele><time>2007-07-25T15:36:54Z</time></trkpt>
<trkpt lat="46.59217503" lon="8.56269102"><ele>1767.078979</ele><time>2007-07-25T15:36:57Z</time></trkpt>
<trkpt lat="46.59241601" lon="8.56283703"><ele>1764.520996</ele><time>2007-07-25T15:36:59Z</time></trkpt>
<trkpt lat="46.59268096" lon="8.56290903"><ele>1761.51001</ele><time>2007-07-25T15:37:01Z</time></trkpt>
<trkpt lat="46.59281901" lon="8.56292102"><ele>1761.375977</ele><time>2007-07-25T15:37:02Z</time></trkpt>
<trkpt lat="46.59295999" lon="8.56291599"><ele>1759.790039</ele><time>2007-07-25T15:37:03Z</time></trkpt>
<trkpt lat="46.59322604" lon="8.56288204"><ele>1755.515991</ele><time>2007-07-25T15:37:05Z</time></trkpt>
<trkpt lat="46.59349602" lon="8.56276402"><ele>1754.650024</ele><time>2007-07-25T15:37:07Z</time></trkpt>
<trkpt lat="46.59372501" lon="8.56254601"><ele>1752.922974</ele><time>2007-07-25T15:37:09Z</time></trkpt>
<trkpt lat="46.59426799" lon="8.56219204"><ele>1745.371948</ele><time>2007-07-25T15:37:14Z</time></trkpt>
<trkpt lat="46.59439498" lon="8.56221300"><ele>1745.761963</ele><time>2007-07-25T15:37:15Z</time></trkpt>
<trkpt lat="46.59475800" lon="8.56235499"><ele>1743.380981</ele><time>2007-07-25T15:37:18Z</time></trkpt>
<trkpt lat="46.59500199" lon="8.56243797"><ele>1741.427979</ele><time>2007-07-25T15:37:20Z</time></trkpt>
<trkpt lat="46.59547901" lon="8.56242799"><ele>1738.35498</ele><time>2007-07-25T15:37:24Z</time></trkpt>
<trkpt lat="46.59571999" lon="8.56239002"><ele>1736.927979</ele><time>2007-07-25T15:37:26Z</time></trkpt>
<trkpt lat="46.59608200" lon="8.56245699"><ele>1733.196045</ele><time>2007-07-25T15:37:29Z</time></trkpt>
<trkpt lat="46.59653496" lon="8.56270996"><ele>1731.281006</ele><time>2007-07-25T15:37:33Z</time></trkpt>
<trkpt lat="46.59686403" lon="8.56294096"><ele>1728.560059</ele><time>2007-07-25T15:37:36Z</time></trkpt>
<trkpt lat="46.59719202" lon="8.56317499"><ele>1723.988037</ele><time>2007-07-25T15:37:39Z</time></trkpt>
<trkpt lat="46.59730299" lon="8.56324104"><ele>1725.942993</ele><time>2007-07-25T15:37:40Z</time></trkpt>
<trkpt lat="46.59765302" lon="8.56331999"><ele>1721.510986</ele><time>2007-07-25T15:37:43Z</time></trkpt>
<trkpt lat="46.59800297" lon="8.56327599"><ele>1718.114014</ele><time>2007-07-25T15:37:46Z</time></trkpt>
<trkpt lat="46.59831603" lon="8.56324498"><ele>1714.577026</ele><time>2007-07-25T15:37:49Z</time></trkpt>
<trkpt lat="46.59861602" lon="8.56320600"><ele>1711.793945</ele><time>2007-07-25T15:37:52Z</time></trkpt>
<trkpt lat="46.59913201" lon="8.56312000"><ele>1709.137939</ele><time>2007-07-25T15:37:57Z</time></trkpt>
<trkpt lat="46.59942001" lon="8.56312403"><ele>1705.852051</ele><time>2007-07-25T15:38:00Z</time></trkpt>
<trkpt lat="46.59985302" lon="8.56319200"><ele>1703.239014</ele><time>2007-07-25T15:38:04Z</time></trkpt>
<trkpt lat="46.60027798" lon="8.56335604"><ele>1700.93396</ele><time>2007-07-25T15:38:08Z</time></trkpt>
<trkpt lat="46.60057697" lon="8.56352300"><ele>1698.805054</ele><time>2007-07-25T15:38:11Z</time></trkpt>
<trkpt lat="46.60126001" lon="8.56385401"><ele>1695.603027</ele><time>2007-07-25T15:38:18Z</time></trkpt>
<trkpt lat="46.60166603" lon="8.56399298"><ele>1692.745972</ele><time>2007-07-25T15:38:22Z</time></trkpt>
<trkpt lat="46.60188002" lon="8.56406598"><ele>1690.978027</ele><time>2007-07-25T15:38:24Z</time></trkpt>
<trkpt lat="46.60211102" lon="8.56414402"><ele>1686.987061</ele><time>2007-07-25T15:38:26Z</time></trkpt>
<trkpt lat="46.60284704" lon="8.56442104"><ele>1682.68103</ele><time>2007-07-25T15:38:32Z</time></trkpt>
<trkpt lat="46.60310000" lon="8.56456303"><ele>1679.332031</ele><time>2007-07-25T15:38:34Z</time></trkpt>
<trkpt lat="46.60334802" lon="8.56473302"><ele>1674.890015</ele><time>2007-07-25T15:38:36Z</time></trkpt>
<trkpt lat="46.60403500" lon="8.56524498"><ele>1671.280029</ele><time>2007-07-25T15:38:42Z</time></trkpt>
<trkpt lat="46.60483397" lon="8.56568797"><ele>1667.776978</ele><time>2007-07-25T15:38:50Z</time></trkpt>
<trkpt lat="46.60533302" lon="8.56576198"><ele>1666.280029</ele><time>2007-07-25T15:38:55Z</time></trkpt>
<trkpt lat="46.60579504" lon="8.56593196"><ele>1661.758057</ele><time>2007-07-25T15:39:00Z</time></trkpt>
<trkpt lat="46.60589000" lon="8.56598301"><ele>1661.633057</ele><time>2007-07-25T15:39:01Z</time></trkpt>
<trkpt lat="46.60629502" lon="8.56636003"><ele>1658.604004</ele><time>2007-07-25T15:39:06Z</time></trkpt>
<trkpt lat="46.60658302" lon="8.56670997"><ele>1657.22998</ele><time>2007-07-25T15:39:10Z</time></trkpt>
<trkpt lat="46.60710798" lon="8.56729302"><ele>1653.656006</ele><time>2007-07-25T15:39:17Z</time></trkpt>
<trkpt lat="46.60730101" lon="8.56755696"><ele>1651.925049</ele><time>2007-07-25T15:39:20Z</time></trkpt>
<trkpt lat="46.60763101" lon="8.56798000"><ele>1648.896973</ele><time>2007-07-25T15:39:25Z</time></trkpt>
<trkpt lat="46.60805597" lon="8.56854200"><ele>1645.694946</ele><time>2007-07-25T15:39:31Z</time></trkpt>
<trkpt lat="46.60812998" lon="8.56864602"><ele>1645.583984</ele><time>2007-07-25T15:39:32Z</time></trkpt>
<trkpt lat="46.60835101" lon="8.56896998"><ele>1644.009033</ele><time>2007-07-25T15:39:35Z</time></trkpt>
<trkpt lat="46.60876801" lon="8.56964003"><ele>1640.64502</ele><time>2007-07-25T15:39:41Z</time></trkpt>
<trkpt lat="46.60883498" lon="8.56975302"><ele>1640.480957</ele><time>2007-07-25T15:39:42Z</time></trkpt>
<trkpt lat="46.60902701" lon="8.57009400"><ele>1638.791992</ele><time>2007-07-25T15:39:45Z</time></trkpt>
<trkpt lat="46.60927503" lon="8.57056196"><ele>1635.68396</ele><time>2007-07-25T15:39:49Z</time></trkpt>
<trkpt lat="46.60939397" lon="8.57079699"><ele>1633.977051</ele><time>2007-07-25T15:39:51Z</time></trkpt>
<trkpt lat="46.60956899" lon="8.57114601"><ele>1635.439941</ele><time>2007-07-25T15:39:54Z</time></trkpt>
<trkpt lat="46.60992002" lon="8.57184296"><ele>1632.454956</ele><time>2007-07-25T15:40:00Z</time></trkpt>
<trkpt lat="46.61006302" lon="8.57202703"><ele>1629.532959</ele><time>2007-07-25T15:40:02Z</time></trkpt>
<trkpt lat="46.61056501" lon="8.57216399"><ele>1628.079956</ele><time>2007-07-25T15:40:07Z</time></trkpt>
<trkpt lat="46.61080599" lon="8.57205402"><ele>1624.668945</ele><time>2007-07-25T15:40:10Z</time></trkpt>
<trkpt lat="46.61087899" lon="8.57198596"><ele>1624.401001</ele><time>2007-07-25T15:40:11Z</time></trkpt>
<trkpt lat="46.61101202" lon="8.57181396"><ele>1621.883057</ele><time>2007-07-25T15:40:13Z</time></trkpt>
<trkpt lat="46.61120396" lon="8.57152998"><ele>1620.78894</ele><time>2007-07-25T15:40:16Z</time></trkpt>
<trkpt lat="46.61180201" lon="8.57130996"><ele>1616.630005</ele><time>2007-07-25T15:40:22Z</time></trkpt>
<trkpt lat="46.61191802" lon="8.57136603"><ele>1615.866943</ele><time>2007-07-25T15:40:23Z</time></trkpt>
<trkpt lat="46.61249000" lon="8.57172403"><ele>1611.546021</ele><time>2007-07-25T15:40:28Z</time></trkpt>
<trkpt lat="46.61273198" lon="8.57187004"><ele>1609.636963</ele><time>2007-07-25T15:40:30Z</time></trkpt>
<trkpt lat="46.61297799" lon="8.57201303"><ele>1607.310059</ele><time>2007-07-25T15:40:32Z</time></trkpt>
<trkpt lat="46.61324403" lon="8.57209199"><ele>1601.296021</ele><time>2007-07-25T15:40:34Z</time></trkpt>
<trkpt lat="46.61349004" lon="8.57206400"><ele>1598.11499</ele><time>2007-07-25T15:40:36Z</time></trkpt>
<trkpt lat="46.61378399" lon="8.57180399"><ele>1594.962036</ele><time>2007-07-25T15:40:39Z</time></trkpt>
<trkpt lat="46.61385901" lon="8.57167901"><ele>1595.947021</ele><time>2007-07-25T15:40:40Z</time></trkpt>
<trkpt lat="46.61399798" lon="8.57141096"><ele>1595.473999</ele><time>2007-07-25T15:40:42Z</time></trkpt>
<trkpt lat="46.61416403" lon="8.57116797"><ele>1593.370972</ele><time>2007-07-25T15:40:44Z</time></trkpt>
<trkpt lat="46.61450802" lon="8.57101098"><ele>1590.064941</ele><time>2007-07-25T15:40:47Z</time></trkpt>
<trkpt lat="46.61475596" lon="8.57106596"><ele>1588.331055</ele><time>2007-07-25T15:40:49Z</time></trkpt>
<trkpt lat="46.61500499" lon="8.57115196"><ele>1587.530029</ele><time>2007-07-25T15:40:51Z</time></trkpt>
<trkpt lat="46.61538301" lon="8.57111600"><ele>1582.06604</ele><time>2007-07-25T15:40:54Z</time></trkpt>
<trkpt lat="46.61569498" lon="8.57083303"><ele>1578.73999</ele><time>2007-07-25T15:40:57Z</time></trkpt>
<trkpt lat="46.61577897" lon="8.57070303"><ele>1577.666992</ele><time>2007-07-25T15:40:58Z</time></trkpt>
<trkpt lat="46.61627200" lon="8.56984296"><ele>1573.505005</ele><time>2007-07-25T15:41:04Z</time></trkpt>
<trkpt lat="46.61644902" lon="8.56953400"><ele>1572.573975</ele><time>2007-07-25T15:41:06Z</time></trkpt>
<trkpt lat="46.61669997" lon="8.56906696"><ele>1568.456055</ele><time>2007-07-25T15:41:09Z</time></trkpt>
<trkpt lat="46.61678396" lon="8.56841804"><ele>1564.514038</ele><time>2007-07-25T15:41:12Z</time></trkpt>
<trkpt lat="46.61677499" lon="8.56817697"><ele>1563.738037</ele><time>2007-07-25T15:41:13Z</time></trkpt>
<trkpt lat="46.61673602" lon="8.56769904"><ele>1562.698975</ele><time>2007-07-25T15:41:15Z</time></trkpt>
<trkpt lat="46.61675597" lon="8.56698800"><ele>1554.98999</ele><time>2007-07-25T15:41:18Z</time></trkpt>
<trkpt lat="46.61684901" lon="8.56630898"><ele>1553.968994</ele><time>2007-07-25T15:41:21Z</time></trkpt>
<trkpt lat="46.61681900" lon="8.56564396"><ele>1549.514038</ele><time>2007-07-25T15:41:24Z</time></trkpt>
<trkpt lat="46.61676602" lon="8.56543601"><ele>1549.199951</ele><time>2007-07-25T15:41:25Z</time></trkpt>
<trkpt lat="46.61649403" lon="8.56461500"><ele>1543.281982</ele><time>2007-07-25T15:41:29Z</time></trkpt>
<trkpt lat="46.61636897" lon="8.56422499"><ele>1540.567017</ele><time>2007-07-25T15:41:31Z</time></trkpt>
<trkpt lat="46.61633302" lon="8.56347598"><ele>1535.406982</ele><time>2007-07-25T15:41:35Z</time></trkpt>
<trkpt lat="46.61639504" lon="8.56332703"><ele>1535.573975</ele><time>2007-07-25T15:41:36Z</time></trkpt>
<trkpt lat="46.61672202" lon="8.56312696"><ele>1532.54895</ele><time>2007-07-25T15:41:39Z</time></trkpt>
<trkpt lat="46.61705000" lon="8.56334598"><ele>1528.651001</ele><time>2007-07-25T15:41:42Z</time></trkpt>
<trkpt lat="46.61715000" lon="8.56366801"><ele>1525.296997</ele><time>2007-07-25T15:41:44Z</time></trkpt>
<trkpt lat="46.61717104" lon="8.56401100"><ele>1523.275024</ele><time>2007-07-25T15:41:46Z</time></trkpt>
<trkpt lat="46.61715796" lon="8.56450603"><ele>1521.922974</ele><time>2007-07-25T15:41:49Z</time></trkpt>
<trkpt lat="46.61716199" lon="8.56512403"><ele>1520.397949</ele><time>2007-07-25T15:41:53Z</time></trkpt>
<trkpt lat="46.61739802" lon="8.56625802"><ele>1517.165039</ele><time>2007-07-25T15:42:02Z</time></trkpt>
<trkpt lat="46.61743004" lon="8.56636204"><ele>1516.416992</ele><time>2007-07-25T15:42:03Z</time></trkpt>
<trkpt lat="46.61746399" lon="8.56656002"><ele>1515.489014</ele><time>2007-07-25T15:42:05Z</time></trkpt>
<trkpt lat="46.61748804" lon="8.56674501"><ele>1515.109009</ele><time>2007-07-25T15:42:07Z</time></trkpt>
<trkpt lat="46.61756499" lon="8.56695397"><ele>1516.369995</ele><time>2007-07-25T15:42:10Z</time></trkpt>
<trkpt lat="46.61764403" lon="8.56716502"><ele>1518.026001</ele><time>2007-07-25T15:42:15Z</time></trkpt>
<trkpt lat="46.61763003" lon="8.56714298"><ele>1518.56604</ele><time>2007-07-25T15:42:24Z</time></trkpt>
<trkpt lat="46.61751998" lon="8.56682103"><ele>1517.092041</ele><time>2007-07-25T15:42:50Z</time></trkpt>
<trkpt lat="46.61750103" lon="8.56676403"><ele>1517.312012</ele><time>2007-07-25T15:42:53Z</time></trkpt>
<trkpt lat="46.61760002" lon="8.56669002"><ele>1515.467041</ele><time>2007-07-25T15:42:58Z</time></trkpt>
<trkpt lat="46.61772600" lon="8.56630596"><ele>1518.979004</ele><time>2007-07-25T15:43:07Z</time></trkpt>
<trkpt lat="46.61787998" lon="8.56581101"><ele>1520.244995</ele><time>2007-07-25T15:43:21Z</time></trkpt>
<trkpt lat="46.61800697" lon="8.56531397"><ele>1521.839966</ele><time>2007-07-25T15:43:36Z</time></trkpt>
<trkpt lat="46.61796103" lon="8.56536903"><ele>1520.328979</ele><time>2007-07-25T15:43:40Z</time></trkpt>
<trkpt lat="46.61791502" lon="8.56555796"><ele>1520.026001</ele><time>2007-07-25T15:43:44Z</time></trkpt>
<trkpt lat="46.61783103" lon="8.56589500"><ele>1517.260986</ele><time>2007-07-25T15:43:50Z</time></trkpt>
<trkpt lat="46.61770597" lon="8.56620597"><ele>1516.319946</ele><time>2007-07-25T15:43:55Z</time></trkpt>
<trkpt lat="46.61759701" lon="8.56641501"><ele>1514.838989</ele><time>2007-07-25T15:43:59Z</time></trkpt>
<trkpt lat="46.61745803" lon="8.56653102"><ele>1517.301025</ele><time>2007-07-25T15:44:03Z</time></trkpt>
<trkpt lat="46.61756499" lon="8.56675398"><ele>1513.484009</ele><time>2007-07-25T15:44:08Z</time></trkpt>
<trkpt lat="46.61763598" lon="8.56688398"><ele>1511.626953</ele><time>2007-07-25T15:44:10Z</time></trkpt>
<trkpt lat="46.61773799" lon="8.56710903"><ele>1510.303955</ele><time>2007-07-25T15:44:13Z</time></trkpt>
<trkpt lat="46.61787696" lon="8.56744599"><ele>1508.022949</ele><time>2007-07-25T15:44:18Z</time></trkpt>
<trkpt lat="46.61793496" lon="8.56757197"><ele>1507.531006</ele><time>2007-07-25T15:44:20Z</time></trkpt>
<trkpt lat="46.61809104" lon="8.56768303"><ele>1508.064941</ele><time>2007-07-25T15:44:24Z</time></trkpt>
<trkpt lat="46.61812498" lon="8.56766098"><ele>1507.982056</ele><time>2007-07-25T15:44:25Z</time></trkpt>
<trkpt lat="46.61834300" lon="8.56742696"><ele>1505.317993</ele><time>2007-07-25T15:44:35Z</time></trkpt>
<trkpt lat="46.61839496" lon="8.56738002"><ele>1504.375977</ele><time>2007-07-25T15:44:41Z</time></trkpt>
<trkpt lat="46.61844903" lon="8.56740500"><ele>1502.448975</ele><time>2007-07-25T15:44:44Z</time></trkpt>
<trkpt lat="46.61853000" lon="8.56744900"><ele>1502.516968</ele><time>2007-07-25T15:44:48Z</time></trkpt>
<trkpt lat="46.61851902" lon="8.56743199"><ele>1502.906006</ele><time>2007-07-25T15:44:54Z</time></trkpt>
<trkpt lat="46.61828700" lon="8.56739997"><ele>1505.107056</ele><time>2007-07-25T15:45:03Z</time></trkpt>
<trkpt lat="46.61814803" lon="8.56758102"><ele>1506.437012</ele><time>2007-07-25T15:45:15Z</time></trkpt>
<trkpt lat="46.61792298" lon="8.56774304"><ele>1507.845947</ele><time>2007-07-25T15:45:28Z</time></trkpt>
<trkpt lat="46.61785500" lon="8.56777498"><ele>1506.644043</ele><time>2007-07-25T15:45:35Z</time></trkpt>
<trkpt lat="46.61788199" lon="8.56758504"><ele>1508.202026</ele><time>2007-07-25T15:45:42Z</time></trkpt>
<trkpt lat="46.61785902" lon="8.56736502"><ele>1509.508057</ele><time>2007-07-25T15:45:48Z</time></trkpt>
<trkpt lat="46.61787101" lon="8.56730601"><ele>1510.26001</ele><time>2007-07-25T15:45:50Z</time></trkpt>
<trkpt lat="46.61784302" lon="8.56729503"><ele>1509.594971</ele><time>2007-07-25T15:45:59Z</time></trkpt>
<trkpt lat="46.61783698" lon="8.56751597"><ele>1507.870972</ele><time>2007-07-25T15:46:06Z</time></trkpt>
<trkpt lat="46.61803597" lon="8.56794697"><ele>1504.743042</ele><time>2007-07-25T15:46:12Z</time></trkpt>
<trkpt lat="46.61816203" lon="8.56822802"><ele>1501.697998</ele><time>2007-07-25T15:46:15Z</time></trkpt>
<trkpt lat="46.61820101" lon="8.56832701"><ele>1501.78894</ele><time>2007-07-25T15:46:16Z</time></trkpt>
<trkpt lat="46.61844601" lon="8.56883101"><ele>1498.689941</ele><time>2007-07-25T15:46:21Z</time></trkpt>
<trkpt lat="46.61856101" lon="8.56903704"><ele>1497.61499</ele><time>2007-07-25T15:46:23Z</time></trkpt>
<trkpt lat="46.61888103" lon="8.56955999"><ele>1494.277954</ele><time>2007-07-25T15:46:28Z</time></trkpt>
<trkpt lat="46.61901900" lon="8.56977297"><ele>1493.375977</ele><time>2007-07-25T15:46:30Z</time></trkpt>
<trkpt lat="46.61938202" lon="8.57030698"><ele>1489.616943</ele><time>2007-07-25T15:46:35Z</time></trkpt>
<trkpt lat="46.61945703" lon="8.57041301"><ele>1489.31897</ele><time>2007-07-25T15:46:36Z</time></trkpt>
<trkpt lat="46.61976197" lon="8.57081601"><ele>1487.480957</ele><time>2007-07-25T15:46:40Z</time></trkpt>
<trkpt lat="46.62038600" lon="8.57155404"><ele>1483.337036</ele><time>2007-07-25T15:46:48Z</time></trkpt>
<trkpt lat="46.62061701" lon="8.57179804"><ele>1480.36499</ele><time>2007-07-25T15:46:51Z</time></trkpt>
<trkpt lat="46.62138999" lon="8.57251503"><ele>1476.618042</ele><time>2007-07-25T15:47:01Z</time></trkpt>
<trkpt lat="46.62217302" lon="8.57329496"><ele>1472.494019</ele><time>2007-07-25T15:47:11Z</time></trkpt>
<trkpt lat="46.62231501" lon="8.57349596"><ele>1470.890015</ele><time>2007-07-25T15:47:13Z</time></trkpt>
<trkpt lat="46.62245197" lon="8.57370199"><ele>1469.053955</ele><time>2007-07-25T15:47:15Z</time></trkpt>
<trkpt lat="46.62269899" lon="8.57412200"><ele>1466.053955</ele><time>2007-07-25T15:47:19Z</time></trkpt>
<trkpt lat="46.62289898" lon="8.57445502"><ele>1468.33606</ele><time>2007-07-25T15:47:23Z</time></trkpt>
<trkpt lat="46.62293703" lon="8.57457404"><ele>1469.271973</ele><time>2007-07-25T15:47:30Z</time></trkpt>
<trkpt lat="46.62293402" lon="8.57455803"><ele>1469.717041</ele><time>2007-07-25T15:47:41Z</time></trkpt>
<trkpt lat="46.62294500" lon="8.57445703"><ele>1470.223999</ele><time>2007-07-25T15:47:45Z</time></trkpt>
<trkpt lat="46.62254501" lon="8.57370400"><ele>1472.749023</ele><time>2007-07-25T15:48:00Z</time></trkpt>
<trkpt lat="46.62219699" lon="8.57314903"><ele>1475.771973</ele><time>2007-07-25T15:48:12Z</time></trkpt>
<trkpt lat="46.62183104" lon="8.57267998"><ele>1478.817993</ele><time>2007-07-25T15:48:25Z</time></trkpt>
<trkpt lat="46.62112897" lon="8.57193600"><ele>1479.812988</ele><time>2007-07-25T15:48:45Z</time></trkpt>
<trkpt lat="46.62052698" lon="8.57102598"><ele>1479.509033</ele><time>2007-07-25T15:49:03Z</time></trkpt>
<trkpt lat="46.62015500" lon="8.57063496"><ele>1481.534058</ele><time>2007-07-25T15:49:15Z</time></trkpt>
<trkpt lat="46.61994000" lon="8.57038099"><ele>1482.625</ele><time>2007-07-25T15:49:23Z</time></trkpt>
<trkpt lat="46.62008903" lon="8.57026599"><ele>1481.166016</ele><time>2007-07-25T15:49:29Z</time></trkpt>
<trkpt lat="46.62034996" lon="8.57029801"><ele>1476.255981</ele><time>2007-07-25T15:49:33Z</time></trkpt>
<trkpt lat="46.62041601" lon="8.57031201"><ele>1476.640991</ele><time>2007-07-25T15:49:34Z</time></trkpt>
<trkpt lat="46.62060502" lon="8.57036901"><ele>1472.102051</ele><time>2007-07-25T15:49:37Z</time></trkpt>
<trkpt lat="46.62066503" lon="8.57038703"><ele>1472.515991</ele><time>2007-07-25T15:49:38Z</time></trkpt>
<trkpt lat="46.62072203" lon="8.57040798"><ele>1472.338013</ele><time>2007-07-25T15:49:39Z</time></trkpt>
<trkpt lat="46.62082303" lon="8.57046104"><ele>1474.753052</ele><time>2007-07-25T15:49:41Z</time></trkpt>
<trkpt lat="46.62095304" lon="8.57060303"><ele>1472.930054</ele><time>2007-07-25T15:49:45Z</time></trkpt>
<trkpt lat="46.62108396" lon="8.57082599"><ele>1473.911011</ele><time>2007-07-25T15:49:53Z</time></trkpt>
<trkpt lat="46.62115001" lon="8.57103604"><ele>1472.519043</ele><time>2007-07-25T15:50:04Z</time></trkpt>
<trkpt lat="46.62118899" lon="8.57118398"><ele>1472.134033</ele><time>2007-07-25T15:50:14Z</time></trkpt>
<trkpt lat="46.62130097" lon="8.57119001"><ele>1473.906982</ele><time>2007-07-25T15:50:25Z</time></trkpt>
<trkpt lat="46.62131698" lon="8.57120804"><ele>1473.477051</ele><time>2007-07-25T15:50:34Z</time></trkpt>
<trkpt lat="46.62121799" lon="8.57112497"><ele>1472.905029</ele><time>2007-07-25T15:50:44Z</time></trkpt>
</trkseg></trk></gpx>